<?xml version="1.0" encoding="UTF-8" standalone="no" ?>
<gpx xmlns="http://www.topografix.com/GPX/1/1" xmlns:xsi="http://www.w3.org/2001/XMLSchema-instance" xsi:schemaLocation="http://www.topografix.com/GPX/1/1 http://www.topografix.com/GPX/1/1/gpx.xsd" version="1.1" creator="VisuGPX - https://www.visugpx.com">
  <metadata>
    <name>Virée à VTT sur l\'ancienne voie ferrée vers javron</name>
    <desc><![CDATA[Départ de la gare de Villaines, remontée jusqu\'à Javron, incursion vers l\'Orne. Descente jusqu\'à Loupfougères et remontée vers la voiture.]]></desc>
  </metadata>
  <trk>
    <name><![CDATA[Virée à VTT sur l\'ancienne voie ferrée vers javron_1]]></name>
    <trkseg>
      <trkpt lat="48.36085" lon="-0.31579">
        <ele>181.2</ele>
        <time>2012-08-11T07:34:27Z</time>
      </trkpt>
      <trkpt lat="48.36085" lon="-0.31579">
        <ele>210</ele>
        <time>2012-08-11T07:34:30Z</time>
      </trkpt>
      <trkpt lat="48.3609" lon="-0.31583">
        <ele>213.5</ele>
        <time>2012-08-11T07:34:36Z</time>
      </trkpt>
      <trkpt lat="48.36094" lon="-0.31587">
        <ele>214</ele>
        <time>2012-08-11T07:34:40Z</time>
      </trkpt>
      <trkpt lat="48.36106" lon="-0.31597">
        <ele>216.5</ele>
        <time>2012-08-11T07:34:46Z</time>
      </trkpt>
      <trkpt lat="48.36123" lon="-0.31609">
        <ele>222.5</ele>
        <time>2012-08-11T07:34:52Z</time>
      </trkpt>
      <trkpt lat="48.36128" lon="-0.31612">
        <ele>223</ele>
        <time>2012-08-11T07:34:54Z</time>
      </trkpt>
      <trkpt lat="48.36136" lon="-0.31619">
        <ele>224.5</ele>
        <time>2012-08-11T07:34:58Z</time>
      </trkpt>
      <trkpt lat="48.36143" lon="-0.31621">
        <ele>225.5</ele>
        <time>2012-08-11T07:35:00Z</time>
      </trkpt>
      <trkpt lat="48.36147" lon="-0.31624">
        <ele>227</ele>
        <time>2012-08-11T07:35:06Z</time>
      </trkpt>
      <trkpt lat="48.36148" lon="-0.31632">
        <ele>228</ele>
        <time>2012-08-11T07:35:16Z</time>
      </trkpt>
      <trkpt lat="48.36158" lon="-0.31637">
        <ele>228</ele>
        <time>2012-08-11T07:35:20Z</time>
      </trkpt>
      <trkpt lat="48.36169" lon="-0.3164">
        <ele>227.5</ele>
        <time>2012-08-11T07:35:24Z</time>
      </trkpt>
      <trkpt lat="48.36182" lon="-0.31646">
        <ele>228.5</ele>
        <time>2012-08-11T07:35:28Z</time>
      </trkpt>
      <trkpt lat="48.36188" lon="-0.31651">
        <ele>228.5</ele>
        <time>2012-08-11T07:35:30Z</time>
      </trkpt>
      <trkpt lat="48.36195" lon="-0.31656">
        <ele>229</ele>
        <time>2012-08-11T07:35:32Z</time>
      </trkpt>
      <trkpt lat="48.36201" lon="-0.3166">
        <ele>229</ele>
        <time>2012-08-11T07:35:34Z</time>
      </trkpt>
      <trkpt lat="48.36216" lon="-0.3167">
        <ele>229</ele>
        <time>2012-08-11T07:35:38Z</time>
      </trkpt>
      <trkpt lat="48.36223" lon="-0.31675">
        <ele>229</ele>
        <time>2012-08-11T07:35:40Z</time>
      </trkpt>
      <trkpt lat="48.36237" lon="-0.31686">
        <ele>230</ele>
        <time>2012-08-11T07:35:44Z</time>
      </trkpt>
      <trkpt lat="48.36242" lon="-0.31693">
        <ele>230.5</ele>
        <time>2012-08-11T07:35:46Z</time>
      </trkpt>
      <trkpt lat="48.36255" lon="-0.31703">
        <ele>231</ele>
        <time>2012-08-11T07:35:50Z</time>
      </trkpt>
      <trkpt lat="48.3627" lon="-0.31713">
        <ele>231.5</ele>
        <time>2012-08-11T07:35:54Z</time>
      </trkpt>
      <trkpt lat="48.36278" lon="-0.31718">
        <ele>231.5</ele>
        <time>2012-08-11T07:35:56Z</time>
      </trkpt>
      <trkpt lat="48.36292" lon="-0.31727">
        <ele>233</ele>
        <time>2012-08-11T07:36:00Z</time>
      </trkpt>
      <trkpt lat="48.36305" lon="-0.31736">
        <ele>232.5</ele>
        <time>2012-08-11T07:36:04Z</time>
      </trkpt>
      <trkpt lat="48.36312" lon="-0.31744">
        <ele>232</ele>
        <time>2012-08-11T07:36:06Z</time>
      </trkpt>
      <trkpt lat="48.36325" lon="-0.31757">
        <ele>232</ele>
        <time>2012-08-11T07:36:10Z</time>
      </trkpt>
      <trkpt lat="48.36342" lon="-0.31769">
        <ele>232.5</ele>
        <time>2012-08-11T07:36:14Z</time>
      </trkpt>
      <trkpt lat="48.36353" lon="-0.31785">
        <ele>231</ele>
        <time>2012-08-11T07:36:18Z</time>
      </trkpt>
      <trkpt lat="48.36365" lon="-0.31801">
        <ele>231</ele>
        <time>2012-08-11T07:36:22Z</time>
      </trkpt>
      <trkpt lat="48.36378" lon="-0.31816">
        <ele>232.5</ele>
        <time>2012-08-11T07:36:26Z</time>
      </trkpt>
      <trkpt lat="48.36384" lon="-0.31824">
        <ele>232.5</ele>
        <time>2012-08-11T07:36:28Z</time>
      </trkpt>
      <trkpt lat="48.36396" lon="-0.31837">
        <ele>231.5</ele>
        <time>2012-08-11T07:36:32Z</time>
      </trkpt>
      <trkpt lat="48.36408" lon="-0.31855">
        <ele>230.5</ele>
        <time>2012-08-11T07:36:36Z</time>
      </trkpt>
      <trkpt lat="48.36418" lon="-0.31871">
        <ele>231</ele>
        <time>2012-08-11T07:36:40Z</time>
      </trkpt>
      <trkpt lat="48.36423" lon="-0.31883">
        <ele>231.5</ele>
        <time>2012-08-11T07:36:42Z</time>
      </trkpt>
      <trkpt lat="48.36432" lon="-0.31901">
        <ele>231</ele>
        <time>2012-08-11T07:36:46Z</time>
      </trkpt>
      <trkpt lat="48.36438" lon="-0.31909">
        <ele>232</ele>
        <time>2012-08-11T07:36:48Z</time>
      </trkpt>
      <trkpt lat="48.3645" lon="-0.31928">
        <ele>232</ele>
        <time>2012-08-11T07:36:52Z</time>
      </trkpt>
      <trkpt lat="48.36461" lon="-0.3195">
        <ele>231</ele>
        <time>2012-08-11T07:36:56Z</time>
      </trkpt>
      <trkpt lat="48.36473" lon="-0.31971">
        <ele>231</ele>
        <time>2012-08-11T07:37:00Z</time>
      </trkpt>
      <trkpt lat="48.36484" lon="-0.31994">
        <ele>231.5</ele>
        <time>2012-08-11T07:37:04Z</time>
      </trkpt>
      <trkpt lat="48.36496" lon="-0.32017">
        <ele>231.5</ele>
        <time>2012-08-11T07:37:08Z</time>
      </trkpt>
      <trkpt lat="48.36506" lon="-0.32038">
        <ele>231</ele>
        <time>2012-08-11T07:37:12Z</time>
      </trkpt>
      <trkpt lat="48.36516" lon="-0.3206">
        <ele>230</ele>
        <time>2012-08-11T07:37:16Z</time>
      </trkpt>
      <trkpt lat="48.36521" lon="-0.32072">
        <ele>230</ele>
        <time>2012-08-11T07:37:18Z</time>
      </trkpt>
      <trkpt lat="48.36531" lon="-0.32095">
        <ele>230</ele>
        <time>2012-08-11T07:37:22Z</time>
      </trkpt>
      <trkpt lat="48.36535" lon="-0.32104">
        <ele>229.5</ele>
        <time>2012-08-11T07:37:24Z</time>
      </trkpt>
      <trkpt lat="48.36543" lon="-0.32123">
        <ele>229.5</ele>
        <time>2012-08-11T07:37:28Z</time>
      </trkpt>
      <trkpt lat="48.36548" lon="-0.32132">
        <ele>230</ele>
        <time>2012-08-11T07:37:30Z</time>
      </trkpt>
      <trkpt lat="48.36557" lon="-0.32153">
        <ele>230</ele>
        <time>2012-08-11T07:37:34Z</time>
      </trkpt>
      <trkpt lat="48.36568" lon="-0.32177">
        <ele>230</ele>
        <time>2012-08-11T07:37:38Z</time>
      </trkpt>
      <trkpt lat="48.36573" lon="-0.32188">
        <ele>230.5</ele>
        <time>2012-08-11T07:37:40Z</time>
      </trkpt>
      <trkpt lat="48.36582" lon="-0.3221">
        <ele>230.5</ele>
        <time>2012-08-11T07:37:44Z</time>
      </trkpt>
      <trkpt lat="48.3659" lon="-0.3223">
        <ele>230.5</ele>
        <time>2012-08-11T07:37:48Z</time>
      </trkpt>
      <trkpt lat="48.36594" lon="-0.3224">
        <ele>230.5</ele>
        <time>2012-08-11T07:37:50Z</time>
      </trkpt>
      <trkpt lat="48.36603" lon="-0.32259">
        <ele>230</ele>
        <time>2012-08-11T07:37:54Z</time>
      </trkpt>
      <trkpt lat="48.36607" lon="-0.32269">
        <ele>230</ele>
        <time>2012-08-11T07:37:56Z</time>
      </trkpt>
      <trkpt lat="48.36616" lon="-0.32288">
        <ele>230</ele>
        <time>2012-08-11T07:38:00Z</time>
      </trkpt>
      <trkpt lat="48.36623" lon="-0.32307">
        <ele>228</ele>
        <time>2012-08-11T07:38:04Z</time>
      </trkpt>
      <trkpt lat="48.36631" lon="-0.32326">
        <ele>227.5</ele>
        <time>2012-08-11T07:38:08Z</time>
      </trkpt>
      <trkpt lat="48.36643" lon="-0.32342">
        <ele>229.5</ele>
        <time>2012-08-11T07:38:12Z</time>
      </trkpt>
      <trkpt lat="48.36661" lon="-0.32363">
        <ele>233</ele>
        <time>2012-08-11T07:38:18Z</time>
      </trkpt>
      <trkpt lat="48.36677" lon="-0.32376">
        <ele>232</ele>
        <time>2012-08-11T07:38:22Z</time>
      </trkpt>
      <trkpt lat="48.36687" lon="-0.32393">
        <ele>231</ele>
        <time>2012-08-11T07:38:26Z</time>
      </trkpt>
      <trkpt lat="48.367" lon="-0.3241">
        <ele>231</ele>
        <time>2012-08-11T07:38:30Z</time>
      </trkpt>
      <trkpt lat="48.36714" lon="-0.32426">
        <ele>231</ele>
        <time>2012-08-11T07:38:34Z</time>
      </trkpt>
      <trkpt lat="48.3673" lon="-0.32438">
        <ele>231</ele>
        <time>2012-08-11T07:38:38Z</time>
      </trkpt>
      <trkpt lat="48.36737" lon="-0.32444">
        <ele>231</ele>
        <time>2012-08-11T07:38:40Z</time>
      </trkpt>
      <trkpt lat="48.36751" lon="-0.32453">
        <ele>231.5</ele>
        <time>2012-08-11T07:38:44Z</time>
      </trkpt>
      <trkpt lat="48.36762" lon="-0.32465">
        <ele>232.5</ele>
        <time>2012-08-11T07:38:48Z</time>
      </trkpt>
      <trkpt lat="48.36776" lon="-0.32474">
        <ele>233</ele>
        <time>2012-08-11T07:38:54Z</time>
      </trkpt>
      <trkpt lat="48.36781" lon="-0.32476">
        <ele>232.5</ele>
        <time>2012-08-11T07:38:56Z</time>
      </trkpt>
      <trkpt lat="48.36794" lon="-0.32482">
        <ele>231.5</ele>
        <time>2012-08-11T07:39:00Z</time>
      </trkpt>
      <trkpt lat="48.36801" lon="-0.32483">
        <ele>231.5</ele>
        <time>2012-08-11T07:39:02Z</time>
      </trkpt>
      <trkpt lat="48.36807" lon="-0.32486">
        <ele>231</ele>
        <time>2012-08-11T07:39:04Z</time>
      </trkpt>
      <trkpt lat="48.36818" lon="-0.32493">
        <ele>228.5</ele>
        <time>2012-08-11T07:39:08Z</time>
      </trkpt>
      <trkpt lat="48.36826" lon="-0.32495">
        <ele>228</ele>
        <time>2012-08-11T07:39:10Z</time>
      </trkpt>
      <trkpt lat="48.36851" lon="-0.32502">
        <ele>227.5</ele>
        <time>2012-08-11T07:39:16Z</time>
      </trkpt>
      <trkpt lat="48.36866" lon="-0.32506">
        <ele>227</ele>
        <time>2012-08-11T07:39:20Z</time>
      </trkpt>
      <trkpt lat="48.36879" lon="-0.32509">
        <ele>224.5</ele>
        <time>2012-08-11T07:39:24Z</time>
      </trkpt>
      <trkpt lat="48.36895" lon="-0.32513">
        <ele>224</ele>
        <time>2012-08-11T07:39:28Z</time>
      </trkpt>
      <trkpt lat="48.36903" lon="-0.32515">
        <ele>224</ele>
        <time>2012-08-11T07:39:30Z</time>
      </trkpt>
      <trkpt lat="48.36921" lon="-0.32513">
        <ele>223</ele>
        <time>2012-08-11T07:39:34Z</time>
      </trkpt>
      <trkpt lat="48.3693" lon="-0.32511">
        <ele>222</ele>
        <time>2012-08-11T07:39:36Z</time>
      </trkpt>
      <trkpt lat="48.36948" lon="-0.32508">
        <ele>222.5</ele>
        <time>2012-08-11T07:39:40Z</time>
      </trkpt>
      <trkpt lat="48.36964" lon="-0.32504">
        <ele>224</ele>
        <time>2012-08-11T07:39:44Z</time>
      </trkpt>
      <trkpt lat="48.36977" lon="-0.325">
        <ele>224</ele>
        <time>2012-08-11T07:39:48Z</time>
      </trkpt>
      <trkpt lat="48.3699" lon="-0.32497">
        <ele>219.5</ele>
        <time>2012-08-11T07:39:52Z</time>
      </trkpt>
      <trkpt lat="48.36995" lon="-0.32496">
        <ele>218.5</ele>
        <time>2012-08-11T07:39:54Z</time>
      </trkpt>
      <trkpt lat="48.3701" lon="-0.32492">
        <ele>217</ele>
        <time>2012-08-11T07:39:58Z</time>
      </trkpt>
      <trkpt lat="48.37019" lon="-0.32489">
        <ele>219</ele>
        <time>2012-08-11T07:40:00Z</time>
      </trkpt>
      <trkpt lat="48.37046" lon="-0.32486">
        <ele>221.5</ele>
        <time>2012-08-11T07:40:06Z</time>
      </trkpt>
      <trkpt lat="48.37065" lon="-0.32488">
        <ele>222</ele>
        <time>2012-08-11T07:40:10Z</time>
      </trkpt>
      <trkpt lat="48.3708" lon="-0.32486">
        <ele>223</ele>
        <time>2012-08-11T07:40:14Z</time>
      </trkpt>
      <trkpt lat="48.37098" lon="-0.32481">
        <ele>223</ele>
        <time>2012-08-11T07:40:18Z</time>
      </trkpt>
      <trkpt lat="48.37116" lon="-0.32483">
        <ele>221.5</ele>
        <time>2012-08-11T07:40:22Z</time>
      </trkpt>
      <trkpt lat="48.37126" lon="-0.32484">
        <ele>220.5</ele>
        <time>2012-08-11T07:40:24Z</time>
      </trkpt>
      <trkpt lat="48.37142" lon="-0.32486">
        <ele>220.5</ele>
        <time>2012-08-11T07:40:28Z</time>
      </trkpt>
      <trkpt lat="48.37161" lon="-0.32492">
        <ele>221</ele>
        <time>2012-08-11T07:40:32Z</time>
      </trkpt>
      <trkpt lat="48.37177" lon="-0.32497">
        <ele>221</ele>
        <time>2012-08-11T07:40:36Z</time>
      </trkpt>
      <trkpt lat="48.37196" lon="-0.32501">
        <ele>224.5</ele>
        <time>2012-08-11T07:40:40Z</time>
      </trkpt>
      <trkpt lat="48.37214" lon="-0.32505">
        <ele>226</ele>
        <time>2012-08-11T07:40:44Z</time>
      </trkpt>
      <trkpt lat="48.37232" lon="-0.32511">
        <ele>227</ele>
        <time>2012-08-11T07:40:48Z</time>
      </trkpt>
      <trkpt lat="48.37247" lon="-0.32512">
        <ele>227</ele>
        <time>2012-08-11T07:40:52Z</time>
      </trkpt>
      <trkpt lat="48.37254" lon="-0.32511">
        <ele>227.5</ele>
        <time>2012-08-11T07:40:54Z</time>
      </trkpt>
      <trkpt lat="48.3728" lon="-0.32511">
        <ele>228</ele>
        <time>2012-08-11T07:41:00Z</time>
      </trkpt>
      <trkpt lat="48.37298" lon="-0.3252">
        <ele>229.5</ele>
        <time>2012-08-11T07:41:06Z</time>
      </trkpt>
      <trkpt lat="48.37307" lon="-0.32528">
        <ele>229</ele>
        <time>2012-08-11T07:41:12Z</time>
      </trkpt>
      <trkpt lat="48.37318" lon="-0.32534">
        <ele>230</ele>
        <time>2012-08-11T07:41:18Z</time>
      </trkpt>
      <trkpt lat="48.37324" lon="-0.32538">
        <ele>232</ele>
        <time>2012-08-11T07:41:20Z</time>
      </trkpt>
      <trkpt lat="48.37328" lon="-0.32536">
        <ele>231</ele>
        <time>2012-08-11T07:41:22Z</time>
      </trkpt>
      <trkpt lat="48.37345" lon="-0.32537">
        <ele>227</ele>
        <time>2012-08-11T07:41:28Z</time>
      </trkpt>
      <trkpt lat="48.37352" lon="-0.32538">
        <ele>224</ele>
        <time>2012-08-11T07:41:30Z</time>
      </trkpt>
      <trkpt lat="48.37365" lon="-0.32541">
        <ele>221.5</ele>
        <time>2012-08-11T07:41:34Z</time>
      </trkpt>
      <trkpt lat="48.37372" lon="-0.32543">
        <ele>221</ele>
        <time>2012-08-11T07:41:36Z</time>
      </trkpt>
      <trkpt lat="48.37377" lon="-0.32545">
        <ele>222</ele>
        <time>2012-08-11T07:41:38Z</time>
      </trkpt>
      <trkpt lat="48.37397" lon="-0.32552">
        <ele>221.5</ele>
        <time>2012-08-11T07:41:42Z</time>
      </trkpt>
      <trkpt lat="48.37413" lon="-0.32561">
        <ele>218</ele>
        <time>2012-08-11T07:41:46Z</time>
      </trkpt>
      <trkpt lat="48.3743" lon="-0.32565">
        <ele>219</ele>
        <time>2012-08-11T07:41:50Z</time>
      </trkpt>
      <trkpt lat="48.37449" lon="-0.32568">
        <ele>215</ele>
        <time>2012-08-11T07:41:54Z</time>
      </trkpt>
      <trkpt lat="48.37464" lon="-0.32569">
        <ele>217</ele>
        <time>2012-08-11T07:41:58Z</time>
      </trkpt>
      <trkpt lat="48.37483" lon="-0.3257">
        <ele>217</ele>
        <time>2012-08-11T07:42:02Z</time>
      </trkpt>
      <trkpt lat="48.37496" lon="-0.32576">
        <ele>213.5</ele>
        <time>2012-08-11T07:42:06Z</time>
      </trkpt>
      <trkpt lat="48.37515" lon="-0.32578">
        <ele>213.5</ele>
        <time>2012-08-11T07:42:10Z</time>
      </trkpt>
      <trkpt lat="48.37539" lon="-0.32585">
        <ele>211</ele>
        <time>2012-08-11T07:42:16Z</time>
      </trkpt>
      <trkpt lat="48.37554" lon="-0.32594">
        <ele>206.5</ele>
        <time>2012-08-11T07:42:20Z</time>
      </trkpt>
      <trkpt lat="48.37564" lon="-0.32596">
        <ele>206</ele>
        <time>2012-08-11T07:42:22Z</time>
      </trkpt>
      <trkpt lat="48.37583" lon="-0.326">
        <ele>202.5</ele>
        <time>2012-08-11T07:42:26Z</time>
      </trkpt>
      <trkpt lat="48.37592" lon="-0.32603">
        <ele>199.5</ele>
        <time>2012-08-11T07:42:28Z</time>
      </trkpt>
      <trkpt lat="48.37609" lon="-0.3261">
        <ele>198.5</ele>
        <time>2012-08-11T07:42:32Z</time>
      </trkpt>
      <trkpt lat="48.37628" lon="-0.3261">
        <ele>200.5</ele>
        <time>2012-08-11T07:42:36Z</time>
      </trkpt>
      <trkpt lat="48.37645" lon="-0.32612">
        <ele>201</ele>
        <time>2012-08-11T07:42:40Z</time>
      </trkpt>
      <trkpt lat="48.37662" lon="-0.32623">
        <ele>200</ele>
        <time>2012-08-11T07:42:44Z</time>
      </trkpt>
      <trkpt lat="48.37682" lon="-0.32629">
        <ele>201.5</ele>
        <time>2012-08-11T07:42:48Z</time>
      </trkpt>
      <trkpt lat="48.37704" lon="-0.32638">
        <ele>201.5</ele>
        <time>2012-08-11T07:42:52Z</time>
      </trkpt>
      <trkpt lat="48.37722" lon="-0.32645">
        <ele>200.5</ele>
        <time>2012-08-11T07:42:56Z</time>
      </trkpt>
      <trkpt lat="48.37746" lon="-0.32655">
        <ele>204</ele>
        <time>2012-08-11T07:43:00Z</time>
      </trkpt>
      <trkpt lat="48.37765" lon="-0.32664">
        <ele>206.5</ele>
        <time>2012-08-11T07:43:04Z</time>
      </trkpt>
      <trkpt lat="48.37778" lon="-0.32674">
        <ele>203</ele>
        <time>2012-08-11T07:43:08Z</time>
      </trkpt>
      <trkpt lat="48.37795" lon="-0.32684">
        <ele>202.5</ele>
        <time>2012-08-11T07:43:12Z</time>
      </trkpt>
      <trkpt lat="48.37816" lon="-0.327">
        <ele>204</ele>
        <time>2012-08-11T07:43:16Z</time>
      </trkpt>
      <trkpt lat="48.37834" lon="-0.32716">
        <ele>209</ele>
        <time>2012-08-11T07:43:20Z</time>
      </trkpt>
      <trkpt lat="48.37851" lon="-0.32732">
        <ele>211</ele>
        <time>2012-08-11T07:43:24Z</time>
      </trkpt>
      <trkpt lat="48.37871" lon="-0.32748">
        <ele>216</ele>
        <time>2012-08-11T07:43:28Z</time>
      </trkpt>
      <trkpt lat="48.37884" lon="-0.3277">
        <ele>215</ele>
        <time>2012-08-11T07:43:32Z</time>
      </trkpt>
      <trkpt lat="48.37902" lon="-0.32784">
        <ele>215.5</ele>
        <time>2012-08-11T07:43:36Z</time>
      </trkpt>
      <trkpt lat="48.37922" lon="-0.32801">
        <ele>218.5</ele>
        <time>2012-08-11T07:43:40Z</time>
      </trkpt>
      <trkpt lat="48.37936" lon="-0.32818">
        <ele>218.5</ele>
        <time>2012-08-11T07:43:44Z</time>
      </trkpt>
      <trkpt lat="48.37949" lon="-0.32842">
        <ele>220</ele>
        <time>2012-08-11T07:43:48Z</time>
      </trkpt>
      <trkpt lat="48.37964" lon="-0.3286">
        <ele>222</ele>
        <time>2012-08-11T07:43:52Z</time>
      </trkpt>
      <trkpt lat="48.37975" lon="-0.32877">
        <ele>220.5</ele>
        <time>2012-08-11T07:43:56Z</time>
      </trkpt>
      <trkpt lat="48.37988" lon="-0.32895">
        <ele>222.5</ele>
        <time>2012-08-11T07:44:00Z</time>
      </trkpt>
      <trkpt lat="48.38003" lon="-0.32906">
        <ele>226.5</ele>
        <time>2012-08-11T07:44:04Z</time>
      </trkpt>
      <trkpt lat="48.38014" lon="-0.32921">
        <ele>224.5</ele>
        <time>2012-08-11T07:44:08Z</time>
      </trkpt>
      <trkpt lat="48.38024" lon="-0.32935">
        <ele>221.5</ele>
        <time>2012-08-11T07:44:12Z</time>
      </trkpt>
      <trkpt lat="48.38041" lon="-0.32948">
        <ele>222.5</ele>
        <time>2012-08-11T07:44:16Z</time>
      </trkpt>
      <trkpt lat="48.38061" lon="-0.32954">
        <ele>222.5</ele>
        <time>2012-08-11T07:44:20Z</time>
      </trkpt>
      <trkpt lat="48.38079" lon="-0.32966">
        <ele>223.5</ele>
        <time>2012-08-11T07:44:24Z</time>
      </trkpt>
      <trkpt lat="48.38095" lon="-0.32976">
        <ele>223.5</ele>
        <time>2012-08-11T07:44:28Z</time>
      </trkpt>
      <trkpt lat="48.38108" lon="-0.32987">
        <ele>224</ele>
        <time>2012-08-11T07:44:32Z</time>
      </trkpt>
      <trkpt lat="48.3812" lon="-0.3299">
        <ele>223</ele>
        <time>2012-08-11T07:44:36Z</time>
      </trkpt>
      <trkpt lat="48.38131" lon="-0.32993">
        <ele>223.5</ele>
        <time>2012-08-11T07:44:38Z</time>
      </trkpt>
      <trkpt lat="48.38144" lon="-0.33001">
        <ele>223.5</ele>
        <time>2012-08-11T07:44:42Z</time>
      </trkpt>
      <trkpt lat="48.38168" lon="-0.33">
        <ele>223.5</ele>
        <time>2012-08-11T07:44:46Z</time>
      </trkpt>
      <trkpt lat="48.3818" lon="-0.32997">
        <ele>223.5</ele>
        <time>2012-08-11T07:44:48Z</time>
      </trkpt>
      <trkpt lat="48.38201" lon="-0.33">
        <ele>223.5</ele>
        <time>2012-08-11T07:44:52Z</time>
      </trkpt>
      <trkpt lat="48.38228" lon="-0.33001">
        <ele>223.5</ele>
        <time>2012-08-11T07:44:58Z</time>
      </trkpt>
      <trkpt lat="48.38238" lon="-0.3301">
        <ele>221.5</ele>
        <time>2012-08-11T07:45:02Z</time>
      </trkpt>
      <trkpt lat="48.3826" lon="-0.33019">
        <ele>219.5</ele>
        <time>2012-08-11T07:45:08Z</time>
      </trkpt>
      <trkpt lat="48.38292" lon="-0.33028">
        <ele>217</ele>
        <time>2012-08-11T07:45:16Z</time>
      </trkpt>
      <trkpt lat="48.38313" lon="-0.33024">
        <ele>214.5</ele>
        <time>2012-08-11T07:45:20Z</time>
      </trkpt>
      <trkpt lat="48.38332" lon="-0.33019">
        <ele>212</ele>
        <time>2012-08-11T07:45:24Z</time>
      </trkpt>
      <trkpt lat="48.38352" lon="-0.33019">
        <ele>211</ele>
        <time>2012-08-11T07:45:28Z</time>
      </trkpt>
      <trkpt lat="48.38375" lon="-0.3302">
        <ele>210.5</ele>
        <time>2012-08-11T07:45:32Z</time>
      </trkpt>
      <trkpt lat="48.38403" lon="-0.33017">
        <ele>214</ele>
        <time>2012-08-11T07:45:36Z</time>
      </trkpt>
      <trkpt lat="48.38422" lon="-0.3302">
        <ele>213.5</ele>
        <time>2012-08-11T07:45:40Z</time>
      </trkpt>
      <trkpt lat="48.38435" lon="-0.33022">
        <ele>214.5</ele>
        <time>2012-08-11T07:45:44Z</time>
      </trkpt>
      <trkpt lat="48.38451" lon="-0.33022">
        <ele>213.5</ele>
        <time>2012-08-11T07:45:48Z</time>
      </trkpt>
      <trkpt lat="48.38461" lon="-0.33022">
        <ele>213.5</ele>
        <time>2012-08-11T07:45:50Z</time>
      </trkpt>
      <trkpt lat="48.38482" lon="-0.33023">
        <ele>215</ele>
        <time>2012-08-11T07:45:54Z</time>
      </trkpt>
      <trkpt lat="48.38498" lon="-0.33024">
        <ele>213</ele>
        <time>2012-08-11T07:45:58Z</time>
      </trkpt>
      <trkpt lat="48.38516" lon="-0.33027">
        <ele>214</ele>
        <time>2012-08-11T07:46:02Z</time>
      </trkpt>
      <trkpt lat="48.38523" lon="-0.33029">
        <ele>213</ele>
        <time>2012-08-11T07:46:04Z</time>
      </trkpt>
      <trkpt lat="48.38542" lon="-0.33029">
        <ele>214</ele>
        <time>2012-08-11T07:46:08Z</time>
      </trkpt>
      <trkpt lat="48.38558" lon="-0.33034">
        <ele>213.5</ele>
        <time>2012-08-11T07:46:12Z</time>
      </trkpt>
      <trkpt lat="48.38577" lon="-0.33037">
        <ele>215</ele>
        <time>2012-08-11T07:46:16Z</time>
      </trkpt>
      <trkpt lat="48.38587" lon="-0.33039">
        <ele>215</ele>
        <time>2012-08-11T07:46:18Z</time>
      </trkpt>
      <trkpt lat="48.38607" lon="-0.33041">
        <ele>217</ele>
        <time>2012-08-11T07:46:22Z</time>
      </trkpt>
      <trkpt lat="48.38624" lon="-0.33044">
        <ele>217.5</ele>
        <time>2012-08-11T07:46:26Z</time>
      </trkpt>
      <trkpt lat="48.38641" lon="-0.33051">
        <ele>216</ele>
        <time>2012-08-11T07:46:30Z</time>
      </trkpt>
      <trkpt lat="48.38659" lon="-0.33061">
        <ele>211.5</ele>
        <time>2012-08-11T07:46:34Z</time>
      </trkpt>
      <trkpt lat="48.38677" lon="-0.33072">
        <ele>209.5</ele>
        <time>2012-08-11T07:46:38Z</time>
      </trkpt>
      <trkpt lat="48.38695" lon="-0.33079">
        <ele>209</ele>
        <time>2012-08-11T07:46:42Z</time>
      </trkpt>
      <trkpt lat="48.38714" lon="-0.33088">
        <ele>208</ele>
        <time>2012-08-11T07:46:46Z</time>
      </trkpt>
      <trkpt lat="48.38731" lon="-0.33097">
        <ele>208.5</ele>
        <time>2012-08-11T07:46:50Z</time>
      </trkpt>
      <trkpt lat="48.38749" lon="-0.33106">
        <ele>206.5</ele>
        <time>2012-08-11T07:46:54Z</time>
      </trkpt>
      <trkpt lat="48.38768" lon="-0.33115">
        <ele>208</ele>
        <time>2012-08-11T07:46:58Z</time>
      </trkpt>
      <trkpt lat="48.38786" lon="-0.33122">
        <ele>209.5</ele>
        <time>2012-08-11T07:47:02Z</time>
      </trkpt>
      <trkpt lat="48.38803" lon="-0.33131">
        <ele>211</ele>
        <time>2012-08-11T07:47:06Z</time>
      </trkpt>
      <trkpt lat="48.38821" lon="-0.3314">
        <ele>213</ele>
        <time>2012-08-11T07:47:10Z</time>
      </trkpt>
      <trkpt lat="48.38836" lon="-0.33147">
        <ele>212</ele>
        <time>2012-08-11T07:47:14Z</time>
      </trkpt>
      <trkpt lat="48.38852" lon="-0.33155">
        <ele>211</ele>
        <time>2012-08-11T07:47:18Z</time>
      </trkpt>
      <trkpt lat="48.3886" lon="-0.33159">
        <ele>211.5</ele>
        <time>2012-08-11T07:47:20Z</time>
      </trkpt>
      <trkpt lat="48.38876" lon="-0.33169">
        <ele>210.5</ele>
        <time>2012-08-11T07:47:24Z</time>
      </trkpt>
      <trkpt lat="48.38894" lon="-0.33177">
        <ele>211</ele>
        <time>2012-08-11T07:47:28Z</time>
      </trkpt>
      <trkpt lat="48.38914" lon="-0.33189">
        <ele>210.5</ele>
        <time>2012-08-11T07:47:32Z</time>
      </trkpt>
      <trkpt lat="48.3893" lon="-0.33196">
        <ele>211.5</ele>
        <time>2012-08-11T07:47:36Z</time>
      </trkpt>
      <trkpt lat="48.38945" lon="-0.33205">
        <ele>214.5</ele>
        <time>2012-08-11T07:47:40Z</time>
      </trkpt>
      <trkpt lat="48.38961" lon="-0.33213">
        <ele>216.5</ele>
        <time>2012-08-11T07:47:44Z</time>
      </trkpt>
      <trkpt lat="48.38977" lon="-0.33223">
        <ele>217</ele>
        <time>2012-08-11T07:47:48Z</time>
      </trkpt>
      <trkpt lat="48.38996" lon="-0.33231">
        <ele>216</ele>
        <time>2012-08-11T07:47:52Z</time>
      </trkpt>
      <trkpt lat="48.39013" lon="-0.33239">
        <ele>214.5</ele>
        <time>2012-08-11T07:47:56Z</time>
      </trkpt>
      <trkpt lat="48.3903" lon="-0.33248">
        <ele>215</ele>
        <time>2012-08-11T07:48:00Z</time>
      </trkpt>
      <trkpt lat="48.39038" lon="-0.33253">
        <ele>214.5</ele>
        <time>2012-08-11T07:48:02Z</time>
      </trkpt>
      <trkpt lat="48.39052" lon="-0.3326">
        <ele>215</ele>
        <time>2012-08-11T07:48:06Z</time>
      </trkpt>
      <trkpt lat="48.39074" lon="-0.33272">
        <ele>214.5</ele>
        <time>2012-08-11T07:48:12Z</time>
      </trkpt>
      <trkpt lat="48.39089" lon="-0.33281">
        <ele>212</ele>
        <time>2012-08-11T07:48:16Z</time>
      </trkpt>
      <trkpt lat="48.39106" lon="-0.3329">
        <ele>211.5</ele>
        <time>2012-08-11T07:48:20Z</time>
      </trkpt>
      <trkpt lat="48.39123" lon="-0.333">
        <ele>212.5</ele>
        <time>2012-08-11T07:48:24Z</time>
      </trkpt>
      <trkpt lat="48.39139" lon="-0.33309">
        <ele>213.5</ele>
        <time>2012-08-11T07:48:28Z</time>
      </trkpt>
      <trkpt lat="48.39159" lon="-0.33314">
        <ele>214.5</ele>
        <time>2012-08-11T07:48:32Z</time>
      </trkpt>
      <trkpt lat="48.39174" lon="-0.33323">
        <ele>214.5</ele>
        <time>2012-08-11T07:48:36Z</time>
      </trkpt>
      <trkpt lat="48.39191" lon="-0.33327">
        <ele>215.5</ele>
        <time>2012-08-11T07:48:40Z</time>
      </trkpt>
      <trkpt lat="48.39204" lon="-0.33332">
        <ele>216</ele>
        <time>2012-08-11T07:48:44Z</time>
      </trkpt>
      <trkpt lat="48.39215" lon="-0.33341">
        <ele>217.5</ele>
        <time>2012-08-11T07:48:50Z</time>
      </trkpt>
      <trkpt lat="48.39232" lon="-0.3335">
        <ele>218.5</ele>
        <time>2012-08-11T07:48:56Z</time>
      </trkpt>
      <trkpt lat="48.39237" lon="-0.33354">
        <ele>217.5</ele>
        <time>2012-08-11T07:48:58Z</time>
      </trkpt>
      <trkpt lat="48.39251" lon="-0.33362">
        <ele>217.5</ele>
        <time>2012-08-11T07:49:02Z</time>
      </trkpt>
      <trkpt lat="48.39258" lon="-0.33365">
        <ele>217.5</ele>
        <time>2012-08-11T07:49:04Z</time>
      </trkpt>
      <trkpt lat="48.39271" lon="-0.33371">
        <ele>218.5</ele>
        <time>2012-08-11T07:49:08Z</time>
      </trkpt>
      <trkpt lat="48.39285" lon="-0.33374">
        <ele>219.5</ele>
        <time>2012-08-11T07:49:12Z</time>
      </trkpt>
      <trkpt lat="48.3929" lon="-0.33375">
        <ele>219.5</ele>
        <time>2012-08-11T07:49:14Z</time>
      </trkpt>
      <trkpt lat="48.39301" lon="-0.3338">
        <ele>220.5</ele>
        <time>2012-08-11T07:49:18Z</time>
      </trkpt>
      <trkpt lat="48.39308" lon="-0.33385">
        <ele>218.5</ele>
        <time>2012-08-11T07:49:20Z</time>
      </trkpt>
      <trkpt lat="48.3932" lon="-0.33391">
        <ele>219.5</ele>
        <time>2012-08-11T07:49:24Z</time>
      </trkpt>
      <trkpt lat="48.39325" lon="-0.33392">
        <ele>219</ele>
        <time>2012-08-11T07:49:26Z</time>
      </trkpt>
      <trkpt lat="48.39339" lon="-0.33395">
        <ele>220</ele>
        <time>2012-08-11T07:49:30Z</time>
      </trkpt>
      <trkpt lat="48.39347" lon="-0.33397">
        <ele>223</ele>
        <time>2012-08-11T07:49:32Z</time>
      </trkpt>
      <trkpt lat="48.39353" lon="-0.33398">
        <ele>223</ele>
        <time>2012-08-11T07:49:34Z</time>
      </trkpt>
      <trkpt lat="48.39366" lon="-0.33396">
        <ele>223.5</ele>
        <time>2012-08-11T07:49:38Z</time>
      </trkpt>
      <trkpt lat="48.39382" lon="-0.33399">
        <ele>223</ele>
        <time>2012-08-11T07:49:42Z</time>
      </trkpt>
      <trkpt lat="48.39389" lon="-0.33399">
        <ele>223.5</ele>
        <time>2012-08-11T07:49:44Z</time>
      </trkpt>
      <trkpt lat="48.39403" lon="-0.33396">
        <ele>223.5</ele>
        <time>2012-08-11T07:49:48Z</time>
      </trkpt>
      <trkpt lat="48.39424" lon="-0.33391">
        <ele>222.5</ele>
        <time>2012-08-11T07:49:54Z</time>
      </trkpt>
      <trkpt lat="48.39438" lon="-0.33388">
        <ele>222.5</ele>
        <time>2012-08-11T07:49:58Z</time>
      </trkpt>
      <trkpt lat="48.39451" lon="-0.33387">
        <ele>224.5</ele>
        <time>2012-08-11T07:50:02Z</time>
      </trkpt>
      <trkpt lat="48.39458" lon="-0.33385">
        <ele>225</ele>
        <time>2012-08-11T07:50:04Z</time>
      </trkpt>
      <trkpt lat="48.39473" lon="-0.3338">
        <ele>226</ele>
        <time>2012-08-11T07:50:08Z</time>
      </trkpt>
      <trkpt lat="48.39478" lon="-0.33378">
        <ele>225</ele>
        <time>2012-08-11T07:50:10Z</time>
      </trkpt>
      <trkpt lat="48.39492" lon="-0.33374">
        <ele>225.5</ele>
        <time>2012-08-11T07:50:14Z</time>
      </trkpt>
      <trkpt lat="48.39499" lon="-0.3337">
        <ele>225.5</ele>
        <time>2012-08-11T07:50:16Z</time>
      </trkpt>
      <trkpt lat="48.39511" lon="-0.33365">
        <ele>224</ele>
        <time>2012-08-11T07:50:20Z</time>
      </trkpt>
      <trkpt lat="48.39517" lon="-0.33364">
        <ele>222.5</ele>
        <time>2012-08-11T07:50:22Z</time>
      </trkpt>
      <trkpt lat="48.39531" lon="-0.33356">
        <ele>221</ele>
        <time>2012-08-11T07:50:26Z</time>
      </trkpt>
      <trkpt lat="48.39537" lon="-0.3335">
        <ele>222</ele>
        <time>2012-08-11T07:50:28Z</time>
      </trkpt>
      <trkpt lat="48.39553" lon="-0.3334">
        <ele>223</ele>
        <time>2012-08-11T07:50:32Z</time>
      </trkpt>
      <trkpt lat="48.39568" lon="-0.3333">
        <ele>224</ele>
        <time>2012-08-11T07:50:36Z</time>
      </trkpt>
      <trkpt lat="48.39574" lon="-0.33324">
        <ele>224</ele>
        <time>2012-08-11T07:50:38Z</time>
      </trkpt>
      <trkpt lat="48.39595" lon="-0.33302">
        <ele>226.5</ele>
        <time>2012-08-11T07:50:44Z</time>
      </trkpt>
      <trkpt lat="48.39607" lon="-0.33287">
        <ele>227.5</ele>
        <time>2012-08-11T07:50:48Z</time>
      </trkpt>
      <trkpt lat="48.39618" lon="-0.33273">
        <ele>230.5</ele>
        <time>2012-08-11T07:50:52Z</time>
      </trkpt>
      <trkpt lat="48.39623" lon="-0.33266">
        <ele>231.5</ele>
        <time>2012-08-11T07:50:54Z</time>
      </trkpt>
      <trkpt lat="48.39635" lon="-0.33252">
        <ele>234</ele>
        <time>2012-08-11T07:50:58Z</time>
      </trkpt>
      <trkpt lat="48.39646" lon="-0.33237">
        <ele>234</ele>
        <time>2012-08-11T07:51:02Z</time>
      </trkpt>
      <trkpt lat="48.39657" lon="-0.33222">
        <ele>237</ele>
        <time>2012-08-11T07:51:06Z</time>
      </trkpt>
      <trkpt lat="48.39662" lon="-0.33215">
        <ele>237.5</ele>
        <time>2012-08-11T07:51:08Z</time>
      </trkpt>
      <trkpt lat="48.39673" lon="-0.33196">
        <ele>239</ele>
        <time>2012-08-11T07:51:12Z</time>
      </trkpt>
      <trkpt lat="48.39684" lon="-0.33178">
        <ele>237.5</ele>
        <time>2012-08-11T07:51:16Z</time>
      </trkpt>
      <trkpt lat="48.39689" lon="-0.33173">
        <ele>236</ele>
        <time>2012-08-11T07:51:18Z</time>
      </trkpt>
      <trkpt lat="48.39699" lon="-0.33157">
        <ele>236</ele>
        <time>2012-08-11T07:51:22Z</time>
      </trkpt>
      <trkpt lat="48.39706" lon="-0.33141">
        <ele>236.5</ele>
        <time>2012-08-11T07:51:26Z</time>
      </trkpt>
      <trkpt lat="48.39708" lon="-0.33132">
        <ele>235</ele>
        <time>2012-08-11T07:51:28Z</time>
      </trkpt>
      <trkpt lat="48.39713" lon="-0.33114">
        <ele>232.5</ele>
        <time>2012-08-11T07:51:32Z</time>
      </trkpt>
      <trkpt lat="48.39716" lon="-0.33104">
        <ele>233.5</ele>
        <time>2012-08-11T07:51:34Z</time>
      </trkpt>
      <trkpt lat="48.39726" lon="-0.33079">
        <ele>232</ele>
        <time>2012-08-11T07:51:40Z</time>
      </trkpt>
      <trkpt lat="48.39733" lon="-0.33059">
        <ele>234.5</ele>
        <time>2012-08-11T07:51:44Z</time>
      </trkpt>
      <trkpt lat="48.39736" lon="-0.3305">
        <ele>233.5</ele>
        <time>2012-08-11T07:51:46Z</time>
      </trkpt>
      <trkpt lat="48.39741" lon="-0.33028">
        <ele>234.5</ele>
        <time>2012-08-11T07:51:50Z</time>
      </trkpt>
      <trkpt lat="48.39743" lon="-0.33016">
        <ele>234.5</ele>
        <time>2012-08-11T07:51:52Z</time>
      </trkpt>
      <trkpt lat="48.39748" lon="-0.32992">
        <ele>235</ele>
        <time>2012-08-11T07:51:56Z</time>
      </trkpt>
      <trkpt lat="48.39753" lon="-0.3297">
        <ele>238.5</ele>
        <time>2012-08-11T07:52:00Z</time>
      </trkpt>
      <trkpt lat="48.39754" lon="-0.32961">
        <ele>239.5</ele>
        <time>2012-08-11T07:52:02Z</time>
      </trkpt>
      <trkpt lat="48.39758" lon="-0.32937">
        <ele>242.5</ele>
        <time>2012-08-11T07:52:06Z</time>
      </trkpt>
      <trkpt lat="48.39761" lon="-0.32924">
        <ele>243</ele>
        <time>2012-08-11T07:52:08Z</time>
      </trkpt>
      <trkpt lat="48.39764" lon="-0.32899">
        <ele>242.5</ele>
        <time>2012-08-11T07:52:12Z</time>
      </trkpt>
      <trkpt lat="48.39768" lon="-0.32875">
        <ele>241</ele>
        <time>2012-08-11T07:52:16Z</time>
      </trkpt>
      <trkpt lat="48.39771" lon="-0.32857">
        <ele>239</ele>
        <time>2012-08-11T07:52:20Z</time>
      </trkpt>
      <trkpt lat="48.39772" lon="-0.32844">
        <ele>239.5</ele>
        <time>2012-08-11T07:52:22Z</time>
      </trkpt>
      <trkpt lat="48.39774" lon="-0.32818">
        <ele>239.5</ele>
        <time>2012-08-11T07:52:26Z</time>
      </trkpt>
      <trkpt lat="48.39774" lon="-0.32808">
        <ele>239.5</ele>
        <time>2012-08-11T07:52:28Z</time>
      </trkpt>
      <trkpt lat="48.39776" lon="-0.32785">
        <ele>240.5</ele>
        <time>2012-08-11T07:52:32Z</time>
      </trkpt>
      <trkpt lat="48.39779" lon="-0.32764">
        <ele>243.5</ele>
        <time>2012-08-11T07:52:36Z</time>
      </trkpt>
      <trkpt lat="48.39779" lon="-0.32752">
        <ele>243</ele>
        <time>2012-08-11T07:52:38Z</time>
      </trkpt>
      <trkpt lat="48.39782" lon="-0.32728">
        <ele>243</ele>
        <time>2012-08-11T07:52:42Z</time>
      </trkpt>
      <trkpt lat="48.39786" lon="-0.32706">
        <ele>243</ele>
        <time>2012-08-11T07:52:46Z</time>
      </trkpt>
      <trkpt lat="48.39788" lon="-0.32694">
        <ele>243</ele>
        <time>2012-08-11T07:52:48Z</time>
      </trkpt>
      <trkpt lat="48.3979" lon="-0.32669">
        <ele>242.5</ele>
        <time>2012-08-11T07:52:52Z</time>
      </trkpt>
      <trkpt lat="48.39792" lon="-0.32658">
        <ele>243</ele>
        <time>2012-08-11T07:52:54Z</time>
      </trkpt>
      <trkpt lat="48.39799" lon="-0.32638">
        <ele>243</ele>
        <time>2012-08-11T07:52:58Z</time>
      </trkpt>
      <trkpt lat="48.39802" lon="-0.32626">
        <ele>242.5</ele>
        <time>2012-08-11T07:53:00Z</time>
      </trkpt>
      <trkpt lat="48.39808" lon="-0.32606">
        <ele>243.5</ele>
        <time>2012-08-11T07:53:04Z</time>
      </trkpt>
      <trkpt lat="48.39809" lon="-0.32593">
        <ele>243</ele>
        <time>2012-08-11T07:53:06Z</time>
      </trkpt>
      <trkpt lat="48.39813" lon="-0.32573">
        <ele>242</ele>
        <time>2012-08-11T07:53:10Z</time>
      </trkpt>
      <trkpt lat="48.39818" lon="-0.32546">
        <ele>242</ele>
        <time>2012-08-11T07:53:14Z</time>
      </trkpt>
      <trkpt lat="48.39825" lon="-0.32523">
        <ele>239</ele>
        <time>2012-08-11T07:53:18Z</time>
      </trkpt>
      <trkpt lat="48.39833" lon="-0.32497">
        <ele>238</ele>
        <time>2012-08-11T07:53:22Z</time>
      </trkpt>
      <trkpt lat="48.3984" lon="-0.32473">
        <ele>235.5</ele>
        <time>2012-08-11T07:53:26Z</time>
      </trkpt>
      <trkpt lat="48.39846" lon="-0.32451">
        <ele>233</ele>
        <time>2012-08-11T07:53:30Z</time>
      </trkpt>
      <trkpt lat="48.39852" lon="-0.32435">
        <ele>228.5</ele>
        <time>2012-08-11T07:53:34Z</time>
      </trkpt>
      <trkpt lat="48.39861" lon="-0.32417">
        <ele>227.5</ele>
        <time>2012-08-11T07:53:38Z</time>
      </trkpt>
      <trkpt lat="48.39865" lon="-0.32405">
        <ele>229.5</ele>
        <time>2012-08-11T07:53:40Z</time>
      </trkpt>
      <trkpt lat="48.39873" lon="-0.32383">
        <ele>229.5</ele>
        <time>2012-08-11T07:53:44Z</time>
      </trkpt>
      <trkpt lat="48.39888" lon="-0.32351">
        <ele>229</ele>
        <time>2012-08-11T07:53:50Z</time>
      </trkpt>
      <trkpt lat="48.39898" lon="-0.3233">
        <ele>227.5</ele>
        <time>2012-08-11T07:53:54Z</time>
      </trkpt>
      <trkpt lat="48.39909" lon="-0.32308">
        <ele>228.5</ele>
        <time>2012-08-11T07:53:58Z</time>
      </trkpt>
      <trkpt lat="48.39917" lon="-0.32289">
        <ele>228.5</ele>
        <time>2012-08-11T07:54:02Z</time>
      </trkpt>
      <trkpt lat="48.39925" lon="-0.32272">
        <ele>226</ele>
        <time>2012-08-11T07:54:06Z</time>
      </trkpt>
      <trkpt lat="48.3993" lon="-0.32263">
        <ele>226</ele>
        <time>2012-08-11T07:54:08Z</time>
      </trkpt>
      <trkpt lat="48.3994" lon="-0.32245">
        <ele>225.5</ele>
        <time>2012-08-11T07:54:12Z</time>
      </trkpt>
      <trkpt lat="48.39957" lon="-0.32218">
        <ele>228.5</ele>
        <time>2012-08-11T07:54:18Z</time>
      </trkpt>
      <trkpt lat="48.39968" lon="-0.32202">
        <ele>226</ele>
        <time>2012-08-11T07:54:22Z</time>
      </trkpt>
      <trkpt lat="48.3998" lon="-0.32184">
        <ele>225.5</ele>
        <time>2012-08-11T07:54:26Z</time>
      </trkpt>
      <trkpt lat="48.39986" lon="-0.32176">
        <ele>225</ele>
        <time>2012-08-11T07:54:28Z</time>
      </trkpt>
      <trkpt lat="48.39998" lon="-0.32159">
        <ele>226.5</ele>
        <time>2012-08-11T07:54:32Z</time>
      </trkpt>
      <trkpt lat="48.40006" lon="-0.32148">
        <ele>230</ele>
        <time>2012-08-11T07:54:36Z</time>
      </trkpt>
      <trkpt lat="48.40011" lon="-0.32141">
        <ele>230.5</ele>
        <time>2012-08-11T07:54:38Z</time>
      </trkpt>
      <trkpt lat="48.40029" lon="-0.32126">
        <ele>228</ele>
        <time>2012-08-11T07:54:44Z</time>
      </trkpt>
      <trkpt lat="48.40038" lon="-0.32121">
        <ele>229</ele>
        <time>2012-08-11T07:54:48Z</time>
      </trkpt>
      <trkpt lat="48.40048" lon="-0.32108">
        <ele>230.5</ele>
        <time>2012-08-11T07:54:54Z</time>
      </trkpt>
      <trkpt lat="48.40052" lon="-0.32103">
        <ele>231.5</ele>
        <time>2012-08-11T07:54:56Z</time>
      </trkpt>
      <trkpt lat="48.40062" lon="-0.32091">
        <ele>233.5</ele>
        <time>2012-08-11T07:55:00Z</time>
      </trkpt>
      <trkpt lat="48.40067" lon="-0.32086">
        <ele>234.5</ele>
        <time>2012-08-11T07:55:02Z</time>
      </trkpt>
      <trkpt lat="48.40072" lon="-0.32083">
        <ele>231.5</ele>
        <time>2012-08-11T07:55:04Z</time>
      </trkpt>
      <trkpt lat="48.40082" lon="-0.32068">
        <ele>229</ele>
        <time>2012-08-11T07:55:08Z</time>
      </trkpt>
      <trkpt lat="48.40088" lon="-0.32063">
        <ele>228</ele>
        <time>2012-08-11T07:55:10Z</time>
      </trkpt>
      <trkpt lat="48.40099" lon="-0.32049">
        <ele>229</ele>
        <time>2012-08-11T07:55:14Z</time>
      </trkpt>
      <trkpt lat="48.40105" lon="-0.32039">
        <ele>229.5</ele>
        <time>2012-08-11T07:55:16Z</time>
      </trkpt>
      <trkpt lat="48.40119" lon="-0.32022">
        <ele>232</ele>
        <time>2012-08-11T07:55:20Z</time>
      </trkpt>
      <trkpt lat="48.40133" lon="-0.32002">
        <ele>233.5</ele>
        <time>2012-08-11T07:55:24Z</time>
      </trkpt>
      <trkpt lat="48.40144" lon="-0.31987">
        <ele>232</ele>
        <time>2012-08-11T07:55:28Z</time>
      </trkpt>
      <trkpt lat="48.40155" lon="-0.31974">
        <ele>228.5</ele>
        <time>2012-08-11T07:55:32Z</time>
      </trkpt>
      <trkpt lat="48.40161" lon="-0.31967">
        <ele>229.5</ele>
        <time>2012-08-11T07:55:34Z</time>
      </trkpt>
      <trkpt lat="48.40174" lon="-0.31951">
        <ele>231.5</ele>
        <time>2012-08-11T07:55:38Z</time>
      </trkpt>
      <trkpt lat="48.40189" lon="-0.31938">
        <ele>232.5</ele>
        <time>2012-08-11T07:55:42Z</time>
      </trkpt>
      <trkpt lat="48.402" lon="-0.31919">
        <ele>232.5</ele>
        <time>2012-08-11T07:55:46Z</time>
      </trkpt>
      <trkpt lat="48.40206" lon="-0.31911">
        <ele>232.5</ele>
        <time>2012-08-11T07:55:48Z</time>
      </trkpt>
      <trkpt lat="48.40217" lon="-0.31893">
        <ele>234.5</ele>
        <time>2012-08-11T07:55:52Z</time>
      </trkpt>
      <trkpt lat="48.40225" lon="-0.31874">
        <ele>231.5</ele>
        <time>2012-08-11T07:55:56Z</time>
      </trkpt>
      <trkpt lat="48.40238" lon="-0.31853">
        <ele>233</ele>
        <time>2012-08-11T07:56:00Z</time>
      </trkpt>
      <trkpt lat="48.40252" lon="-0.31835">
        <ele>233.5</ele>
        <time>2012-08-11T07:56:04Z</time>
      </trkpt>
      <trkpt lat="48.40264" lon="-0.31815">
        <ele>233</ele>
        <time>2012-08-11T07:56:08Z</time>
      </trkpt>
      <trkpt lat="48.40279" lon="-0.31788">
        <ele>232</ele>
        <time>2012-08-11T07:56:14Z</time>
      </trkpt>
      <trkpt lat="48.40295" lon="-0.31768">
        <ele>229.5</ele>
        <time>2012-08-11T07:56:18Z</time>
      </trkpt>
      <trkpt lat="48.40306" lon="-0.3175">
        <ele>232</ele>
        <time>2012-08-11T07:56:22Z</time>
      </trkpt>
      <trkpt lat="48.4032" lon="-0.31731">
        <ele>232.5</ele>
        <time>2012-08-11T07:56:26Z</time>
      </trkpt>
      <trkpt lat="48.40343" lon="-0.3171">
        <ele>232.5</ele>
        <time>2012-08-11T07:56:30Z</time>
      </trkpt>
      <trkpt lat="48.40361" lon="-0.31691">
        <ele>230</ele>
        <time>2012-08-11T07:56:34Z</time>
      </trkpt>
      <trkpt lat="48.40376" lon="-0.31674">
        <ele>229.5</ele>
        <time>2012-08-11T07:56:38Z</time>
      </trkpt>
      <trkpt lat="48.4039" lon="-0.3166">
        <ele>229</ele>
        <time>2012-08-11T07:56:42Z</time>
      </trkpt>
      <trkpt lat="48.40406" lon="-0.31641">
        <ele>230</ele>
        <time>2012-08-11T07:56:46Z</time>
      </trkpt>
      <trkpt lat="48.40421" lon="-0.31623">
        <ele>229</ele>
        <time>2012-08-11T07:56:50Z</time>
      </trkpt>
      <trkpt lat="48.40437" lon="-0.31606">
        <ele>228.5</ele>
        <time>2012-08-11T07:56:54Z</time>
      </trkpt>
      <trkpt lat="48.40452" lon="-0.31587">
        <ele>228.5</ele>
        <time>2012-08-11T07:56:58Z</time>
      </trkpt>
      <trkpt lat="48.40467" lon="-0.31572">
        <ele>228.5</ele>
        <time>2012-08-11T07:57:02Z</time>
      </trkpt>
      <trkpt lat="48.40482" lon="-0.31559">
        <ele>230.5</ele>
        <time>2012-08-11T07:57:06Z</time>
      </trkpt>
      <trkpt lat="48.40497" lon="-0.3155">
        <ele>233</ele>
        <time>2012-08-11T07:57:10Z</time>
      </trkpt>
      <trkpt lat="48.40503" lon="-0.31548">
        <ele>231</ele>
        <time>2012-08-11T07:57:12Z</time>
      </trkpt>
      <trkpt lat="48.40518" lon="-0.31538">
        <ele>231</ele>
        <time>2012-08-11T07:57:16Z</time>
      </trkpt>
      <trkpt lat="48.40531" lon="-0.31532">
        <ele>231</ele>
        <time>2012-08-11T07:57:20Z</time>
      </trkpt>
      <trkpt lat="48.40543" lon="-0.31525">
        <ele>229.5</ele>
        <time>2012-08-11T07:57:24Z</time>
      </trkpt>
      <trkpt lat="48.4055" lon="-0.31519">
        <ele>229.5</ele>
        <time>2012-08-11T07:57:26Z</time>
      </trkpt>
      <trkpt lat="48.40572" lon="-0.31505">
        <ele>231</ele>
        <time>2012-08-11T07:57:32Z</time>
      </trkpt>
      <trkpt lat="48.40589" lon="-0.31499">
        <ele>231.5</ele>
        <time>2012-08-11T07:57:36Z</time>
      </trkpt>
      <trkpt lat="48.40604" lon="-0.31495">
        <ele>230</ele>
        <time>2012-08-11T07:57:40Z</time>
      </trkpt>
      <trkpt lat="48.40612" lon="-0.31492">
        <ele>230</ele>
        <time>2012-08-11T07:57:42Z</time>
      </trkpt>
      <trkpt lat="48.4063" lon="-0.31484">
        <ele>231</ele>
        <time>2012-08-11T07:57:46Z</time>
      </trkpt>
      <trkpt lat="48.40647" lon="-0.31476">
        <ele>233</ele>
        <time>2012-08-11T07:57:50Z</time>
      </trkpt>
      <trkpt lat="48.40663" lon="-0.31471">
        <ele>233</ele>
        <time>2012-08-11T07:57:54Z</time>
      </trkpt>
      <trkpt lat="48.4068" lon="-0.31467">
        <ele>234</ele>
        <time>2012-08-11T07:57:58Z</time>
      </trkpt>
      <trkpt lat="48.40706" lon="-0.31455">
        <ele>232.5</ele>
        <time>2012-08-11T07:58:04Z</time>
      </trkpt>
      <trkpt lat="48.40724" lon="-0.31445">
        <ele>235.5</ele>
        <time>2012-08-11T07:58:08Z</time>
      </trkpt>
      <trkpt lat="48.40743" lon="-0.31437">
        <ele>237</ele>
        <time>2012-08-11T07:58:12Z</time>
      </trkpt>
      <trkpt lat="48.4076" lon="-0.31428">
        <ele>238.5</ele>
        <time>2012-08-11T07:58:16Z</time>
      </trkpt>
      <trkpt lat="48.40776" lon="-0.31421">
        <ele>241</ele>
        <time>2012-08-11T07:58:20Z</time>
      </trkpt>
      <trkpt lat="48.40794" lon="-0.31415">
        <ele>239.5</ele>
        <time>2012-08-11T07:58:24Z</time>
      </trkpt>
      <trkpt lat="48.40812" lon="-0.31404">
        <ele>237</ele>
        <time>2012-08-11T07:58:28Z</time>
      </trkpt>
      <trkpt lat="48.40832" lon="-0.31398">
        <ele>234</ele>
        <time>2012-08-11T07:58:32Z</time>
      </trkpt>
      <trkpt lat="48.40849" lon="-0.31392">
        <ele>233</ele>
        <time>2012-08-11T07:58:36Z</time>
      </trkpt>
      <trkpt lat="48.40867" lon="-0.31384">
        <ele>233</ele>
        <time>2012-08-11T07:58:40Z</time>
      </trkpt>
      <trkpt lat="48.40881" lon="-0.31379">
        <ele>233</ele>
        <time>2012-08-11T07:58:44Z</time>
      </trkpt>
      <trkpt lat="48.40899" lon="-0.3137">
        <ele>232</ele>
        <time>2012-08-11T07:58:48Z</time>
      </trkpt>
      <trkpt lat="48.40907" lon="-0.31366">
        <ele>232.5</ele>
        <time>2012-08-11T07:58:50Z</time>
      </trkpt>
      <trkpt lat="48.40924" lon="-0.31358">
        <ele>232</ele>
        <time>2012-08-11T07:58:54Z</time>
      </trkpt>
      <trkpt lat="48.40949" lon="-0.31349">
        <ele>233</ele>
        <time>2012-08-11T07:59:00Z</time>
      </trkpt>
      <trkpt lat="48.40965" lon="-0.31343">
        <ele>231.5</ele>
        <time>2012-08-11T07:59:04Z</time>
      </trkpt>
      <trkpt lat="48.40983" lon="-0.31334">
        <ele>230.5</ele>
        <time>2012-08-11T07:59:08Z</time>
      </trkpt>
      <trkpt lat="48.40992" lon="-0.31329">
        <ele>231</ele>
        <time>2012-08-11T07:59:10Z</time>
      </trkpt>
      <trkpt lat="48.4101" lon="-0.3132">
        <ele>233</ele>
        <time>2012-08-11T07:59:14Z</time>
      </trkpt>
      <trkpt lat="48.41024" lon="-0.31316">
        <ele>233</ele>
        <time>2012-08-11T07:59:18Z</time>
      </trkpt>
      <trkpt lat="48.41041" lon="-0.3131">
        <ele>234</ele>
        <time>2012-08-11T07:59:22Z</time>
      </trkpt>
      <trkpt lat="48.41051" lon="-0.31305">
        <ele>233.5</ele>
        <time>2012-08-11T07:59:24Z</time>
      </trkpt>
      <trkpt lat="48.41069" lon="-0.31297">
        <ele>232.5</ele>
        <time>2012-08-11T07:59:28Z</time>
      </trkpt>
      <trkpt lat="48.41084" lon="-0.3129">
        <ele>232.5</ele>
        <time>2012-08-11T07:59:32Z</time>
      </trkpt>
      <trkpt lat="48.41099" lon="-0.31282">
        <ele>232</ele>
        <time>2012-08-11T07:59:36Z</time>
      </trkpt>
      <trkpt lat="48.41108" lon="-0.31278">
        <ele>232</ele>
        <time>2012-08-11T07:59:38Z</time>
      </trkpt>
      <trkpt lat="48.41123" lon="-0.31273">
        <ele>234.5</ele>
        <time>2012-08-11T07:59:42Z</time>
      </trkpt>
      <trkpt lat="48.41131" lon="-0.31272">
        <ele>235</ele>
        <time>2012-08-11T07:59:44Z</time>
      </trkpt>
      <trkpt lat="48.41147" lon="-0.31266">
        <ele>235</ele>
        <time>2012-08-11T07:59:48Z</time>
      </trkpt>
      <trkpt lat="48.4117" lon="-0.31256">
        <ele>236.5</ele>
        <time>2012-08-11T07:59:54Z</time>
      </trkpt>
      <trkpt lat="48.41186" lon="-0.31248">
        <ele>236</ele>
        <time>2012-08-11T07:59:58Z</time>
      </trkpt>
      <trkpt lat="48.41193" lon="-0.31245">
        <ele>237</ele>
        <time>2012-08-11T08:00:00Z</time>
      </trkpt>
      <trkpt lat="48.41208" lon="-0.31237">
        <ele>236.5</ele>
        <time>2012-08-11T08:00:04Z</time>
      </trkpt>
      <trkpt lat="48.41222" lon="-0.31229">
        <ele>234.5</ele>
        <time>2012-08-11T08:00:08Z</time>
      </trkpt>
      <trkpt lat="48.41237" lon="-0.31225">
        <ele>231.5</ele>
        <time>2012-08-11T08:00:12Z</time>
      </trkpt>
      <trkpt lat="48.41245" lon="-0.31223">
        <ele>231</ele>
        <time>2012-08-11T08:00:14Z</time>
      </trkpt>
      <trkpt lat="48.41261" lon="-0.31213">
        <ele>235.5</ele>
        <time>2012-08-11T08:00:18Z</time>
      </trkpt>
      <trkpt lat="48.41268" lon="-0.31208">
        <ele>236</ele>
        <time>2012-08-11T08:00:20Z</time>
      </trkpt>
      <trkpt lat="48.41283" lon="-0.31203">
        <ele>238.5</ele>
        <time>2012-08-11T08:00:24Z</time>
      </trkpt>
      <trkpt lat="48.4129" lon="-0.312">
        <ele>238.5</ele>
        <time>2012-08-11T08:00:26Z</time>
      </trkpt>
      <trkpt lat="48.41304" lon="-0.31193">
        <ele>240</ele>
        <time>2012-08-11T08:00:30Z</time>
      </trkpt>
      <trkpt lat="48.41321" lon="-0.31185">
        <ele>243.5</ele>
        <time>2012-08-11T08:00:34Z</time>
      </trkpt>
      <trkpt lat="48.41336" lon="-0.31181">
        <ele>244</ele>
        <time>2012-08-11T08:00:38Z</time>
      </trkpt>
      <trkpt lat="48.41351" lon="-0.3118">
        <ele>244</ele>
        <time>2012-08-11T08:00:42Z</time>
      </trkpt>
      <trkpt lat="48.41371" lon="-0.31174">
        <ele>244</ele>
        <time>2012-08-11T08:00:48Z</time>
      </trkpt>
      <trkpt lat="48.41381" lon="-0.31181">
        <ele>243.5</ele>
        <time>2012-08-11T08:00:54Z</time>
      </trkpt>
      <trkpt lat="48.41388" lon="-0.3119">
        <ele>246.5</ele>
        <time>2012-08-11T08:00:58Z</time>
      </trkpt>
      <trkpt lat="48.41401" lon="-0.31188">
        <ele>247</ele>
        <time>2012-08-11T08:01:02Z</time>
      </trkpt>
      <trkpt lat="48.41412" lon="-0.31193">
        <ele>248.5</ele>
        <time>2012-08-11T08:01:06Z</time>
      </trkpt>
      <trkpt lat="48.41418" lon="-0.31193">
        <ele>249</ele>
        <time>2012-08-11T08:01:08Z</time>
      </trkpt>
      <trkpt lat="48.4143" lon="-0.31195">
        <ele>248.5</ele>
        <time>2012-08-11T08:01:12Z</time>
      </trkpt>
      <trkpt lat="48.41436" lon="-0.31192">
        <ele>248</ele>
        <time>2012-08-11T08:01:14Z</time>
      </trkpt>
      <trkpt lat="48.41448" lon="-0.31185">
        <ele>248</ele>
        <time>2012-08-11T08:01:18Z</time>
      </trkpt>
      <trkpt lat="48.41454" lon="-0.31182">
        <ele>248.5</ele>
        <time>2012-08-11T08:01:20Z</time>
      </trkpt>
      <trkpt lat="48.41468" lon="-0.31175">
        <ele>248.5</ele>
        <time>2012-08-11T08:01:26Z</time>
      </trkpt>
      <trkpt lat="48.41481" lon="-0.31175">
        <ele>248</ele>
        <time>2012-08-11T08:01:30Z</time>
      </trkpt>
      <trkpt lat="48.41486" lon="-0.31176">
        <ele>249</ele>
        <time>2012-08-11T08:01:32Z</time>
      </trkpt>
      <trkpt lat="48.41498" lon="-0.31178">
        <ele>249.5</ele>
        <time>2012-08-11T08:01:36Z</time>
      </trkpt>
      <trkpt lat="48.41504" lon="-0.31179">
        <ele>251</ele>
        <time>2012-08-11T08:01:38Z</time>
      </trkpt>
      <trkpt lat="48.41515" lon="-0.31182">
        <ele>250.5</ele>
        <time>2012-08-11T08:01:42Z</time>
      </trkpt>
      <trkpt lat="48.41521" lon="-0.3118">
        <ele>246.5</ele>
        <time>2012-08-11T08:01:44Z</time>
      </trkpt>
      <trkpt lat="48.41543" lon="-0.31187">
        <ele>248</ele>
        <time>2012-08-11T08:01:50Z</time>
      </trkpt>
      <trkpt lat="48.41559" lon="-0.3119">
        <ele>246</ele>
        <time>2012-08-11T08:01:54Z</time>
      </trkpt>
      <trkpt lat="48.41567" lon="-0.31196">
        <ele>249</ele>
        <time>2012-08-11T08:01:56Z</time>
      </trkpt>
      <trkpt lat="48.41578" lon="-0.31206">
        <ele>253.5</ele>
        <time>2012-08-11T08:02:00Z</time>
      </trkpt>
      <trkpt lat="48.41593" lon="-0.3121">
        <ele>254</ele>
        <time>2012-08-11T08:02:04Z</time>
      </trkpt>
      <trkpt lat="48.41599" lon="-0.31213">
        <ele>257.5</ele>
        <time>2012-08-11T08:02:06Z</time>
      </trkpt>
      <trkpt lat="48.41608" lon="-0.31216">
        <ele>256</ele>
        <time>2012-08-11T08:02:10Z</time>
      </trkpt>
      <trkpt lat="48.41615" lon="-0.31217">
        <ele>252.5</ele>
        <time>2012-08-11T08:02:12Z</time>
      </trkpt>
      <trkpt lat="48.41635" lon="-0.31218">
        <ele>254</ele>
        <time>2012-08-11T08:02:18Z</time>
      </trkpt>
      <trkpt lat="48.41649" lon="-0.31224">
        <ele>255.5</ele>
        <time>2012-08-11T08:02:22Z</time>
      </trkpt>
      <trkpt lat="48.41659" lon="-0.31229">
        <ele>259</ele>
        <time>2012-08-11T08:02:24Z</time>
      </trkpt>
      <trkpt lat="48.4168" lon="-0.31237">
        <ele>257</ele>
        <time>2012-08-11T08:02:30Z</time>
      </trkpt>
      <trkpt lat="48.41702" lon="-0.31222">
        <ele>253</ele>
        <time>2012-08-11T08:02:36Z</time>
      </trkpt>
      <trkpt lat="48.41707" lon="-0.31223">
        <ele>251</ele>
        <time>2012-08-11T08:02:40Z</time>
      </trkpt>
      <trkpt lat="48.41716" lon="-0.31223">
        <ele>248.5</ele>
        <time>2012-08-11T08:02:42Z</time>
      </trkpt>
      <trkpt lat="48.41736" lon="-0.31224">
        <ele>247</ele>
        <time>2012-08-11T08:02:46Z</time>
      </trkpt>
      <trkpt lat="48.41744" lon="-0.31224">
        <ele>244</ele>
        <time>2012-08-11T08:02:48Z</time>
      </trkpt>
      <trkpt lat="48.41763" lon="-0.31227">
        <ele>247</ele>
        <time>2012-08-11T08:02:52Z</time>
      </trkpt>
      <trkpt lat="48.4178" lon="-0.31233">
        <ele>249.5</ele>
        <time>2012-08-11T08:02:56Z</time>
      </trkpt>
      <trkpt lat="48.41796" lon="-0.3124">
        <ele>249</ele>
        <time>2012-08-11T08:03:00Z</time>
      </trkpt>
      <trkpt lat="48.41812" lon="-0.31236">
        <ele>246</ele>
        <time>2012-08-11T08:03:04Z</time>
      </trkpt>
      <trkpt lat="48.41825" lon="-0.31241">
        <ele>247</ele>
        <time>2012-08-11T08:03:08Z</time>
      </trkpt>
      <trkpt lat="48.41842" lon="-0.31243">
        <ele>245</ele>
        <time>2012-08-11T08:03:12Z</time>
      </trkpt>
      <trkpt lat="48.41851" lon="-0.31243">
        <ele>245.5</ele>
        <time>2012-08-11T08:03:14Z</time>
      </trkpt>
      <trkpt lat="48.41868" lon="-0.31246">
        <ele>246</ele>
        <time>2012-08-11T08:03:18Z</time>
      </trkpt>
      <trkpt lat="48.41887" lon="-0.31248">
        <ele>246</ele>
        <time>2012-08-11T08:03:22Z</time>
      </trkpt>
      <trkpt lat="48.419" lon="-0.31255">
        <ele>248</ele>
        <time>2012-08-11T08:03:26Z</time>
      </trkpt>
      <trkpt lat="48.41914" lon="-0.31259">
        <ele>249</ele>
        <time>2012-08-11T08:03:30Z</time>
      </trkpt>
      <trkpt lat="48.41923" lon="-0.3126">
        <ele>249</ele>
        <time>2012-08-11T08:03:32Z</time>
      </trkpt>
      <trkpt lat="48.41948" lon="-0.31262">
        <ele>250.5</ele>
        <time>2012-08-11T08:03:38Z</time>
      </trkpt>
      <trkpt lat="48.41965" lon="-0.31266">
        <ele>252</ele>
        <time>2012-08-11T08:03:42Z</time>
      </trkpt>
      <trkpt lat="48.41983" lon="-0.31264">
        <ele>252</ele>
        <time>2012-08-11T08:03:46Z</time>
      </trkpt>
      <trkpt lat="48.41998" lon="-0.31263">
        <ele>251.5</ele>
        <time>2012-08-11T08:03:50Z</time>
      </trkpt>
      <trkpt lat="48.42007" lon="-0.31262">
        <ele>251</ele>
        <time>2012-08-11T08:03:52Z</time>
      </trkpt>
      <trkpt lat="48.42023" lon="-0.31257">
        <ele>250.5</ele>
        <time>2012-08-11T08:03:56Z</time>
      </trkpt>
      <trkpt lat="48.42036" lon="-0.31249">
        <ele>249</ele>
        <time>2012-08-11T08:04:00Z</time>
      </trkpt>
      <trkpt lat="48.42048" lon="-0.31248">
        <ele>248.5</ele>
        <time>2012-08-11T08:04:04Z</time>
      </trkpt>
      <trkpt lat="48.42053" lon="-0.31245">
        <ele>248.5</ele>
        <time>2012-08-11T08:04:06Z</time>
      </trkpt>
      <trkpt lat="48.42063" lon="-0.31246">
        <ele>248</ele>
        <time>2012-08-11T08:04:10Z</time>
      </trkpt>
      <trkpt lat="48.42068" lon="-0.31249">
        <ele>247.5</ele>
        <time>2012-08-11T08:04:12Z</time>
      </trkpt>
      <trkpt lat="48.42087" lon="-0.31251">
        <ele>247.5</ele>
        <time>2012-08-11T08:04:18Z</time>
      </trkpt>
      <trkpt lat="48.421" lon="-0.31247">
        <ele>250</ele>
        <time>2012-08-11T08:04:22Z</time>
      </trkpt>
      <trkpt lat="48.42107" lon="-0.31244">
        <ele>249.5</ele>
        <time>2012-08-11T08:04:24Z</time>
      </trkpt>
      <trkpt lat="48.42123" lon="-0.31238">
        <ele>249</ele>
        <time>2012-08-11T08:04:28Z</time>
      </trkpt>
      <trkpt lat="48.42131" lon="-0.31236">
        <ele>249</ele>
        <time>2012-08-11T08:04:30Z</time>
      </trkpt>
      <trkpt lat="48.42146" lon="-0.31231">
        <ele>248.5</ele>
        <time>2012-08-11T08:04:34Z</time>
      </trkpt>
      <trkpt lat="48.42153" lon="-0.3123">
        <ele>248</ele>
        <time>2012-08-11T08:04:36Z</time>
      </trkpt>
      <trkpt lat="48.42169" lon="-0.31226">
        <ele>247.5</ele>
        <time>2012-08-11T08:04:40Z</time>
      </trkpt>
      <trkpt lat="48.42176" lon="-0.31225">
        <ele>247</ele>
        <time>2012-08-11T08:04:42Z</time>
      </trkpt>
      <trkpt lat="48.42192" lon="-0.31223">
        <ele>246.5</ele>
        <time>2012-08-11T08:04:46Z</time>
      </trkpt>
      <trkpt lat="48.42208" lon="-0.31224">
        <ele>246.5</ele>
        <time>2012-08-11T08:04:50Z</time>
      </trkpt>
      <trkpt lat="48.42222" lon="-0.31224">
        <ele>246.5</ele>
        <time>2012-08-11T08:04:54Z</time>
      </trkpt>
      <trkpt lat="48.42235" lon="-0.31224">
        <ele>246.5</ele>
        <time>2012-08-11T08:04:58Z</time>
      </trkpt>
      <trkpt lat="48.42239" lon="-0.31224">
        <ele>247</ele>
        <time>2012-08-11T08:05:00Z</time>
      </trkpt>
      <trkpt lat="48.42239" lon="-0.31224">
        <ele>247</ele>
        <time>2012-08-11T08:05:16Z</time>
      </trkpt>
      <trkpt lat="48.42239" lon="-0.31224">
        <ele>247</ele>
        <time>2012-08-11T08:05:32Z</time>
      </trkpt>
      <trkpt lat="48.42239" lon="-0.31224">
        <ele>247</ele>
        <time>2012-08-11T08:05:48Z</time>
      </trkpt>
      <trkpt lat="48.42239" lon="-0.31224">
        <ele>247</ele>
        <time>2012-08-11T08:06:04Z</time>
      </trkpt>
      <trkpt lat="48.42243" lon="-0.31223">
        <ele>242</ele>
        <time>2012-08-11T08:06:14Z</time>
      </trkpt>
      <trkpt lat="48.42247" lon="-0.31224">
        <ele>241.5</ele>
        <time>2012-08-11T08:06:16Z</time>
      </trkpt>
      <trkpt lat="48.42258" lon="-0.31226">
        <ele>240.5</ele>
        <time>2012-08-11T08:06:20Z</time>
      </trkpt>
      <trkpt lat="48.42264" lon="-0.31226">
        <ele>240</ele>
        <time>2012-08-11T08:06:22Z</time>
      </trkpt>
      <trkpt lat="48.42268" lon="-0.31227">
        <ele>239.5</ele>
        <time>2012-08-11T08:06:24Z</time>
      </trkpt>
      <trkpt lat="48.42268" lon="-0.31227">
        <ele>239.5</ele>
        <time>2012-08-11T08:06:40Z</time>
      </trkpt>
      <trkpt lat="48.42274" lon="-0.31228">
        <ele>241</ele>
        <time>2012-08-11T08:06:52Z</time>
      </trkpt>
      <trkpt lat="48.42285" lon="-0.31232">
        <ele>241.5</ele>
        <time>2012-08-11T08:07:01Z</time>
      </trkpt>
      <trkpt lat="48.42302" lon="-0.31233">
        <ele>242</ele>
        <time>2012-08-11T08:07:08Z</time>
      </trkpt>
      <trkpt lat="48.42308" lon="-0.3123">
        <ele>242.5</ele>
        <time>2012-08-11T08:07:10Z</time>
      </trkpt>
      <trkpt lat="48.42315" lon="-0.31225">
        <ele>243</ele>
        <time>2012-08-11T08:07:12Z</time>
      </trkpt>
      <trkpt lat="48.42322" lon="-0.31221">
        <ele>243</ele>
        <time>2012-08-11T08:07:14Z</time>
      </trkpt>
      <trkpt lat="48.42328" lon="-0.31218">
        <ele>243.5</ele>
        <time>2012-08-11T08:07:16Z</time>
      </trkpt>
      <trkpt lat="48.42341" lon="-0.31211">
        <ele>244</ele>
        <time>2012-08-11T08:07:20Z</time>
      </trkpt>
      <trkpt lat="48.42346" lon="-0.31207">
        <ele>244.5</ele>
        <time>2012-08-11T08:07:22Z</time>
      </trkpt>
      <trkpt lat="48.42356" lon="-0.31199">
        <ele>244.5</ele>
        <time>2012-08-11T08:07:26Z</time>
      </trkpt>
      <trkpt lat="48.42362" lon="-0.31196">
        <ele>244.5</ele>
        <time>2012-08-11T08:07:28Z</time>
      </trkpt>
      <trkpt lat="48.42373" lon="-0.31185">
        <ele>244.5</ele>
        <time>2012-08-11T08:07:32Z</time>
      </trkpt>
      <trkpt lat="48.42379" lon="-0.3118">
        <ele>244.5</ele>
        <time>2012-08-11T08:07:34Z</time>
      </trkpt>
      <trkpt lat="48.42389" lon="-0.31166">
        <ele>244</ele>
        <time>2012-08-11T08:07:38Z</time>
      </trkpt>
      <trkpt lat="48.42394" lon="-0.31159">
        <ele>243.5</ele>
        <time>2012-08-11T08:07:40Z</time>
      </trkpt>
      <trkpt lat="48.42405" lon="-0.31145">
        <ele>243</ele>
        <time>2012-08-11T08:07:44Z</time>
      </trkpt>
      <trkpt lat="48.42411" lon="-0.31139">
        <ele>243.5</ele>
        <time>2012-08-11T08:07:46Z</time>
      </trkpt>
      <trkpt lat="48.42424" lon="-0.31128">
        <ele>243.5</ele>
        <time>2012-08-11T08:07:50Z</time>
      </trkpt>
      <trkpt lat="48.4244" lon="-0.31122">
        <ele>243.5</ele>
        <time>2012-08-11T08:07:54Z</time>
      </trkpt>
      <trkpt lat="48.42457" lon="-0.31121">
        <ele>244</ele>
        <time>2012-08-11T08:07:58Z</time>
      </trkpt>
      <trkpt lat="48.42474" lon="-0.31123">
        <ele>244</ele>
        <time>2012-08-11T08:08:02Z</time>
      </trkpt>
      <trkpt lat="48.4249" lon="-0.31125">
        <ele>244</ele>
        <time>2012-08-11T08:08:06Z</time>
      </trkpt>
      <trkpt lat="48.42506" lon="-0.31128">
        <ele>244</ele>
        <time>2012-08-11T08:08:10Z</time>
      </trkpt>
      <trkpt lat="48.42523" lon="-0.31132">
        <ele>244</ele>
        <time>2012-08-11T08:08:14Z</time>
      </trkpt>
      <trkpt lat="48.42539" lon="-0.31136">
        <ele>244.5</ele>
        <time>2012-08-11T08:08:18Z</time>
      </trkpt>
      <trkpt lat="48.42554" lon="-0.3114">
        <ele>244.5</ele>
        <time>2012-08-11T08:08:22Z</time>
      </trkpt>
      <trkpt lat="48.42562" lon="-0.31142">
        <ele>245</ele>
        <time>2012-08-11T08:08:24Z</time>
      </trkpt>
      <trkpt lat="48.42578" lon="-0.31144">
        <ele>246</ele>
        <time>2012-08-11T08:08:28Z</time>
      </trkpt>
      <trkpt lat="48.42595" lon="-0.31148">
        <ele>248.5</ele>
        <time>2012-08-11T08:08:32Z</time>
      </trkpt>
      <trkpt lat="48.42612" lon="-0.31152">
        <ele>250.5</ele>
        <time>2012-08-11T08:08:36Z</time>
      </trkpt>
      <trkpt lat="48.4262" lon="-0.31154">
        <ele>251</ele>
        <time>2012-08-11T08:08:38Z</time>
      </trkpt>
      <trkpt lat="48.42637" lon="-0.31159">
        <ele>251</ele>
        <time>2012-08-11T08:08:42Z</time>
      </trkpt>
      <trkpt lat="48.42653" lon="-0.31164">
        <ele>249.5</ele>
        <time>2012-08-11T08:08:46Z</time>
      </trkpt>
      <trkpt lat="48.42662" lon="-0.31166">
        <ele>249.5</ele>
        <time>2012-08-11T08:08:48Z</time>
      </trkpt>
      <trkpt lat="48.42678" lon="-0.31171">
        <ele>249.5</ele>
        <time>2012-08-11T08:08:52Z</time>
      </trkpt>
      <trkpt lat="48.42694" lon="-0.31175">
        <ele>250</ele>
        <time>2012-08-11T08:08:56Z</time>
      </trkpt>
      <trkpt lat="48.42708" lon="-0.31186">
        <ele>250.5</ele>
        <time>2012-08-11T08:09:00Z</time>
      </trkpt>
      <trkpt lat="48.42714" lon="-0.31195">
        <ele>249.5</ele>
        <time>2012-08-11T08:09:02Z</time>
      </trkpt>
      <trkpt lat="48.42721" lon="-0.31215">
        <ele>248</ele>
        <time>2012-08-11T08:09:06Z</time>
      </trkpt>
      <trkpt lat="48.42728" lon="-0.31235">
        <ele>250</ele>
        <time>2012-08-11T08:09:10Z</time>
      </trkpt>
      <trkpt lat="48.42735" lon="-0.31253">
        <ele>249</ele>
        <time>2012-08-11T08:09:14Z</time>
      </trkpt>
      <trkpt lat="48.42744" lon="-0.31271">
        <ele>247.5</ele>
        <time>2012-08-11T08:09:18Z</time>
      </trkpt>
      <trkpt lat="48.42748" lon="-0.31283">
        <ele>248.5</ele>
        <time>2012-08-11T08:09:20Z</time>
      </trkpt>
      <trkpt lat="48.42755" lon="-0.31305">
        <ele>251</ele>
        <time>2012-08-11T08:09:24Z</time>
      </trkpt>
      <trkpt lat="48.42765" lon="-0.31329">
        <ele>249</ele>
        <time>2012-08-11T08:09:28Z</time>
      </trkpt>
      <trkpt lat="48.42773" lon="-0.31356">
        <ele>248.5</ele>
        <time>2012-08-11T08:09:32Z</time>
      </trkpt>
      <trkpt lat="48.42777" lon="-0.3138">
        <ele>248</ele>
        <time>2012-08-11T08:09:36Z</time>
      </trkpt>
      <trkpt lat="48.42786" lon="-0.31405">
        <ele>248</ele>
        <time>2012-08-11T08:09:40Z</time>
      </trkpt>
      <trkpt lat="48.42795" lon="-0.31428">
        <ele>248.5</ele>
        <time>2012-08-11T08:09:44Z</time>
      </trkpt>
      <trkpt lat="48.42804" lon="-0.31451">
        <ele>249</ele>
        <time>2012-08-11T08:09:48Z</time>
      </trkpt>
      <trkpt lat="48.42812" lon="-0.31479">
        <ele>247.5</ele>
        <time>2012-08-11T08:09:52Z</time>
      </trkpt>
      <trkpt lat="48.42824" lon="-0.31508">
        <ele>244.5</ele>
        <time>2012-08-11T08:09:56Z</time>
      </trkpt>
      <trkpt lat="48.42836" lon="-0.31536">
        <ele>244</ele>
        <time>2012-08-11T08:10:00Z</time>
      </trkpt>
      <trkpt lat="48.4285" lon="-0.31563">
        <ele>242.5</ele>
        <time>2012-08-11T08:10:04Z</time>
      </trkpt>
      <trkpt lat="48.42865" lon="-0.31588">
        <ele>241</ele>
        <time>2012-08-11T08:10:08Z</time>
      </trkpt>
      <trkpt lat="48.4288" lon="-0.31615">
        <ele>240.5</ele>
        <time>2012-08-11T08:10:12Z</time>
      </trkpt>
      <trkpt lat="48.42896" lon="-0.31641">
        <ele>239.5</ele>
        <time>2012-08-11T08:10:16Z</time>
      </trkpt>
      <trkpt lat="48.42912" lon="-0.31668">
        <ele>239</ele>
        <time>2012-08-11T08:10:20Z</time>
      </trkpt>
      <trkpt lat="48.42929" lon="-0.31695">
        <ele>238.5</ele>
        <time>2012-08-11T08:10:24Z</time>
      </trkpt>
      <trkpt lat="48.42945" lon="-0.31722">
        <ele>238</ele>
        <time>2012-08-11T08:10:28Z</time>
      </trkpt>
      <trkpt lat="48.4296" lon="-0.31746">
        <ele>237.5</ele>
        <time>2012-08-11T08:10:32Z</time>
      </trkpt>
      <trkpt lat="48.42971" lon="-0.31766">
        <ele>237.5</ele>
        <time>2012-08-11T08:10:36Z</time>
      </trkpt>
      <trkpt lat="48.42981" lon="-0.31776">
        <ele>236.5</ele>
        <time>2012-08-11T08:10:40Z</time>
      </trkpt>
      <trkpt lat="48.42993" lon="-0.31767">
        <ele>236</ele>
        <time>2012-08-11T08:10:44Z</time>
      </trkpt>
      <trkpt lat="48.42999" lon="-0.31759">
        <ele>235.5</ele>
        <time>2012-08-11T08:10:46Z</time>
      </trkpt>
      <trkpt lat="48.43013" lon="-0.3174">
        <ele>235</ele>
        <time>2012-08-11T08:10:50Z</time>
      </trkpt>
      <trkpt lat="48.43027" lon="-0.3172">
        <ele>235</ele>
        <time>2012-08-11T08:10:54Z</time>
      </trkpt>
      <trkpt lat="48.43042" lon="-0.317">
        <ele>234.5</ele>
        <time>2012-08-11T08:10:58Z</time>
      </trkpt>
      <trkpt lat="48.43057" lon="-0.31679">
        <ele>234</ele>
        <time>2012-08-11T08:11:02Z</time>
      </trkpt>
      <trkpt lat="48.43073" lon="-0.31658">
        <ele>234</ele>
        <time>2012-08-11T08:11:06Z</time>
      </trkpt>
      <trkpt lat="48.4309" lon="-0.31639">
        <ele>233</ele>
        <time>2012-08-11T08:11:10Z</time>
      </trkpt>
      <trkpt lat="48.43106" lon="-0.31622">
        <ele>233</ele>
        <time>2012-08-11T08:11:14Z</time>
      </trkpt>
      <trkpt lat="48.43123" lon="-0.31605">
        <ele>232.5</ele>
        <time>2012-08-11T08:11:18Z</time>
      </trkpt>
      <trkpt lat="48.4314" lon="-0.31589">
        <ele>232.5</ele>
        <time>2012-08-11T08:11:22Z</time>
      </trkpt>
      <trkpt lat="48.43157" lon="-0.31573">
        <ele>231.5</ele>
        <time>2012-08-11T08:11:26Z</time>
      </trkpt>
      <trkpt lat="48.43175" lon="-0.31556">
        <ele>231</ele>
        <time>2012-08-11T08:11:30Z</time>
      </trkpt>
      <trkpt lat="48.43194" lon="-0.31538">
        <ele>231</ele>
        <time>2012-08-11T08:11:34Z</time>
      </trkpt>
      <trkpt lat="48.43213" lon="-0.3152">
        <ele>230</ele>
        <time>2012-08-11T08:11:38Z</time>
      </trkpt>
      <trkpt lat="48.43232" lon="-0.31501">
        <ele>229.5</ele>
        <time>2012-08-11T08:11:42Z</time>
      </trkpt>
      <trkpt lat="48.43251" lon="-0.31483">
        <ele>228.5</ele>
        <time>2012-08-11T08:11:46Z</time>
      </trkpt>
      <trkpt lat="48.4327" lon="-0.31464">
        <ele>228</ele>
        <time>2012-08-11T08:11:50Z</time>
      </trkpt>
      <trkpt lat="48.4329" lon="-0.31445">
        <ele>227.5</ele>
        <time>2012-08-11T08:11:54Z</time>
      </trkpt>
      <trkpt lat="48.43309" lon="-0.31426">
        <ele>226.5</ele>
        <time>2012-08-11T08:11:58Z</time>
      </trkpt>
      <trkpt lat="48.43329" lon="-0.31407">
        <ele>226</ele>
        <time>2012-08-11T08:12:02Z</time>
      </trkpt>
      <trkpt lat="48.43348" lon="-0.31389">
        <ele>225.5</ele>
        <time>2012-08-11T08:12:06Z</time>
      </trkpt>
      <trkpt lat="48.43366" lon="-0.3137">
        <ele>225</ele>
        <time>2012-08-11T08:12:10Z</time>
      </trkpt>
      <trkpt lat="48.43386" lon="-0.31352">
        <ele>225</ele>
        <time>2012-08-11T08:12:14Z</time>
      </trkpt>
      <trkpt lat="48.43405" lon="-0.31334">
        <ele>225.5</ele>
        <time>2012-08-11T08:12:18Z</time>
      </trkpt>
      <trkpt lat="48.43424" lon="-0.31318">
        <ele>225.5</ele>
        <time>2012-08-11T08:12:22Z</time>
      </trkpt>
      <trkpt lat="48.43445" lon="-0.31305">
        <ele>225.5</ele>
        <time>2012-08-11T08:12:26Z</time>
      </trkpt>
      <trkpt lat="48.43465" lon="-0.31294">
        <ele>226</ele>
        <time>2012-08-11T08:12:30Z</time>
      </trkpt>
      <trkpt lat="48.43485" lon="-0.31284">
        <ele>226.5</ele>
        <time>2012-08-11T08:12:34Z</time>
      </trkpt>
      <trkpt lat="48.43506" lon="-0.31275">
        <ele>227</ele>
        <time>2012-08-11T08:12:38Z</time>
      </trkpt>
      <trkpt lat="48.43525" lon="-0.31265">
        <ele>227</ele>
        <time>2012-08-11T08:12:42Z</time>
      </trkpt>
      <trkpt lat="48.43545" lon="-0.31256">
        <ele>227.5</ele>
        <time>2012-08-11T08:12:46Z</time>
      </trkpt>
      <trkpt lat="48.43563" lon="-0.31247">
        <ele>228.5</ele>
        <time>2012-08-11T08:12:50Z</time>
      </trkpt>
      <trkpt lat="48.4358" lon="-0.31239">
        <ele>229.5</ele>
        <time>2012-08-11T08:12:54Z</time>
      </trkpt>
      <trkpt lat="48.43596" lon="-0.31231">
        <ele>230</ele>
        <time>2012-08-11T08:12:58Z</time>
      </trkpt>
      <trkpt lat="48.43612" lon="-0.31224">
        <ele>230.5</ele>
        <time>2012-08-11T08:13:02Z</time>
      </trkpt>
      <trkpt lat="48.4362" lon="-0.3122">
        <ele>231</ele>
        <time>2012-08-11T08:13:04Z</time>
      </trkpt>
      <trkpt lat="48.43634" lon="-0.31213">
        <ele>231.5</ele>
        <time>2012-08-11T08:13:08Z</time>
      </trkpt>
      <trkpt lat="48.43647" lon="-0.31207">
        <ele>232</ele>
        <time>2012-08-11T08:13:12Z</time>
      </trkpt>
      <trkpt lat="48.43661" lon="-0.31202">
        <ele>232.5</ele>
        <time>2012-08-11T08:13:16Z</time>
      </trkpt>
      <trkpt lat="48.43668" lon="-0.31198">
        <ele>233</ele>
        <time>2012-08-11T08:13:18Z</time>
      </trkpt>
      <trkpt lat="48.43682" lon="-0.31193">
        <ele>233.5</ele>
        <time>2012-08-11T08:13:22Z</time>
      </trkpt>
      <trkpt lat="48.43696" lon="-0.31188">
        <ele>233.5</ele>
        <time>2012-08-11T08:13:26Z</time>
      </trkpt>
      <trkpt lat="48.43702" lon="-0.31186">
        <ele>234</ele>
        <time>2012-08-11T08:13:28Z</time>
      </trkpt>
      <trkpt lat="48.43715" lon="-0.31181">
        <ele>234.5</ele>
        <time>2012-08-11T08:13:32Z</time>
      </trkpt>
      <trkpt lat="48.43722" lon="-0.3118">
        <ele>234.5</ele>
        <time>2012-08-11T08:13:34Z</time>
      </trkpt>
      <trkpt lat="48.43734" lon="-0.31178">
        <ele>235</ele>
        <time>2012-08-11T08:13:38Z</time>
      </trkpt>
      <trkpt lat="48.4374" lon="-0.31177">
        <ele>235.5</ele>
        <time>2012-08-11T08:13:40Z</time>
      </trkpt>
      <trkpt lat="48.43752" lon="-0.31175">
        <ele>236</ele>
        <time>2012-08-11T08:13:44Z</time>
      </trkpt>
      <trkpt lat="48.43757" lon="-0.31174">
        <ele>236.5</ele>
        <time>2012-08-11T08:13:46Z</time>
      </trkpt>
      <trkpt lat="48.4377" lon="-0.31172">
        <ele>237</ele>
        <time>2012-08-11T08:13:52Z</time>
      </trkpt>
      <trkpt lat="48.43776" lon="-0.31171">
        <ele>237</ele>
        <time>2012-08-11T08:13:54Z</time>
      </trkpt>
      <trkpt lat="48.43795" lon="-0.31168">
        <ele>237.5</ele>
        <time>2012-08-11T08:14:00Z</time>
      </trkpt>
      <trkpt lat="48.43801" lon="-0.31167">
        <ele>238</ele>
        <time>2012-08-11T08:14:02Z</time>
      </trkpt>
      <trkpt lat="48.43814" lon="-0.31165">
        <ele>238.5</ele>
        <time>2012-08-11T08:14:06Z</time>
      </trkpt>
      <trkpt lat="48.43821" lon="-0.31163">
        <ele>239</ele>
        <time>2012-08-11T08:14:08Z</time>
      </trkpt>
      <trkpt lat="48.43833" lon="-0.31162">
        <ele>239.5</ele>
        <time>2012-08-11T08:14:12Z</time>
      </trkpt>
      <trkpt lat="48.43839" lon="-0.3116">
        <ele>240.5</ele>
        <time>2012-08-11T08:14:14Z</time>
      </trkpt>
      <trkpt lat="48.43851" lon="-0.31158">
        <ele>241</ele>
        <time>2012-08-11T08:14:18Z</time>
      </trkpt>
      <trkpt lat="48.43857" lon="-0.31156">
        <ele>241</ele>
        <time>2012-08-11T08:14:20Z</time>
      </trkpt>
      <trkpt lat="48.43869" lon="-0.31152">
        <ele>243</ele>
        <time>2012-08-11T08:14:24Z</time>
      </trkpt>
      <trkpt lat="48.43875" lon="-0.3115">
        <ele>243</ele>
        <time>2012-08-11T08:14:26Z</time>
      </trkpt>
      <trkpt lat="48.43888" lon="-0.31146">
        <ele>243</ele>
        <time>2012-08-11T08:14:30Z</time>
      </trkpt>
      <trkpt lat="48.43894" lon="-0.31144">
        <ele>243</ele>
        <time>2012-08-11T08:14:32Z</time>
      </trkpt>
      <trkpt lat="48.43906" lon="-0.3114">
        <ele>243.5</ele>
        <time>2012-08-11T08:14:36Z</time>
      </trkpt>
      <trkpt lat="48.43911" lon="-0.31139">
        <ele>245</ele>
        <time>2012-08-11T08:14:38Z</time>
      </trkpt>
      <trkpt lat="48.4392" lon="-0.31136">
        <ele>245.5</ele>
        <time>2012-08-11T08:14:42Z</time>
      </trkpt>
      <trkpt lat="48.4393" lon="-0.31133">
        <ele>245.5</ele>
        <time>2012-08-11T08:14:46Z</time>
      </trkpt>
      <trkpt lat="48.4394" lon="-0.3113">
        <ele>244.5</ele>
        <time>2012-08-11T08:14:50Z</time>
      </trkpt>
      <trkpt lat="48.43951" lon="-0.31126">
        <ele>244.5</ele>
        <time>2012-08-11T08:14:53Z</time>
      </trkpt>
      <trkpt lat="48.43956" lon="-0.31124">
        <ele>244.5</ele>
        <time>2012-08-11T08:14:55Z</time>
      </trkpt>
      <trkpt lat="48.43968" lon="-0.31119">
        <ele>244.5</ele>
        <time>2012-08-11T08:14:59Z</time>
      </trkpt>
      <trkpt lat="48.43973" lon="-0.31117">
        <ele>244.5</ele>
        <time>2012-08-11T08:15:01Z</time>
      </trkpt>
      <trkpt lat="48.43984" lon="-0.31113">
        <ele>245</ele>
        <time>2012-08-11T08:15:05Z</time>
      </trkpt>
      <trkpt lat="48.4399" lon="-0.3111">
        <ele>245</ele>
        <time>2012-08-11T08:15:07Z</time>
      </trkpt>
      <trkpt lat="48.44001" lon="-0.31106">
        <ele>244.5</ele>
        <time>2012-08-11T08:15:11Z</time>
      </trkpt>
      <trkpt lat="48.44007" lon="-0.31104">
        <ele>245</ele>
        <time>2012-08-11T08:15:13Z</time>
      </trkpt>
      <trkpt lat="48.44025" lon="-0.31097">
        <ele>245</ele>
        <time>2012-08-11T08:15:19Z</time>
      </trkpt>
      <trkpt lat="48.44044" lon="-0.3109">
        <ele>246</ele>
        <time>2012-08-11T08:15:25Z</time>
      </trkpt>
      <trkpt lat="48.4406" lon="-0.31081">
        <ele>246.5</ele>
        <time>2012-08-11T08:15:31Z</time>
      </trkpt>
      <trkpt lat="48.44071" lon="-0.31075">
        <ele>247</ele>
        <time>2012-08-11T08:15:35Z</time>
      </trkpt>
      <trkpt lat="48.44077" lon="-0.31072">
        <ele>247</ele>
        <time>2012-08-11T08:15:37Z</time>
      </trkpt>
      <trkpt lat="48.4409" lon="-0.31064">
        <ele>247.5</ele>
        <time>2012-08-11T08:15:41Z</time>
      </trkpt>
      <trkpt lat="48.44096" lon="-0.3106">
        <ele>247.5</ele>
        <time>2012-08-11T08:15:43Z</time>
      </trkpt>
      <trkpt lat="48.44109" lon="-0.31053">
        <ele>247.5</ele>
        <time>2012-08-11T08:15:47Z</time>
      </trkpt>
      <trkpt lat="48.44116" lon="-0.31049">
        <ele>247.5</ele>
        <time>2012-08-11T08:15:49Z</time>
      </trkpt>
      <trkpt lat="48.4413" lon="-0.31041">
        <ele>247.5</ele>
        <time>2012-08-11T08:15:53Z</time>
      </trkpt>
      <trkpt lat="48.44144" lon="-0.31034">
        <ele>247</ele>
        <time>2012-08-11T08:15:57Z</time>
      </trkpt>
      <trkpt lat="48.44156" lon="-0.31027">
        <ele>247</ele>
        <time>2012-08-11T08:16:01Z</time>
      </trkpt>
      <trkpt lat="48.44162" lon="-0.31023">
        <ele>247</ele>
        <time>2012-08-11T08:16:03Z</time>
      </trkpt>
      <trkpt lat="48.44173" lon="-0.31016">
        <ele>246.5</ele>
        <time>2012-08-11T08:16:07Z</time>
      </trkpt>
      <trkpt lat="48.44179" lon="-0.31013">
        <ele>247</ele>
        <time>2012-08-11T08:16:09Z</time>
      </trkpt>
      <trkpt lat="48.44192" lon="-0.31004">
        <ele>246.5</ele>
        <time>2012-08-11T08:16:13Z</time>
      </trkpt>
      <trkpt lat="48.44199" lon="-0.30999">
        <ele>246.5</ele>
        <time>2012-08-11T08:16:15Z</time>
      </trkpt>
      <trkpt lat="48.44211" lon="-0.30989">
        <ele>246.5</ele>
        <time>2012-08-11T08:16:19Z</time>
      </trkpt>
      <trkpt lat="48.44224" lon="-0.30979">
        <ele>246.5</ele>
        <time>2012-08-11T08:16:23Z</time>
      </trkpt>
      <trkpt lat="48.44235" lon="-0.30969">
        <ele>246.5</ele>
        <time>2012-08-11T08:16:27Z</time>
      </trkpt>
      <trkpt lat="48.44241" lon="-0.30965">
        <ele>246.5</ele>
        <time>2012-08-11T08:16:29Z</time>
      </trkpt>
      <trkpt lat="48.44252" lon="-0.30955">
        <ele>246</ele>
        <time>2012-08-11T08:16:33Z</time>
      </trkpt>
      <trkpt lat="48.44257" lon="-0.30951">
        <ele>246.5</ele>
        <time>2012-08-11T08:16:35Z</time>
      </trkpt>
      <trkpt lat="48.44272" lon="-0.30937">
        <ele>247</ele>
        <time>2012-08-11T08:16:41Z</time>
      </trkpt>
      <trkpt lat="48.44283" lon="-0.30927">
        <ele>247</ele>
        <time>2012-08-11T08:16:45Z</time>
      </trkpt>
      <trkpt lat="48.44288" lon="-0.30922">
        <ele>246.5</ele>
        <time>2012-08-11T08:16:47Z</time>
      </trkpt>
      <trkpt lat="48.44299" lon="-0.30912">
        <ele>246.5</ele>
        <time>2012-08-11T08:16:51Z</time>
      </trkpt>
      <trkpt lat="48.44304" lon="-0.30908">
        <ele>246</ele>
        <time>2012-08-11T08:16:53Z</time>
      </trkpt>
      <trkpt lat="48.44316" lon="-0.30898">
        <ele>245.5</ele>
        <time>2012-08-11T08:16:57Z</time>
      </trkpt>
      <trkpt lat="48.44322" lon="-0.30893">
        <ele>245.5</ele>
        <time>2012-08-11T08:16:59Z</time>
      </trkpt>
      <trkpt lat="48.44334" lon="-0.3088">
        <ele>245</ele>
        <time>2012-08-11T08:17:03Z</time>
      </trkpt>
      <trkpt lat="48.44338" lon="-0.30871">
        <ele>245</ele>
        <time>2012-08-11T08:17:05Z</time>
      </trkpt>
      <trkpt lat="48.44339" lon="-0.30849">
        <ele>245</ele>
        <time>2012-08-11T08:17:09Z</time>
      </trkpt>
      <trkpt lat="48.44338" lon="-0.30826">
        <ele>245</ele>
        <time>2012-08-11T08:17:13Z</time>
      </trkpt>
      <trkpt lat="48.44336" lon="-0.30808">
        <ele>244.5</ele>
        <time>2012-08-11T08:17:17Z</time>
      </trkpt>
      <trkpt lat="48.44336" lon="-0.30808">
        <ele>244.5</ele>
        <time>2012-08-11T08:17:33Z</time>
      </trkpt>
      <trkpt lat="48.44336" lon="-0.30808">
        <ele>244.5</ele>
        <time>2012-08-11T08:17:49Z</time>
      </trkpt>
      <trkpt lat="48.44336" lon="-0.30808">
        <ele>244.5</ele>
        <time>2012-08-11T08:18:05Z</time>
      </trkpt>
      <trkpt lat="48.44336" lon="-0.30808">
        <ele>244.5</ele>
        <time>2012-08-11T08:18:21Z</time>
      </trkpt>
      <trkpt lat="48.44336" lon="-0.30808">
        <ele>244.5</ele>
        <time>2012-08-11T08:18:37Z</time>
      </trkpt>
      <trkpt lat="48.44336" lon="-0.30808">
        <ele>244.5</ele>
        <time>2012-08-11T08:18:53Z</time>
      </trkpt>
      <trkpt lat="48.44336" lon="-0.30808">
        <ele>244.5</ele>
        <time>2012-08-11T08:19:09Z</time>
      </trkpt>
      <trkpt lat="48.44336" lon="-0.30808">
        <ele>244.5</ele>
        <time>2012-08-11T08:19:25Z</time>
      </trkpt>
      <trkpt lat="48.44336" lon="-0.30808">
        <ele>244.5</ele>
        <time>2012-08-11T08:19:41Z</time>
      </trkpt>
      <trkpt lat="48.44336" lon="-0.30808">
        <ele>244.5</ele>
        <time>2012-08-11T08:19:57Z</time>
      </trkpt>
      <trkpt lat="48.44336" lon="-0.30808">
        <ele>244.5</ele>
        <time>2012-08-11T08:20:13Z</time>
      </trkpt>
      <trkpt lat="48.44336" lon="-0.30808">
        <ele>244.5</ele>
        <time>2012-08-11T08:20:29Z</time>
      </trkpt>
      <trkpt lat="48.44336" lon="-0.30808">
        <ele>244.5</ele>
        <time>2012-08-11T08:20:45Z</time>
      </trkpt>
      <trkpt lat="48.44336" lon="-0.30808">
        <ele>244.5</ele>
        <time>2012-08-11T08:21:01Z</time>
      </trkpt>
      <trkpt lat="48.44336" lon="-0.30808">
        <ele>244.5</ele>
        <time>2012-08-11T08:21:17Z</time>
      </trkpt>
      <trkpt lat="48.44336" lon="-0.30808">
        <ele>244.5</ele>
        <time>2012-08-11T08:21:33Z</time>
      </trkpt>
      <trkpt lat="48.44336" lon="-0.30808">
        <ele>244.5</ele>
        <time>2012-08-11T08:21:49Z</time>
      </trkpt>
      <trkpt lat="48.44336" lon="-0.30808">
        <ele>244.5</ele>
        <time>2012-08-11T08:22:05Z</time>
      </trkpt>
      <trkpt lat="48.44337" lon="-0.3079">
        <ele>243.5</ele>
        <time>2012-08-11T08:22:15Z</time>
      </trkpt>
      <trkpt lat="48.44337" lon="-0.30783">
        <ele>243</ele>
        <time>2012-08-11T08:22:17Z</time>
      </trkpt>
      <trkpt lat="48.44335" lon="-0.30767">
        <ele>243</ele>
        <time>2012-08-11T08:22:21Z</time>
      </trkpt>
      <trkpt lat="48.44335" lon="-0.30757">
        <ele>243.5</ele>
        <time>2012-08-11T08:22:23Z</time>
      </trkpt>
      <trkpt lat="48.44334" lon="-0.30748">
        <ele>243.5</ele>
        <time>2012-08-11T08:22:25Z</time>
      </trkpt>
      <trkpt lat="48.44334" lon="-0.30738">
        <ele>243.5</ele>
        <time>2012-08-11T08:22:27Z</time>
      </trkpt>
      <trkpt lat="48.44334" lon="-0.30729">
        <ele>243.5</ele>
        <time>2012-08-11T08:22:29Z</time>
      </trkpt>
      <trkpt lat="48.44332" lon="-0.30702">
        <ele>243.5</ele>
        <time>2012-08-11T08:22:35Z</time>
      </trkpt>
      <trkpt lat="48.4433" lon="-0.30687">
        <ele>244</ele>
        <time>2012-08-11T08:22:39Z</time>
      </trkpt>
      <trkpt lat="48.4433" lon="-0.30679">
        <ele>244</ele>
        <time>2012-08-11T08:22:41Z</time>
      </trkpt>
      <trkpt lat="48.4433" lon="-0.30671">
        <ele>243.5</ele>
        <time>2012-08-11T08:22:45Z</time>
      </trkpt>
      <trkpt lat="48.44331" lon="-0.30691">
        <ele>243</ele>
        <time>2012-08-11T08:23:01Z</time>
      </trkpt>
      <trkpt lat="48.44328" lon="-0.30698">
        <ele>243.5</ele>
        <time>2012-08-11T08:23:03Z</time>
      </trkpt>
      <trkpt lat="48.44319" lon="-0.30704">
        <ele>242.5</ele>
        <time>2012-08-11T08:23:07Z</time>
      </trkpt>
      <trkpt lat="48.44314" lon="-0.30704">
        <ele>242.5</ele>
        <time>2012-08-11T08:23:09Z</time>
      </trkpt>
      <trkpt lat="48.44308" lon="-0.30705">
        <ele>243</ele>
        <time>2012-08-11T08:23:11Z</time>
      </trkpt>
      <trkpt lat="48.44303" lon="-0.30706">
        <ele>243.5</ele>
        <time>2012-08-11T08:23:13Z</time>
      </trkpt>
      <trkpt lat="48.44297" lon="-0.30707">
        <ele>243.5</ele>
        <time>2012-08-11T08:23:15Z</time>
      </trkpt>
      <trkpt lat="48.44291" lon="-0.30708">
        <ele>242.5</ele>
        <time>2012-08-11T08:23:17Z</time>
      </trkpt>
      <trkpt lat="48.44279" lon="-0.3071">
        <ele>243.5</ele>
        <time>2012-08-11T08:23:21Z</time>
      </trkpt>
      <trkpt lat="48.44274" lon="-0.3071">
        <ele>244</ele>
        <time>2012-08-11T08:23:23Z</time>
      </trkpt>
      <trkpt lat="48.44263" lon="-0.30707">
        <ele>245</ele>
        <time>2012-08-11T08:23:27Z</time>
      </trkpt>
      <trkpt lat="48.44256" lon="-0.30707">
        <ele>245.5</ele>
        <time>2012-08-11T08:23:29Z</time>
      </trkpt>
      <trkpt lat="48.44244" lon="-0.30705">
        <ele>247</ele>
        <time>2012-08-11T08:23:33Z</time>
      </trkpt>
      <trkpt lat="48.44237" lon="-0.30704">
        <ele>247.5</ele>
        <time>2012-08-11T08:23:35Z</time>
      </trkpt>
      <trkpt lat="48.44223" lon="-0.30702">
        <ele>247.5</ele>
        <time>2012-08-11T08:23:39Z</time>
      </trkpt>
      <trkpt lat="48.44217" lon="-0.30702">
        <ele>248</ele>
        <time>2012-08-11T08:23:41Z</time>
      </trkpt>
      <trkpt lat="48.44205" lon="-0.30699">
        <ele>248.5</ele>
        <time>2012-08-11T08:23:45Z</time>
      </trkpt>
      <trkpt lat="48.44198" lon="-0.30698">
        <ele>248.5</ele>
        <time>2012-08-11T08:23:47Z</time>
      </trkpt>
      <trkpt lat="48.44184" lon="-0.30696">
        <ele>249</ele>
        <time>2012-08-11T08:23:51Z</time>
      </trkpt>
      <trkpt lat="48.44177" lon="-0.30695">
        <ele>249</ele>
        <time>2012-08-11T08:23:53Z</time>
      </trkpt>
      <trkpt lat="48.44163" lon="-0.30694">
        <ele>249</ele>
        <time>2012-08-11T08:23:57Z</time>
      </trkpt>
      <trkpt lat="48.44156" lon="-0.30693">
        <ele>249.5</ele>
        <time>2012-08-11T08:23:59Z</time>
      </trkpt>
      <trkpt lat="48.44142" lon="-0.30692">
        <ele>249.5</ele>
        <time>2012-08-11T08:24:03Z</time>
      </trkpt>
      <trkpt lat="48.44135" lon="-0.30691">
        <ele>249.5</ele>
        <time>2012-08-11T08:24:05Z</time>
      </trkpt>
      <trkpt lat="48.44124" lon="-0.3069">
        <ele>249.5</ele>
        <time>2012-08-11T08:24:09Z</time>
      </trkpt>
      <trkpt lat="48.44118" lon="-0.30688">
        <ele>249</ele>
        <time>2012-08-11T08:24:11Z</time>
      </trkpt>
      <trkpt lat="48.44102" lon="-0.30684">
        <ele>248.5</ele>
        <time>2012-08-11T08:24:17Z</time>
      </trkpt>
      <trkpt lat="48.44091" lon="-0.30682">
        <ele>248.5</ele>
        <time>2012-08-11T08:24:21Z</time>
      </trkpt>
      <trkpt lat="48.44086" lon="-0.3068">
        <ele>248</ele>
        <time>2012-08-11T08:24:23Z</time>
      </trkpt>
      <trkpt lat="48.44068" lon="-0.30673">
        <ele>248.5</ele>
        <time>2012-08-11T08:24:29Z</time>
      </trkpt>
      <trkpt lat="48.44055" lon="-0.30669">
        <ele>248</ele>
        <time>2012-08-11T08:24:33Z</time>
      </trkpt>
      <trkpt lat="48.44049" lon="-0.30669">
        <ele>248.5</ele>
        <time>2012-08-11T08:24:35Z</time>
      </trkpt>
      <trkpt lat="48.44043" lon="-0.30668">
        <ele>247.5</ele>
        <time>2012-08-11T08:24:39Z</time>
      </trkpt>
      <trkpt lat="48.44035" lon="-0.3067">
        <ele>244</ele>
        <time>2012-08-11T08:24:45Z</time>
      </trkpt>
      <trkpt lat="48.44032" lon="-0.30671">
        <ele>242.5</ele>
        <time>2012-08-11T08:24:47Z</time>
      </trkpt>
      <trkpt lat="48.44024" lon="-0.30673">
        <ele>243</ele>
        <time>2012-08-11T08:24:51Z</time>
      </trkpt>
      <trkpt lat="48.44017" lon="-0.30674">
        <ele>243</ele>
        <time>2012-08-11T08:24:53Z</time>
      </trkpt>
      <trkpt lat="48.44011" lon="-0.30675">
        <ele>243.5</ele>
        <time>2012-08-11T08:24:57Z</time>
      </trkpt>
      <trkpt lat="48.44008" lon="-0.30676">
        <ele>243</ele>
        <time>2012-08-11T08:24:59Z</time>
      </trkpt>
      <trkpt lat="48.44005" lon="-0.30676">
        <ele>243</ele>
        <time>2012-08-11T08:25:01Z</time>
      </trkpt>
      <trkpt lat="48.43997" lon="-0.30678">
        <ele>241</ele>
        <time>2012-08-11T08:25:11Z</time>
      </trkpt>
      <trkpt lat="48.43989" lon="-0.30678">
        <ele>240.5</ele>
        <time>2012-08-11T08:25:19Z</time>
      </trkpt>
      <trkpt lat="48.43984" lon="-0.30679">
        <ele>239</ele>
        <time>2012-08-11T08:25:23Z</time>
      </trkpt>
      <trkpt lat="48.43981" lon="-0.30679">
        <ele>238</ele>
        <time>2012-08-11T08:25:25Z</time>
      </trkpt>
      <trkpt lat="48.43972" lon="-0.30681">
        <ele>237</ele>
        <time>2012-08-11T08:25:37Z</time>
      </trkpt>
      <trkpt lat="48.43967" lon="-0.30683">
        <ele>237.5</ele>
        <time>2012-08-11T08:25:39Z</time>
      </trkpt>
      <trkpt lat="48.43957" lon="-0.30687">
        <ele>237.5</ele>
        <time>2012-08-11T08:25:43Z</time>
      </trkpt>
      <trkpt lat="48.43952" lon="-0.30689">
        <ele>237.5</ele>
        <time>2012-08-11T08:25:45Z</time>
      </trkpt>
      <trkpt lat="48.43947" lon="-0.30691">
        <ele>237</ele>
        <time>2012-08-11T08:25:47Z</time>
      </trkpt>
      <trkpt lat="48.43943" lon="-0.30693">
        <ele>237.5</ele>
        <time>2012-08-11T08:25:49Z</time>
      </trkpt>
      <trkpt lat="48.43935" lon="-0.30693">
        <ele>236</ele>
        <time>2012-08-11T08:25:53Z</time>
      </trkpt>
      <trkpt lat="48.43915" lon="-0.30693">
        <ele>238.5</ele>
        <time>2012-08-11T08:26:01Z</time>
      </trkpt>
      <trkpt lat="48.4391" lon="-0.30675">
        <ele>239</ele>
        <time>2012-08-11T08:26:07Z</time>
      </trkpt>
      <trkpt lat="48.43912" lon="-0.30657">
        <ele>238</ele>
        <time>2012-08-11T08:26:13Z</time>
      </trkpt>
      <trkpt lat="48.43901" lon="-0.30655">
        <ele>237.5</ele>
        <time>2012-08-11T08:26:21Z</time>
      </trkpt>
      <trkpt lat="48.43897" lon="-0.30657">
        <ele>237</ele>
        <time>2012-08-11T08:26:23Z</time>
      </trkpt>
      <trkpt lat="48.4388" lon="-0.3066">
        <ele>236</ele>
        <time>2012-08-11T08:26:29Z</time>
      </trkpt>
      <trkpt lat="48.43868" lon="-0.30662">
        <ele>237.5</ele>
        <time>2012-08-11T08:26:33Z</time>
      </trkpt>
      <trkpt lat="48.43856" lon="-0.30664">
        <ele>237</ele>
        <time>2012-08-11T08:26:37Z</time>
      </trkpt>
      <trkpt lat="48.4385" lon="-0.30667">
        <ele>237.5</ele>
        <time>2012-08-11T08:26:39Z</time>
      </trkpt>
      <trkpt lat="48.43839" lon="-0.30672">
        <ele>239</ele>
        <time>2012-08-11T08:26:43Z</time>
      </trkpt>
      <trkpt lat="48.43834" lon="-0.30675">
        <ele>239</ele>
        <time>2012-08-11T08:26:45Z</time>
      </trkpt>
      <trkpt lat="48.43829" lon="-0.30677">
        <ele>238.5</ele>
        <time>2012-08-11T08:26:47Z</time>
      </trkpt>
      <trkpt lat="48.4382" lon="-0.30682">
        <ele>238.5</ele>
        <time>2012-08-11T08:26:51Z</time>
      </trkpt>
      <trkpt lat="48.43816" lon="-0.30684">
        <ele>239.5</ele>
        <time>2012-08-11T08:26:53Z</time>
      </trkpt>
      <trkpt lat="48.43816" lon="-0.30684">
        <ele>239.5</ele>
        <time>2012-08-11T08:27:09Z</time>
      </trkpt>
      <trkpt lat="48.4381" lon="-0.30683">
        <ele>239</ele>
        <time>2012-08-11T08:27:11Z</time>
      </trkpt>
      <trkpt lat="48.43801" lon="-0.30677">
        <ele>238.5</ele>
        <time>2012-08-11T08:27:15Z</time>
      </trkpt>
      <trkpt lat="48.43789" lon="-0.30672">
        <ele>238.5</ele>
        <time>2012-08-11T08:27:19Z</time>
      </trkpt>
      <trkpt lat="48.43784" lon="-0.3067">
        <ele>239.5</ele>
        <time>2012-08-11T08:27:21Z</time>
      </trkpt>
      <trkpt lat="48.43772" lon="-0.30667">
        <ele>242</ele>
        <time>2012-08-11T08:27:25Z</time>
      </trkpt>
      <trkpt lat="48.43765" lon="-0.30666">
        <ele>242.5</ele>
        <time>2012-08-11T08:27:27Z</time>
      </trkpt>
      <trkpt lat="48.43753" lon="-0.30663">
        <ele>243</ele>
        <time>2012-08-11T08:27:31Z</time>
      </trkpt>
      <trkpt lat="48.43747" lon="-0.30662">
        <ele>243.5</ele>
        <time>2012-08-11T08:27:33Z</time>
      </trkpt>
      <trkpt lat="48.43735" lon="-0.30661">
        <ele>244</ele>
        <time>2012-08-11T08:27:37Z</time>
      </trkpt>
      <trkpt lat="48.4373" lon="-0.30658">
        <ele>244.5</ele>
        <time>2012-08-11T08:27:39Z</time>
      </trkpt>
      <trkpt lat="48.43722" lon="-0.30652">
        <ele>244.5</ele>
        <time>2012-08-11T08:27:43Z</time>
      </trkpt>
      <trkpt lat="48.43717" lon="-0.30645">
        <ele>243.5</ele>
        <time>2012-08-11T08:27:51Z</time>
      </trkpt>
      <trkpt lat="48.43713" lon="-0.3064">
        <ele>244</ele>
        <time>2012-08-11T08:27:55Z</time>
      </trkpt>
      <trkpt lat="48.43709" lon="-0.30631">
        <ele>245.5</ele>
        <time>2012-08-11T08:28:01Z</time>
      </trkpt>
      <trkpt lat="48.43706" lon="-0.30625">
        <ele>246</ele>
        <time>2012-08-11T08:28:05Z</time>
      </trkpt>
      <trkpt lat="48.43704" lon="-0.30622">
        <ele>246.5</ele>
        <time>2012-08-11T08:28:07Z</time>
      </trkpt>
      <trkpt lat="48.43695" lon="-0.30607">
        <ele>247</ele>
        <time>2012-08-11T08:28:17Z</time>
      </trkpt>
      <trkpt lat="48.43692" lon="-0.30601">
        <ele>247</ele>
        <time>2012-08-11T08:28:21Z</time>
      </trkpt>
      <trkpt lat="48.43687" lon="-0.30594">
        <ele>246</ele>
        <time>2012-08-11T08:28:27Z</time>
      </trkpt>
      <trkpt lat="48.43684" lon="-0.3059">
        <ele>246</ele>
        <time>2012-08-11T08:28:31Z</time>
      </trkpt>
      <trkpt lat="48.43679" lon="-0.30589">
        <ele>245</ele>
        <time>2012-08-11T08:28:37Z</time>
      </trkpt>
      <trkpt lat="48.43674" lon="-0.30593">
        <ele>246</ele>
        <time>2012-08-11T08:28:47Z</time>
      </trkpt>
      <trkpt lat="48.43669" lon="-0.30598">
        <ele>245.5</ele>
        <time>2012-08-11T08:28:55Z</time>
      </trkpt>
      <trkpt lat="48.43666" lon="-0.30603">
        <ele>244</ele>
        <time>2012-08-11T08:28:57Z</time>
      </trkpt>
      <trkpt lat="48.43659" lon="-0.30613">
        <ele>243.5</ele>
        <time>2012-08-11T08:29:01Z</time>
      </trkpt>
      <trkpt lat="48.43655" lon="-0.30619">
        <ele>244</ele>
        <time>2012-08-11T08:29:03Z</time>
      </trkpt>
      <trkpt lat="48.43651" lon="-0.30626">
        <ele>244</ele>
        <time>2012-08-11T08:29:05Z</time>
      </trkpt>
      <trkpt lat="48.43647" lon="-0.30633">
        <ele>244</ele>
        <time>2012-08-11T08:29:07Z</time>
      </trkpt>
      <trkpt lat="48.43642" lon="-0.3064">
        <ele>244</ele>
        <time>2012-08-11T08:29:09Z</time>
      </trkpt>
      <trkpt lat="48.43637" lon="-0.30648">
        <ele>244</ele>
        <time>2012-08-11T08:29:11Z</time>
      </trkpt>
      <trkpt lat="48.43622" lon="-0.30672">
        <ele>244</ele>
        <time>2012-08-11T08:29:17Z</time>
      </trkpt>
      <trkpt lat="48.43611" lon="-0.30688">
        <ele>244.5</ele>
        <time>2012-08-11T08:29:21Z</time>
      </trkpt>
      <trkpt lat="48.43599" lon="-0.30704">
        <ele>244.5</ele>
        <time>2012-08-11T08:29:25Z</time>
      </trkpt>
      <trkpt lat="48.43588" lon="-0.30717">
        <ele>244</ele>
        <time>2012-08-11T08:29:29Z</time>
      </trkpt>
      <trkpt lat="48.43575" lon="-0.30732">
        <ele>244</ele>
        <time>2012-08-11T08:29:33Z</time>
      </trkpt>
      <trkpt lat="48.43561" lon="-0.30746">
        <ele>244</ele>
        <time>2012-08-11T08:29:37Z</time>
      </trkpt>
      <trkpt lat="48.43547" lon="-0.3076">
        <ele>243.5</ele>
        <time>2012-08-11T08:29:41Z</time>
      </trkpt>
      <trkpt lat="48.43532" lon="-0.30773">
        <ele>243.5</ele>
        <time>2012-08-11T08:29:45Z</time>
      </trkpt>
      <trkpt lat="48.43516" lon="-0.30786">
        <ele>243.5</ele>
        <time>2012-08-11T08:29:49Z</time>
      </trkpt>
      <trkpt lat="48.435" lon="-0.30798">
        <ele>243</ele>
        <time>2012-08-11T08:29:53Z</time>
      </trkpt>
      <trkpt lat="48.43483" lon="-0.30809">
        <ele>242</ele>
        <time>2012-08-11T08:29:57Z</time>
      </trkpt>
      <trkpt lat="48.43467" lon="-0.30821">
        <ele>241.5</ele>
        <time>2012-08-11T08:30:01Z</time>
      </trkpt>
      <trkpt lat="48.43451" lon="-0.30832">
        <ele>241.5</ele>
        <time>2012-08-11T08:30:05Z</time>
      </trkpt>
      <trkpt lat="48.43434" lon="-0.30842">
        <ele>241.5</ele>
        <time>2012-08-11T08:30:09Z</time>
      </trkpt>
      <trkpt lat="48.43417" lon="-0.30853">
        <ele>241.5</ele>
        <time>2012-08-11T08:30:13Z</time>
      </trkpt>
      <trkpt lat="48.434" lon="-0.30863">
        <ele>241</ele>
        <time>2012-08-11T08:30:17Z</time>
      </trkpt>
      <trkpt lat="48.43383" lon="-0.30874">
        <ele>241.5</ele>
        <time>2012-08-11T08:30:21Z</time>
      </trkpt>
      <trkpt lat="48.43366" lon="-0.30885">
        <ele>242</ele>
        <time>2012-08-11T08:30:25Z</time>
      </trkpt>
      <trkpt lat="48.4335" lon="-0.30896">
        <ele>242</ele>
        <time>2012-08-11T08:30:29Z</time>
      </trkpt>
      <trkpt lat="48.43333" lon="-0.30907">
        <ele>242</ele>
        <time>2012-08-11T08:30:33Z</time>
      </trkpt>
      <trkpt lat="48.43315" lon="-0.30918">
        <ele>242.5</ele>
        <time>2012-08-11T08:30:37Z</time>
      </trkpt>
      <trkpt lat="48.43299" lon="-0.30929">
        <ele>242.5</ele>
        <time>2012-08-11T08:30:41Z</time>
      </trkpt>
      <trkpt lat="48.43282" lon="-0.3094">
        <ele>242.5</ele>
        <time>2012-08-11T08:30:45Z</time>
      </trkpt>
      <trkpt lat="48.43265" lon="-0.30951">
        <ele>243</ele>
        <time>2012-08-11T08:30:49Z</time>
      </trkpt>
      <trkpt lat="48.43248" lon="-0.30962">
        <ele>242</ele>
        <time>2012-08-11T08:30:53Z</time>
      </trkpt>
      <trkpt lat="48.43231" lon="-0.30973">
        <ele>241.5</ele>
        <time>2012-08-11T08:30:57Z</time>
      </trkpt>
      <trkpt lat="48.43214" lon="-0.30984">
        <ele>241</ele>
        <time>2012-08-11T08:31:01Z</time>
      </trkpt>
      <trkpt lat="48.43197" lon="-0.30995">
        <ele>241.5</ele>
        <time>2012-08-11T08:31:05Z</time>
      </trkpt>
      <trkpt lat="48.4318" lon="-0.31006">
        <ele>241.5</ele>
        <time>2012-08-11T08:31:09Z</time>
      </trkpt>
      <trkpt lat="48.43162" lon="-0.31017">
        <ele>242</ele>
        <time>2012-08-11T08:31:13Z</time>
      </trkpt>
      <trkpt lat="48.43147" lon="-0.31027">
        <ele>240</ele>
        <time>2012-08-11T08:31:17Z</time>
      </trkpt>
      <trkpt lat="48.4313" lon="-0.31038">
        <ele>241</ele>
        <time>2012-08-11T08:31:21Z</time>
      </trkpt>
      <trkpt lat="48.43113" lon="-0.31049">
        <ele>241.5</ele>
        <time>2012-08-11T08:31:25Z</time>
      </trkpt>
      <trkpt lat="48.43096" lon="-0.3106">
        <ele>241.5</ele>
        <time>2012-08-11T08:31:29Z</time>
      </trkpt>
      <trkpt lat="48.43079" lon="-0.3107">
        <ele>241</ele>
        <time>2012-08-11T08:31:33Z</time>
      </trkpt>
      <trkpt lat="48.43062" lon="-0.31081">
        <ele>241</ele>
        <time>2012-08-11T08:31:37Z</time>
      </trkpt>
      <trkpt lat="48.43044" lon="-0.31092">
        <ele>242</ele>
        <time>2012-08-11T08:31:41Z</time>
      </trkpt>
      <trkpt lat="48.43027" lon="-0.31103">
        <ele>242.5</ele>
        <time>2012-08-11T08:31:45Z</time>
      </trkpt>
      <trkpt lat="48.43009" lon="-0.31116">
        <ele>242</ele>
        <time>2012-08-11T08:31:49Z</time>
      </trkpt>
      <trkpt lat="48.42992" lon="-0.31131">
        <ele>241</ele>
        <time>2012-08-11T08:31:53Z</time>
      </trkpt>
      <trkpt lat="48.42977" lon="-0.3115">
        <ele>240.5</ele>
        <time>2012-08-11T08:31:57Z</time>
      </trkpt>
      <trkpt lat="48.42963" lon="-0.3117">
        <ele>240.5</ele>
        <time>2012-08-11T08:32:01Z</time>
      </trkpt>
      <trkpt lat="48.4295" lon="-0.31191">
        <ele>241</ele>
        <time>2012-08-11T08:32:05Z</time>
      </trkpt>
      <trkpt lat="48.42939" lon="-0.31213">
        <ele>241.5</ele>
        <time>2012-08-11T08:32:09Z</time>
      </trkpt>
      <trkpt lat="48.42929" lon="-0.31235">
        <ele>242.5</ele>
        <time>2012-08-11T08:32:13Z</time>
      </trkpt>
      <trkpt lat="48.4292" lon="-0.31258">
        <ele>243</ele>
        <time>2012-08-11T08:32:17Z</time>
      </trkpt>
      <trkpt lat="48.42911" lon="-0.31282">
        <ele>243.5</ele>
        <time>2012-08-11T08:32:21Z</time>
      </trkpt>
      <trkpt lat="48.42901" lon="-0.31306">
        <ele>244</ele>
        <time>2012-08-11T08:32:25Z</time>
      </trkpt>
      <trkpt lat="48.42891" lon="-0.3133">
        <ele>244.5</ele>
        <time>2012-08-11T08:32:29Z</time>
      </trkpt>
      <trkpt lat="48.42882" lon="-0.31354">
        <ele>244.5</ele>
        <time>2012-08-11T08:32:33Z</time>
      </trkpt>
      <trkpt lat="48.42873" lon="-0.31378">
        <ele>244</ele>
        <time>2012-08-11T08:32:37Z</time>
      </trkpt>
      <trkpt lat="48.42865" lon="-0.314">
        <ele>244</ele>
        <time>2012-08-11T08:32:41Z</time>
      </trkpt>
      <trkpt lat="48.42857" lon="-0.3142">
        <ele>244</ele>
        <time>2012-08-11T08:32:45Z</time>
      </trkpt>
      <trkpt lat="48.42849" lon="-0.31438">
        <ele>244</ele>
        <time>2012-08-11T08:32:49Z</time>
      </trkpt>
      <trkpt lat="48.42839" lon="-0.31465">
        <ele>243.5</ele>
        <time>2012-08-11T08:32:55Z</time>
      </trkpt>
      <trkpt lat="48.42832" lon="-0.31482">
        <ele>243.5</ele>
        <time>2012-08-11T08:32:59Z</time>
      </trkpt>
      <trkpt lat="48.42828" lon="-0.3149">
        <ele>243.5</ele>
        <time>2012-08-11T08:33:01Z</time>
      </trkpt>
      <trkpt lat="48.42817" lon="-0.31492">
        <ele>244</ele>
        <time>2012-08-11T08:33:05Z</time>
      </trkpt>
      <trkpt lat="48.42813" lon="-0.31485">
        <ele>244.5</ele>
        <time>2012-08-11T08:33:07Z</time>
      </trkpt>
      <trkpt lat="48.42806" lon="-0.31469">
        <ele>245.5</ele>
        <time>2012-08-11T08:33:11Z</time>
      </trkpt>
      <trkpt lat="48.42803" lon="-0.31461">
        <ele>246</ele>
        <time>2012-08-11T08:33:13Z</time>
      </trkpt>
      <trkpt lat="48.42797" lon="-0.31445">
        <ele>246.5</ele>
        <time>2012-08-11T08:33:17Z</time>
      </trkpt>
      <trkpt lat="48.42795" lon="-0.31436">
        <ele>246.5</ele>
        <time>2012-08-11T08:33:19Z</time>
      </trkpt>
      <trkpt lat="48.42788" lon="-0.31418">
        <ele>247</ele>
        <time>2012-08-11T08:33:23Z</time>
      </trkpt>
      <trkpt lat="48.42784" lon="-0.3141">
        <ele>247.5</ele>
        <time>2012-08-11T08:33:25Z</time>
      </trkpt>
      <trkpt lat="48.42777" lon="-0.31393">
        <ele>247</ele>
        <time>2012-08-11T08:33:29Z</time>
      </trkpt>
      <trkpt lat="48.42774" lon="-0.31385">
        <ele>247</ele>
        <time>2012-08-11T08:33:31Z</time>
      </trkpt>
      <trkpt lat="48.42767" lon="-0.31368">
        <ele>248.5</ele>
        <time>2012-08-11T08:33:35Z</time>
      </trkpt>
      <trkpt lat="48.42764" lon="-0.31358">
        <ele>248.5</ele>
        <time>2012-08-11T08:33:37Z</time>
      </trkpt>
      <trkpt lat="48.42757" lon="-0.31338">
        <ele>249</ele>
        <time>2012-08-11T08:33:41Z</time>
      </trkpt>
      <trkpt lat="48.42754" lon="-0.31327">
        <ele>250.5</ele>
        <time>2012-08-11T08:33:43Z</time>
      </trkpt>
      <trkpt lat="48.42747" lon="-0.31307">
        <ele>251</ele>
        <time>2012-08-11T08:33:47Z</time>
      </trkpt>
      <trkpt lat="48.42736" lon="-0.31276">
        <ele>250</ele>
        <time>2012-08-11T08:33:53Z</time>
      </trkpt>
      <trkpt lat="48.42731" lon="-0.31256">
        <ele>247.5</ele>
        <time>2012-08-11T08:33:57Z</time>
      </trkpt>
      <trkpt lat="48.42724" lon="-0.31237">
        <ele>246</ele>
        <time>2012-08-11T08:34:01Z</time>
      </trkpt>
      <trkpt lat="48.42716" lon="-0.31219">
        <ele>247.5</ele>
        <time>2012-08-11T08:34:05Z</time>
      </trkpt>
      <trkpt lat="48.42705" lon="-0.31203">
        <ele>248</ele>
        <time>2012-08-11T08:34:09Z</time>
      </trkpt>
      <trkpt lat="48.42691" lon="-0.31192">
        <ele>249</ele>
        <time>2012-08-11T08:34:13Z</time>
      </trkpt>
      <trkpt lat="48.42676" lon="-0.31186">
        <ele>248</ele>
        <time>2012-08-11T08:34:17Z</time>
      </trkpt>
      <trkpt lat="48.42662" lon="-0.31181">
        <ele>248</ele>
        <time>2012-08-11T08:34:21Z</time>
      </trkpt>
      <trkpt lat="48.42647" lon="-0.31175">
        <ele>247.5</ele>
        <time>2012-08-11T08:34:25Z</time>
      </trkpt>
      <trkpt lat="48.42632" lon="-0.31171">
        <ele>248</ele>
        <time>2012-08-11T08:34:29Z</time>
      </trkpt>
      <trkpt lat="48.42616" lon="-0.31167">
        <ele>247.5</ele>
        <time>2012-08-11T08:34:33Z</time>
      </trkpt>
      <trkpt lat="48.426" lon="-0.31162">
        <ele>248</ele>
        <time>2012-08-11T08:34:37Z</time>
      </trkpt>
      <trkpt lat="48.42584" lon="-0.31158">
        <ele>247.5</ele>
        <time>2012-08-11T08:34:41Z</time>
      </trkpt>
      <trkpt lat="48.42567" lon="-0.31152">
        <ele>247.5</ele>
        <time>2012-08-11T08:34:45Z</time>
      </trkpt>
      <trkpt lat="48.42558" lon="-0.3115">
        <ele>248</ele>
        <time>2012-08-11T08:34:47Z</time>
      </trkpt>
      <trkpt lat="48.4254" lon="-0.31144">
        <ele>248.5</ele>
        <time>2012-08-11T08:34:51Z</time>
      </trkpt>
      <trkpt lat="48.42522" lon="-0.31139">
        <ele>248.5</ele>
        <time>2012-08-11T08:34:55Z</time>
      </trkpt>
      <trkpt lat="48.42505" lon="-0.31134">
        <ele>248.5</ele>
        <time>2012-08-11T08:34:59Z</time>
      </trkpt>
      <trkpt lat="48.42488" lon="-0.31131">
        <ele>248.5</ele>
        <time>2012-08-11T08:35:03Z</time>
      </trkpt>
      <trkpt lat="48.42479" lon="-0.31129">
        <ele>248</ele>
        <time>2012-08-11T08:35:05Z</time>
      </trkpt>
      <trkpt lat="48.42461" lon="-0.31127">
        <ele>247.5</ele>
        <time>2012-08-11T08:35:09Z</time>
      </trkpt>
      <trkpt lat="48.42444" lon="-0.31126">
        <ele>247.5</ele>
        <time>2012-08-11T08:35:13Z</time>
      </trkpt>
      <trkpt lat="48.42429" lon="-0.3113">
        <ele>247</ele>
        <time>2012-08-11T08:35:17Z</time>
      </trkpt>
      <trkpt lat="48.42416" lon="-0.31139">
        <ele>247</ele>
        <time>2012-08-11T08:35:21Z</time>
      </trkpt>
      <trkpt lat="48.42405" lon="-0.31152">
        <ele>246.5</ele>
        <time>2012-08-11T08:35:25Z</time>
      </trkpt>
      <trkpt lat="48.424" lon="-0.31159">
        <ele>246.5</ele>
        <time>2012-08-11T08:35:27Z</time>
      </trkpt>
      <trkpt lat="48.42391" lon="-0.31173">
        <ele>246.5</ele>
        <time>2012-08-11T08:35:31Z</time>
      </trkpt>
      <trkpt lat="48.42387" lon="-0.31179">
        <ele>246.5</ele>
        <time>2012-08-11T08:35:33Z</time>
      </trkpt>
      <trkpt lat="48.42377" lon="-0.3119">
        <ele>246</ele>
        <time>2012-08-11T08:35:37Z</time>
      </trkpt>
      <trkpt lat="48.42372" lon="-0.31194">
        <ele>245.5</ele>
        <time>2012-08-11T08:35:39Z</time>
      </trkpt>
      <trkpt lat="48.42362" lon="-0.31203">
        <ele>245</ele>
        <time>2012-08-11T08:35:43Z</time>
      </trkpt>
      <trkpt lat="48.42356" lon="-0.31207">
        <ele>244.5</ele>
        <time>2012-08-11T08:35:45Z</time>
      </trkpt>
      <trkpt lat="48.42343" lon="-0.31216">
        <ele>244</ele>
        <time>2012-08-11T08:35:49Z</time>
      </trkpt>
      <trkpt lat="48.42335" lon="-0.3122">
        <ele>243.5</ele>
        <time>2012-08-11T08:35:51Z</time>
      </trkpt>
      <trkpt lat="48.42319" lon="-0.31231">
        <ele>243</ele>
        <time>2012-08-11T08:35:55Z</time>
      </trkpt>
      <trkpt lat="48.42301" lon="-0.31239">
        <ele>242.5</ele>
        <time>2012-08-11T08:35:59Z</time>
      </trkpt>
      <trkpt lat="48.42288" lon="-0.31237">
        <ele>242.5</ele>
        <time>2012-08-11T08:36:03Z</time>
      </trkpt>
      <trkpt lat="48.42278" lon="-0.31235">
        <ele>243.5</ele>
        <time>2012-08-11T08:36:09Z</time>
      </trkpt>
      <trkpt lat="48.42261" lon="-0.31232">
        <ele>243.5</ele>
        <time>2012-08-11T08:36:15Z</time>
      </trkpt>
      <trkpt lat="48.42254" lon="-0.31231">
        <ele>243</ele>
        <time>2012-08-11T08:36:17Z</time>
      </trkpt>
      <trkpt lat="48.42242" lon="-0.3123">
        <ele>243</ele>
        <time>2012-08-11T08:36:21Z</time>
      </trkpt>
      <trkpt lat="48.42235" lon="-0.31229">
        <ele>243.5</ele>
        <time>2012-08-11T08:36:23Z</time>
      </trkpt>
      <trkpt lat="48.42221" lon="-0.31227">
        <ele>243.5</ele>
        <time>2012-08-11T08:36:27Z</time>
      </trkpt>
      <trkpt lat="48.42214" lon="-0.31226">
        <ele>243.5</ele>
        <time>2012-08-11T08:36:29Z</time>
      </trkpt>
      <trkpt lat="48.42198" lon="-0.31227">
        <ele>243.5</ele>
        <time>2012-08-11T08:36:33Z</time>
      </trkpt>
      <trkpt lat="48.42191" lon="-0.31227">
        <ele>243.5</ele>
        <time>2012-08-11T08:36:35Z</time>
      </trkpt>
      <trkpt lat="48.42176" lon="-0.3123">
        <ele>243.5</ele>
        <time>2012-08-11T08:36:39Z</time>
      </trkpt>
      <trkpt lat="48.42169" lon="-0.31232">
        <ele>243.5</ele>
        <time>2012-08-11T08:36:41Z</time>
      </trkpt>
      <trkpt lat="48.42154" lon="-0.31237">
        <ele>242.5</ele>
        <time>2012-08-11T08:36:45Z</time>
      </trkpt>
      <trkpt lat="48.42138" lon="-0.31241">
        <ele>242.5</ele>
        <time>2012-08-11T08:36:49Z</time>
      </trkpt>
      <trkpt lat="48.42123" lon="-0.31246">
        <ele>242.5</ele>
        <time>2012-08-11T08:36:53Z</time>
      </trkpt>
      <trkpt lat="48.42115" lon="-0.31249">
        <ele>242</ele>
        <time>2012-08-11T08:36:55Z</time>
      </trkpt>
      <trkpt lat="48.421" lon="-0.31254">
        <ele>242.5</ele>
        <time>2012-08-11T08:36:59Z</time>
      </trkpt>
      <trkpt lat="48.42088" lon="-0.31259">
        <ele>242.5</ele>
        <time>2012-08-11T08:37:03Z</time>
      </trkpt>
      <trkpt lat="48.42077" lon="-0.31258">
        <ele>244</ele>
        <time>2012-08-11T08:37:07Z</time>
      </trkpt>
      <trkpt lat="48.42072" lon="-0.31255">
        <ele>244.5</ele>
        <time>2012-08-11T08:37:09Z</time>
      </trkpt>
      <trkpt lat="48.42065" lon="-0.31246">
        <ele>245.5</ele>
        <time>2012-08-11T08:37:13Z</time>
      </trkpt>
      <trkpt lat="48.42057" lon="-0.31246">
        <ele>245</ele>
        <time>2012-08-11T08:37:17Z</time>
      </trkpt>
      <trkpt lat="48.42049" lon="-0.3125">
        <ele>245</ele>
        <time>2012-08-11T08:37:21Z</time>
      </trkpt>
      <trkpt lat="48.42046" lon="-0.31251">
        <ele>244</ele>
        <time>2012-08-11T08:37:25Z</time>
      </trkpt>
      <trkpt lat="48.42046" lon="-0.31251">
        <ele>244</ele>
        <time>2012-08-11T08:37:41Z</time>
      </trkpt>
      <trkpt lat="48.42046" lon="-0.31251">
        <ele>244</ele>
        <time>2012-08-11T08:37:57Z</time>
      </trkpt>
      <trkpt lat="48.42046" lon="-0.31251">
        <ele>244</ele>
        <time>2012-08-11T08:38:13Z</time>
      </trkpt>
      <trkpt lat="48.42046" lon="-0.31251">
        <ele>244</ele>
        <time>2012-08-11T08:38:29Z</time>
      </trkpt>
      <trkpt lat="48.42046" lon="-0.31251">
        <ele>244</ele>
        <time>2012-08-11T08:38:45Z</time>
      </trkpt>
      <trkpt lat="48.42046" lon="-0.31251">
        <ele>244</ele>
        <time>2012-08-11T08:39:01Z</time>
      </trkpt>
      <trkpt lat="48.42046" lon="-0.31251">
        <ele>244</ele>
        <time>2012-08-11T08:39:17Z</time>
      </trkpt>
      <trkpt lat="48.42046" lon="-0.31251">
        <ele>244</ele>
        <time>2012-08-11T08:39:33Z</time>
      </trkpt>
      <trkpt lat="48.42046" lon="-0.31251">
        <ele>244</ele>
        <time>2012-08-11T08:39:49Z</time>
      </trkpt>
      <trkpt lat="48.42046" lon="-0.31251">
        <ele>244</ele>
        <time>2012-08-11T08:40:05Z</time>
      </trkpt>
      <trkpt lat="48.42046" lon="-0.31251">
        <ele>244</ele>
        <time>2012-08-11T08:40:21Z</time>
      </trkpt>
      <trkpt lat="48.42046" lon="-0.31251">
        <ele>244</ele>
        <time>2012-08-11T08:40:37Z</time>
      </trkpt>
      <trkpt lat="48.42046" lon="-0.31251">
        <ele>244</ele>
        <time>2012-08-11T08:40:53Z</time>
      </trkpt>
      <trkpt lat="48.42046" lon="-0.31251">
        <ele>244</ele>
        <time>2012-08-11T08:41:09Z</time>
      </trkpt>
      <trkpt lat="48.42046" lon="-0.31251">
        <ele>244</ele>
        <time>2012-08-11T08:41:25Z</time>
      </trkpt>
      <trkpt lat="48.42046" lon="-0.31251">
        <ele>244</ele>
        <time>2012-08-11T08:41:41Z</time>
      </trkpt>
      <trkpt lat="48.42046" lon="-0.31251">
        <ele>244</ele>
        <time>2012-08-11T08:41:57Z</time>
      </trkpt>
      <trkpt lat="48.42046" lon="-0.31251">
        <ele>244</ele>
        <time>2012-08-11T08:42:13Z</time>
      </trkpt>
      <trkpt lat="48.42046" lon="-0.31251">
        <ele>244</ele>
        <time>2012-08-11T08:42:29Z</time>
      </trkpt>
      <trkpt lat="48.42041" lon="-0.31247">
        <ele>244</ele>
        <time>2012-08-11T08:42:37Z</time>
      </trkpt>
      <trkpt lat="48.42036" lon="-0.3125">
        <ele>244.5</ele>
        <time>2012-08-11T08:42:43Z</time>
      </trkpt>
      <trkpt lat="48.42025" lon="-0.31255">
        <ele>244.5</ele>
        <time>2012-08-11T08:42:49Z</time>
      </trkpt>
      <trkpt lat="48.4202" lon="-0.31257">
        <ele>244.5</ele>
        <time>2012-08-11T08:42:51Z</time>
      </trkpt>
      <trkpt lat="48.42014" lon="-0.31259">
        <ele>244.5</ele>
        <time>2012-08-11T08:42:53Z</time>
      </trkpt>
      <trkpt lat="48.42008" lon="-0.3126">
        <ele>244</ele>
        <time>2012-08-11T08:42:55Z</time>
      </trkpt>
      <trkpt lat="48.42001" lon="-0.3126">
        <ele>244</ele>
        <time>2012-08-11T08:42:57Z</time>
      </trkpt>
      <trkpt lat="48.41986" lon="-0.31261">
        <ele>243.5</ele>
        <time>2012-08-11T08:43:01Z</time>
      </trkpt>
      <trkpt lat="48.41979" lon="-0.31259">
        <ele>243</ele>
        <time>2012-08-11T08:43:03Z</time>
      </trkpt>
      <trkpt lat="48.41964" lon="-0.31261">
        <ele>244</ele>
        <time>2012-08-11T08:43:07Z</time>
      </trkpt>
      <trkpt lat="48.41958" lon="-0.31261">
        <ele>244.5</ele>
        <time>2012-08-11T08:43:09Z</time>
      </trkpt>
      <trkpt lat="48.41946" lon="-0.3126">
        <ele>244.5</ele>
        <time>2012-08-11T08:43:13Z</time>
      </trkpt>
      <trkpt lat="48.4194" lon="-0.31259">
        <ele>245</ele>
        <time>2012-08-11T08:43:15Z</time>
      </trkpt>
      <trkpt lat="48.41928" lon="-0.31258">
        <ele>245</ele>
        <time>2012-08-11T08:43:19Z</time>
      </trkpt>
      <trkpt lat="48.4192" lon="-0.31257">
        <ele>245.5</ele>
        <time>2012-08-11T08:43:21Z</time>
      </trkpt>
      <trkpt lat="48.41905" lon="-0.31254">
        <ele>245</ele>
        <time>2012-08-11T08:43:25Z</time>
      </trkpt>
      <trkpt lat="48.41898" lon="-0.31252">
        <ele>245</ele>
        <time>2012-08-11T08:43:27Z</time>
      </trkpt>
      <trkpt lat="48.41882" lon="-0.31249">
        <ele>245.5</ele>
        <time>2012-08-11T08:43:31Z</time>
      </trkpt>
      <trkpt lat="48.41868" lon="-0.31246">
        <ele>244</ele>
        <time>2012-08-11T08:43:35Z</time>
      </trkpt>
      <trkpt lat="48.41854" lon="-0.31242">
        <ele>243.5</ele>
        <time>2012-08-11T08:43:39Z</time>
      </trkpt>
      <trkpt lat="48.41847" lon="-0.3124">
        <ele>243.5</ele>
        <time>2012-08-11T08:43:41Z</time>
      </trkpt>
      <trkpt lat="48.41832" lon="-0.31236">
        <ele>244</ele>
        <time>2012-08-11T08:43:45Z</time>
      </trkpt>
      <trkpt lat="48.41817" lon="-0.31233">
        <ele>244.5</ele>
        <time>2012-08-11T08:43:49Z</time>
      </trkpt>
      <trkpt lat="48.41801" lon="-0.31231">
        <ele>245.5</ele>
        <time>2012-08-11T08:43:53Z</time>
      </trkpt>
      <trkpt lat="48.41784" lon="-0.31226">
        <ele>244.5</ele>
        <time>2012-08-11T08:43:57Z</time>
      </trkpt>
      <trkpt lat="48.41771" lon="-0.31227">
        <ele>239</ele>
        <time>2012-08-11T08:44:01Z</time>
      </trkpt>
      <trkpt lat="48.41755" lon="-0.31229">
        <ele>236</ele>
        <time>2012-08-11T08:44:05Z</time>
      </trkpt>
      <trkpt lat="48.41747" lon="-0.31223">
        <ele>236</ele>
        <time>2012-08-11T08:44:07Z</time>
      </trkpt>
      <trkpt lat="48.41724" lon="-0.31218">
        <ele>234.5</ele>
        <time>2012-08-11T08:44:13Z</time>
      </trkpt>
      <trkpt lat="48.41708" lon="-0.3121">
        <ele>231</ele>
        <time>2012-08-11T08:44:17Z</time>
      </trkpt>
      <trkpt lat="48.41691" lon="-0.31204">
        <ele>229</ele>
        <time>2012-08-11T08:44:21Z</time>
      </trkpt>
      <trkpt lat="48.41666" lon="-0.31193">
        <ele>226</ele>
        <time>2012-08-11T08:44:27Z</time>
      </trkpt>
      <trkpt lat="48.41638" lon="-0.3118">
        <ele>224.5</ele>
        <time>2012-08-11T08:44:33Z</time>
      </trkpt>
      <trkpt lat="48.41619" lon="-0.31181">
        <ele>223</ele>
        <time>2012-08-11T08:44:37Z</time>
      </trkpt>
      <trkpt lat="48.41592" lon="-0.31177">
        <ele>218</ele>
        <time>2012-08-11T08:44:43Z</time>
      </trkpt>
      <trkpt lat="48.41573" lon="-0.31178">
        <ele>219.5</ele>
        <time>2012-08-11T08:44:47Z</time>
      </trkpt>
      <trkpt lat="48.41553" lon="-0.31177">
        <ele>222.5</ele>
        <time>2012-08-11T08:44:51Z</time>
      </trkpt>
      <trkpt lat="48.41531" lon="-0.31177">
        <ele>234.5</ele>
        <time>2012-08-11T08:44:55Z</time>
      </trkpt>
      <trkpt lat="48.41514" lon="-0.31174">
        <ele>238</ele>
        <time>2012-08-11T08:44:59Z</time>
      </trkpt>
      <trkpt lat="48.41496" lon="-0.3117">
        <ele>236.5</ele>
        <time>2012-08-11T08:45:03Z</time>
      </trkpt>
      <trkpt lat="48.41478" lon="-0.31168">
        <ele>238.5</ele>
        <time>2012-08-11T08:45:07Z</time>
      </trkpt>
      <trkpt lat="48.41466" lon="-0.31174">
        <ele>240</ele>
        <time>2012-08-11T08:45:11Z</time>
      </trkpt>
      <trkpt lat="48.41453" lon="-0.31181">
        <ele>239</ele>
        <time>2012-08-11T08:45:15Z</time>
      </trkpt>
      <trkpt lat="48.41447" lon="-0.31186">
        <ele>239</ele>
        <time>2012-08-11T08:45:17Z</time>
      </trkpt>
      <trkpt lat="48.41433" lon="-0.31196">
        <ele>238.5</ele>
        <time>2012-08-11T08:45:21Z</time>
      </trkpt>
      <trkpt lat="48.41425" lon="-0.31196">
        <ele>239</ele>
        <time>2012-08-11T08:45:23Z</time>
      </trkpt>
      <trkpt lat="48.41411" lon="-0.31189">
        <ele>236.5</ele>
        <time>2012-08-11T08:45:27Z</time>
      </trkpt>
      <trkpt lat="48.41396" lon="-0.31189">
        <ele>236.5</ele>
        <time>2012-08-11T08:45:31Z</time>
      </trkpt>
      <trkpt lat="48.41386" lon="-0.31186">
        <ele>236</ele>
        <time>2012-08-11T08:45:35Z</time>
      </trkpt>
      <trkpt lat="48.4138" lon="-0.31171">
        <ele>236.5</ele>
        <time>2012-08-11T08:45:41Z</time>
      </trkpt>
      <trkpt lat="48.41375" lon="-0.31171">
        <ele>236</ele>
        <time>2012-08-11T08:45:49Z</time>
      </trkpt>
      <trkpt lat="48.4137" lon="-0.31171">
        <ele>236.5</ele>
        <time>2012-08-11T08:45:51Z</time>
      </trkpt>
      <trkpt lat="48.41359" lon="-0.31177">
        <ele>236.5</ele>
        <time>2012-08-11T08:45:55Z</time>
      </trkpt>
      <trkpt lat="48.41353" lon="-0.3118">
        <ele>236.5</ele>
        <time>2012-08-11T08:45:57Z</time>
      </trkpt>
      <trkpt lat="48.41346" lon="-0.3118">
        <ele>236</ele>
        <time>2012-08-11T08:45:59Z</time>
      </trkpt>
      <trkpt lat="48.41339" lon="-0.3118">
        <ele>236</ele>
        <time>2012-08-11T08:46:01Z</time>
      </trkpt>
      <trkpt lat="48.41332" lon="-0.31183">
        <ele>235</ele>
        <time>2012-08-11T08:46:03Z</time>
      </trkpt>
      <trkpt lat="48.41324" lon="-0.31186">
        <ele>235</ele>
        <time>2012-08-11T08:46:05Z</time>
      </trkpt>
      <trkpt lat="48.41308" lon="-0.31193">
        <ele>233.5</ele>
        <time>2012-08-11T08:46:09Z</time>
      </trkpt>
      <trkpt lat="48.413" lon="-0.31197">
        <ele>232.5</ele>
        <time>2012-08-11T08:46:11Z</time>
      </trkpt>
      <trkpt lat="48.41284" lon="-0.31204">
        <ele>232</ele>
        <time>2012-08-11T08:46:15Z</time>
      </trkpt>
      <trkpt lat="48.41268" lon="-0.31211">
        <ele>230.5</ele>
        <time>2012-08-11T08:46:19Z</time>
      </trkpt>
      <trkpt lat="48.41251" lon="-0.31219">
        <ele>230</ele>
        <time>2012-08-11T08:46:23Z</time>
      </trkpt>
      <trkpt lat="48.41234" lon="-0.31226">
        <ele>231</ele>
        <time>2012-08-11T08:46:27Z</time>
      </trkpt>
      <trkpt lat="48.41219" lon="-0.31229">
        <ele>231</ele>
        <time>2012-08-11T08:46:31Z</time>
      </trkpt>
      <trkpt lat="48.41203" lon="-0.31235">
        <ele>231.5</ele>
        <time>2012-08-11T08:46:35Z</time>
      </trkpt>
      <trkpt lat="48.41187" lon="-0.31242">
        <ele>232.5</ele>
        <time>2012-08-11T08:46:39Z</time>
      </trkpt>
      <trkpt lat="48.41171" lon="-0.31251">
        <ele>233.5</ele>
        <time>2012-08-11T08:46:43Z</time>
      </trkpt>
      <trkpt lat="48.41153" lon="-0.31259">
        <ele>234</ele>
        <time>2012-08-11T08:46:47Z</time>
      </trkpt>
      <trkpt lat="48.41136" lon="-0.31264">
        <ele>233</ele>
        <time>2012-08-11T08:46:51Z</time>
      </trkpt>
      <trkpt lat="48.41118" lon="-0.31273">
        <ele>232.5</ele>
        <time>2012-08-11T08:46:55Z</time>
      </trkpt>
      <trkpt lat="48.411" lon="-0.31282">
        <ele>231.5</ele>
        <time>2012-08-11T08:46:59Z</time>
      </trkpt>
      <trkpt lat="48.41092" lon="-0.31285">
        <ele>231.5</ele>
        <time>2012-08-11T08:47:03Z</time>
      </trkpt>
      <trkpt lat="48.41092" lon="-0.31285">
        <ele>231.5</ele>
        <time>2012-08-11T08:47:19Z</time>
      </trkpt>
      <trkpt lat="48.41092" lon="-0.31285">
        <ele>231.5</ele>
        <time>2012-08-11T08:47:35Z</time>
      </trkpt>
      <trkpt lat="48.41092" lon="-0.31285">
        <ele>231.5</ele>
        <time>2012-08-11T08:48:01Z</time>
      </trkpt>
      <trkpt lat="48.41092" lon="-0.31285">
        <ele>231.5</ele>
        <time>2012-08-11T08:48:19Z</time>
      </trkpt>
      <trkpt lat="48.41092" lon="-0.31285">
        <ele>231.5</ele>
        <time>2012-08-11T08:48:37Z</time>
      </trkpt>
      <trkpt lat="48.41092" lon="-0.31285">
        <ele>231.5</ele>
        <time>2012-08-11T08:48:55Z</time>
      </trkpt>
      <trkpt lat="48.4108" lon="-0.31287">
        <ele>231</ele>
        <time>2012-08-11T08:48:57Z</time>
      </trkpt>
      <trkpt lat="48.41072" lon="-0.31292">
        <ele>231.5</ele>
        <time>2012-08-11T08:49:01Z</time>
      </trkpt>
      <trkpt lat="48.41059" lon="-0.31298">
        <ele>231.5</ele>
        <time>2012-08-11T08:49:05Z</time>
      </trkpt>
      <trkpt lat="48.41053" lon="-0.31301">
        <ele>231</ele>
        <time>2012-08-11T08:49:07Z</time>
      </trkpt>
      <trkpt lat="48.41038" lon="-0.31308">
        <ele>231.5</ele>
        <time>2012-08-11T08:49:11Z</time>
      </trkpt>
      <trkpt lat="48.41031" lon="-0.31311">
        <ele>231.5</ele>
        <time>2012-08-11T08:49:13Z</time>
      </trkpt>
      <trkpt lat="48.41016" lon="-0.31317">
        <ele>231</ele>
        <time>2012-08-11T08:49:17Z</time>
      </trkpt>
      <trkpt lat="48.41001" lon="-0.31322">
        <ele>231.5</ele>
        <time>2012-08-11T08:49:21Z</time>
      </trkpt>
      <trkpt lat="48.40993" lon="-0.31326">
        <ele>232</ele>
        <time>2012-08-11T08:49:23Z</time>
      </trkpt>
      <trkpt lat="48.40978" lon="-0.31334">
        <ele>231.5</ele>
        <time>2012-08-11T08:49:27Z</time>
      </trkpt>
      <trkpt lat="48.40964" lon="-0.3134">
        <ele>232</ele>
        <time>2012-08-11T08:49:31Z</time>
      </trkpt>
      <trkpt lat="48.40959" lon="-0.31343">
        <ele>230.5</ele>
        <time>2012-08-11T08:49:35Z</time>
      </trkpt>
      <trkpt lat="48.40959" lon="-0.31343">
        <ele>230.5</ele>
        <time>2012-08-11T08:49:51Z</time>
      </trkpt>
      <trkpt lat="48.40959" lon="-0.31343">
        <ele>230.5</ele>
        <time>2012-08-11T08:50:08Z</time>
      </trkpt>
      <trkpt lat="48.40959" lon="-0.31343">
        <ele>230.5</ele>
        <time>2012-08-11T08:50:23Z</time>
      </trkpt>
      <trkpt lat="48.40959" lon="-0.31343">
        <ele>230.5</ele>
        <time>2012-08-11T08:50:39Z</time>
      </trkpt>
      <trkpt lat="48.40959" lon="-0.31343">
        <ele>230.5</ele>
        <time>2012-08-11T08:50:56Z</time>
      </trkpt>
      <trkpt lat="48.40954" lon="-0.31344">
        <ele>229.5</ele>
        <time>2012-08-11T08:51:01Z</time>
      </trkpt>
      <trkpt lat="48.40946" lon="-0.31348">
        <ele>228</ele>
        <time>2012-08-11T08:51:05Z</time>
      </trkpt>
      <trkpt lat="48.40928" lon="-0.31357">
        <ele>227</ele>
        <time>2012-08-11T08:51:11Z</time>
      </trkpt>
      <trkpt lat="48.40921" lon="-0.3136">
        <ele>227.5</ele>
        <time>2012-08-11T08:51:13Z</time>
      </trkpt>
      <trkpt lat="48.40913" lon="-0.31364">
        <ele>227.5</ele>
        <time>2012-08-11T08:51:15Z</time>
      </trkpt>
      <trkpt lat="48.40897" lon="-0.31372">
        <ele>228.5</ele>
        <time>2012-08-11T08:51:19Z</time>
      </trkpt>
      <trkpt lat="48.40889" lon="-0.31375">
        <ele>228</ele>
        <time>2012-08-11T08:51:21Z</time>
      </trkpt>
      <trkpt lat="48.40875" lon="-0.31382">
        <ele>225.5</ele>
        <time>2012-08-11T08:51:25Z</time>
      </trkpt>
      <trkpt lat="48.40859" lon="-0.31391">
        <ele>226.5</ele>
        <time>2012-08-11T08:51:29Z</time>
      </trkpt>
      <trkpt lat="48.40844" lon="-0.31398">
        <ele>224</ele>
        <time>2012-08-11T08:51:33Z</time>
      </trkpt>
      <trkpt lat="48.40826" lon="-0.31405">
        <ele>227</ele>
        <time>2012-08-11T08:51:37Z</time>
      </trkpt>
      <trkpt lat="48.4081" lon="-0.31413">
        <ele>225</ele>
        <time>2012-08-11T08:51:41Z</time>
      </trkpt>
      <trkpt lat="48.40791" lon="-0.3142">
        <ele>226.5</ele>
        <time>2012-08-11T08:51:45Z</time>
      </trkpt>
      <trkpt lat="48.40773" lon="-0.31427">
        <ele>228</ele>
        <time>2012-08-11T08:51:49Z</time>
      </trkpt>
      <trkpt lat="48.40753" lon="-0.31434">
        <ele>230.5</ele>
        <time>2012-08-11T08:51:53Z</time>
      </trkpt>
      <trkpt lat="48.40735" lon="-0.31442">
        <ele>231</ele>
        <time>2012-08-11T08:51:57Z</time>
      </trkpt>
      <trkpt lat="48.40716" lon="-0.3145">
        <ele>231.5</ele>
        <time>2012-08-11T08:52:01Z</time>
      </trkpt>
      <trkpt lat="48.407" lon="-0.31459">
        <ele>231.5</ele>
        <time>2012-08-11T08:52:05Z</time>
      </trkpt>
      <trkpt lat="48.40683" lon="-0.31466">
        <ele>230</ele>
        <time>2012-08-11T08:52:09Z</time>
      </trkpt>
      <trkpt lat="48.40674" lon="-0.31468">
        <ele>228</ele>
        <time>2012-08-11T08:52:11Z</time>
      </trkpt>
      <trkpt lat="48.40658" lon="-0.31475">
        <ele>229</ele>
        <time>2012-08-11T08:52:15Z</time>
      </trkpt>
      <trkpt lat="48.40643" lon="-0.31484">
        <ele>226.5</ele>
        <time>2012-08-11T08:52:19Z</time>
      </trkpt>
      <trkpt lat="48.40634" lon="-0.31487">
        <ele>226.5</ele>
        <time>2012-08-11T08:52:21Z</time>
      </trkpt>
      <trkpt lat="48.40616" lon="-0.31494">
        <ele>229</ele>
        <time>2012-08-11T08:52:25Z</time>
      </trkpt>
      <trkpt lat="48.40597" lon="-0.315">
        <ele>230</ele>
        <time>2012-08-11T08:52:29Z</time>
      </trkpt>
      <trkpt lat="48.40579" lon="-0.31507">
        <ele>230.5</ele>
        <time>2012-08-11T08:52:33Z</time>
      </trkpt>
      <trkpt lat="48.40563" lon="-0.31515">
        <ele>232</ele>
        <time>2012-08-11T08:52:37Z</time>
      </trkpt>
      <trkpt lat="48.4055" lon="-0.31521">
        <ele>232.5</ele>
        <time>2012-08-11T08:52:41Z</time>
      </trkpt>
      <trkpt lat="48.40545" lon="-0.31525">
        <ele>233</ele>
        <time>2012-08-11T08:52:43Z</time>
      </trkpt>
      <trkpt lat="48.40535" lon="-0.31529">
        <ele>232.5</ele>
        <time>2012-08-11T08:52:47Z</time>
      </trkpt>
      <trkpt lat="48.4053" lon="-0.3153">
        <ele>232.5</ele>
        <time>2012-08-11T08:52:49Z</time>
      </trkpt>
      <trkpt lat="48.40521" lon="-0.31537">
        <ele>230.5</ele>
        <time>2012-08-11T08:52:53Z</time>
      </trkpt>
      <trkpt lat="48.40516" lon="-0.31541">
        <ele>230.5</ele>
        <time>2012-08-11T08:52:55Z</time>
      </trkpt>
      <trkpt lat="48.4051" lon="-0.31544">
        <ele>230</ele>
        <time>2012-08-11T08:52:57Z</time>
      </trkpt>
      <trkpt lat="48.40497" lon="-0.31553">
        <ele>230</ele>
        <time>2012-08-11T08:53:01Z</time>
      </trkpt>
      <trkpt lat="48.4049" lon="-0.31558">
        <ele>229.5</ele>
        <time>2012-08-11T08:53:03Z</time>
      </trkpt>
      <trkpt lat="48.40484" lon="-0.31563">
        <ele>229</ele>
        <time>2012-08-11T08:53:05Z</time>
      </trkpt>
      <trkpt lat="48.4047" lon="-0.31574">
        <ele>229.5</ele>
        <time>2012-08-11T08:53:09Z</time>
      </trkpt>
      <trkpt lat="48.40457" lon="-0.31588">
        <ele>230</ele>
        <time>2012-08-11T08:53:13Z</time>
      </trkpt>
      <trkpt lat="48.40451" lon="-0.31594">
        <ele>229.5</ele>
        <time>2012-08-11T08:53:15Z</time>
      </trkpt>
      <trkpt lat="48.40441" lon="-0.31604">
        <ele>229.5</ele>
        <time>2012-08-11T08:53:19Z</time>
      </trkpt>
      <trkpt lat="48.40436" lon="-0.3161">
        <ele>230</ele>
        <time>2012-08-11T08:53:21Z</time>
      </trkpt>
      <trkpt lat="48.40424" lon="-0.31625">
        <ele>232.5</ele>
        <time>2012-08-11T08:53:25Z</time>
      </trkpt>
      <trkpt lat="48.40417" lon="-0.31632">
        <ele>233</ele>
        <time>2012-08-11T08:53:27Z</time>
      </trkpt>
      <trkpt lat="48.40404" lon="-0.31646">
        <ele>236.5</ele>
        <time>2012-08-11T08:53:31Z</time>
      </trkpt>
      <trkpt lat="48.40398" lon="-0.31654">
        <ele>236.5</ele>
        <time>2012-08-11T08:53:33Z</time>
      </trkpt>
      <trkpt lat="48.40386" lon="-0.31669">
        <ele>235</ele>
        <time>2012-08-11T08:53:37Z</time>
      </trkpt>
      <trkpt lat="48.4038" lon="-0.31676">
        <ele>235</ele>
        <time>2012-08-11T08:53:39Z</time>
      </trkpt>
      <trkpt lat="48.40371" lon="-0.31691">
        <ele>233.5</ele>
        <time>2012-08-11T08:53:43Z</time>
      </trkpt>
      <trkpt lat="48.40358" lon="-0.31706">
        <ele>236</ele>
        <time>2012-08-11T08:53:47Z</time>
      </trkpt>
      <trkpt lat="48.40353" lon="-0.31714">
        <ele>236</ele>
        <time>2012-08-11T08:53:49Z</time>
      </trkpt>
      <trkpt lat="48.4034" lon="-0.31731">
        <ele>237.5</ele>
        <time>2012-08-11T08:53:53Z</time>
      </trkpt>
      <trkpt lat="48.40334" lon="-0.3174">
        <ele>238.5</ele>
        <time>2012-08-11T08:53:55Z</time>
      </trkpt>
      <trkpt lat="48.40322" lon="-0.31756">
        <ele>240</ele>
        <time>2012-08-11T08:53:59Z</time>
      </trkpt>
      <trkpt lat="48.40309" lon="-0.3177">
        <ele>240.5</ele>
        <time>2012-08-11T08:54:03Z</time>
      </trkpt>
      <trkpt lat="48.40303" lon="-0.31777">
        <ele>238.5</ele>
        <time>2012-08-11T08:54:05Z</time>
      </trkpt>
      <trkpt lat="48.40292" lon="-0.31794">
        <ele>239</ele>
        <time>2012-08-11T08:54:09Z</time>
      </trkpt>
      <trkpt lat="48.40279" lon="-0.31809">
        <ele>239</ele>
        <time>2012-08-11T08:54:13Z</time>
      </trkpt>
      <trkpt lat="48.4026" lon="-0.31832">
        <ele>237</ele>
        <time>2012-08-11T08:54:19Z</time>
      </trkpt>
      <trkpt lat="48.40248" lon="-0.31846">
        <ele>235</ele>
        <time>2012-08-11T08:54:23Z</time>
      </trkpt>
      <trkpt lat="48.40239" lon="-0.31856">
        <ele>234</ele>
        <time>2012-08-11T08:54:27Z</time>
      </trkpt>
      <trkpt lat="48.40235" lon="-0.31862">
        <ele>232.5</ele>
        <time>2012-08-11T08:54:29Z</time>
      </trkpt>
      <trkpt lat="48.40228" lon="-0.31873">
        <ele>231</ele>
        <time>2012-08-11T08:54:33Z</time>
      </trkpt>
      <trkpt lat="48.40225" lon="-0.31878">
        <ele>231.5</ele>
        <time>2012-08-11T08:54:35Z</time>
      </trkpt>
      <trkpt lat="48.40216" lon="-0.31892">
        <ele>233.5</ele>
        <time>2012-08-11T08:54:41Z</time>
      </trkpt>
      <trkpt lat="48.40213" lon="-0.31896">
        <ele>232.5</ele>
        <time>2012-08-11T08:54:43Z</time>
      </trkpt>
      <trkpt lat="48.40205" lon="-0.31907">
        <ele>236.5</ele>
        <time>2012-08-11T08:54:47Z</time>
      </trkpt>
      <trkpt lat="48.40202" lon="-0.31911">
        <ele>235.5</ele>
        <time>2012-08-11T08:54:49Z</time>
      </trkpt>
      <trkpt lat="48.402" lon="-0.31915">
        <ele>234.5</ele>
        <time>2012-08-11T08:54:51Z</time>
      </trkpt>
      <trkpt lat="48.402" lon="-0.31915">
        <ele>234.5</ele>
        <time>2012-08-11T08:55:25Z</time>
      </trkpt>
      <trkpt lat="48.402" lon="-0.31915">
        <ele>234.5</ele>
        <time>2012-08-11T08:55:43Z</time>
      </trkpt>
      <trkpt lat="48.40195" lon="-0.31922">
        <ele>234</ele>
        <time>2012-08-11T08:55:45Z</time>
      </trkpt>
      <trkpt lat="48.4019" lon="-0.31924">
        <ele>236.5</ele>
        <time>2012-08-11T08:55:59Z</time>
      </trkpt>
      <trkpt lat="48.40185" lon="-0.3193">
        <ele>234.5</ele>
        <time>2012-08-11T08:56:03Z</time>
      </trkpt>
      <trkpt lat="48.40179" lon="-0.31939">
        <ele>233.5</ele>
        <time>2012-08-11T08:56:07Z</time>
      </trkpt>
      <trkpt lat="48.40176" lon="-0.31944">
        <ele>235</ele>
        <time>2012-08-11T08:56:09Z</time>
      </trkpt>
      <trkpt lat="48.40171" lon="-0.31949">
        <ele>235</ele>
        <time>2012-08-11T08:56:11Z</time>
      </trkpt>
      <trkpt lat="48.40167" lon="-0.31955">
        <ele>233.5</ele>
        <time>2012-08-11T08:56:13Z</time>
      </trkpt>
      <trkpt lat="48.40163" lon="-0.31962">
        <ele>234</ele>
        <time>2012-08-11T08:56:15Z</time>
      </trkpt>
      <trkpt lat="48.40152" lon="-0.31976">
        <ele>234</ele>
        <time>2012-08-11T08:56:19Z</time>
      </trkpt>
      <trkpt lat="48.40136" lon="-0.31996">
        <ele>234.5</ele>
        <time>2012-08-11T08:56:25Z</time>
      </trkpt>
      <trkpt lat="48.40131" lon="-0.32003">
        <ele>234.5</ele>
        <time>2012-08-11T08:56:27Z</time>
      </trkpt>
      <trkpt lat="48.40118" lon="-0.32018">
        <ele>234.5</ele>
        <time>2012-08-11T08:56:31Z</time>
      </trkpt>
      <trkpt lat="48.40112" lon="-0.32025">
        <ele>235.5</ele>
        <time>2012-08-11T08:56:33Z</time>
      </trkpt>
      <trkpt lat="48.40101" lon="-0.3204">
        <ele>235</ele>
        <time>2012-08-11T08:56:37Z</time>
      </trkpt>
      <trkpt lat="48.40095" lon="-0.32048">
        <ele>237</ele>
        <time>2012-08-11T08:56:39Z</time>
      </trkpt>
      <trkpt lat="48.40084" lon="-0.32062">
        <ele>240</ele>
        <time>2012-08-11T08:56:43Z</time>
      </trkpt>
      <trkpt lat="48.40078" lon="-0.32068">
        <ele>242</ele>
        <time>2012-08-11T08:56:45Z</time>
      </trkpt>
      <trkpt lat="48.4007" lon="-0.32082">
        <ele>246</ele>
        <time>2012-08-11T08:56:49Z</time>
      </trkpt>
      <trkpt lat="48.40065" lon="-0.32087">
        <ele>246</ele>
        <time>2012-08-11T08:56:51Z</time>
      </trkpt>
      <trkpt lat="48.40057" lon="-0.32098">
        <ele>245</ele>
        <time>2012-08-11T08:56:55Z</time>
      </trkpt>
      <trkpt lat="48.40055" lon="-0.32101">
        <ele>244.5</ele>
        <time>2012-08-11T08:56:57Z</time>
      </trkpt>
      <trkpt lat="48.40052" lon="-0.32106">
        <ele>242.5</ele>
        <time>2012-08-11T08:57:09Z</time>
      </trkpt>
      <trkpt lat="48.40046" lon="-0.32113">
        <ele>242</ele>
        <time>2012-08-11T08:57:13Z</time>
      </trkpt>
      <trkpt lat="48.40043" lon="-0.32116">
        <ele>242</ele>
        <time>2012-08-11T08:57:15Z</time>
      </trkpt>
      <trkpt lat="48.40029" lon="-0.32136">
        <ele>237.5</ele>
        <time>2012-08-11T08:57:23Z</time>
      </trkpt>
      <trkpt lat="48.40024" lon="-0.32141">
        <ele>237.5</ele>
        <time>2012-08-11T08:57:25Z</time>
      </trkpt>
      <trkpt lat="48.40013" lon="-0.32156">
        <ele>238.5</ele>
        <time>2012-08-11T08:57:29Z</time>
      </trkpt>
      <trkpt lat="48.40007" lon="-0.32165">
        <ele>238.5</ele>
        <time>2012-08-11T08:57:31Z</time>
      </trkpt>
      <trkpt lat="48.39994" lon="-0.32182">
        <ele>238</ele>
        <time>2012-08-11T08:57:35Z</time>
      </trkpt>
      <trkpt lat="48.39987" lon="-0.32191">
        <ele>238.5</ele>
        <time>2012-08-11T08:57:37Z</time>
      </trkpt>
      <trkpt lat="48.39973" lon="-0.32208">
        <ele>240</ele>
        <time>2012-08-11T08:57:41Z</time>
      </trkpt>
      <trkpt lat="48.39961" lon="-0.32225">
        <ele>238</ele>
        <time>2012-08-11T08:57:45Z</time>
      </trkpt>
      <trkpt lat="48.39955" lon="-0.32233">
        <ele>237.5</ele>
        <time>2012-08-11T08:57:47Z</time>
      </trkpt>
      <trkpt lat="48.39944" lon="-0.32249">
        <ele>237</ele>
        <time>2012-08-11T08:57:51Z</time>
      </trkpt>
      <trkpt lat="48.39933" lon="-0.32265">
        <ele>234</ele>
        <time>2012-08-11T08:57:55Z</time>
      </trkpt>
      <trkpt lat="48.39914" lon="-0.32294">
        <ele>237</ele>
        <time>2012-08-11T08:58:01Z</time>
      </trkpt>
      <trkpt lat="48.39903" lon="-0.32313">
        <ele>234</ele>
        <time>2012-08-11T08:58:05Z</time>
      </trkpt>
      <trkpt lat="48.39892" lon="-0.32334">
        <ele>235.5</ele>
        <time>2012-08-11T08:58:09Z</time>
      </trkpt>
      <trkpt lat="48.39881" lon="-0.32356">
        <ele>236.5</ele>
        <time>2012-08-11T08:58:13Z</time>
      </trkpt>
      <trkpt lat="48.39871" lon="-0.32379">
        <ele>235</ele>
        <time>2012-08-11T08:58:17Z</time>
      </trkpt>
      <trkpt lat="48.39862" lon="-0.32401">
        <ele>235</ele>
        <time>2012-08-11T08:58:21Z</time>
      </trkpt>
      <trkpt lat="48.39857" lon="-0.32412">
        <ele>235.5</ele>
        <time>2012-08-11T08:58:23Z</time>
      </trkpt>
      <trkpt lat="48.39848" lon="-0.32435">
        <ele>236</ele>
        <time>2012-08-11T08:58:27Z</time>
      </trkpt>
      <trkpt lat="48.39839" lon="-0.32459">
        <ele>236.5</ele>
        <time>2012-08-11T08:58:31Z</time>
      </trkpt>
      <trkpt lat="48.3983" lon="-0.32484">
        <ele>238.5</ele>
        <time>2012-08-11T08:58:35Z</time>
      </trkpt>
      <trkpt lat="48.39824" lon="-0.32509">
        <ele>235.5</ele>
        <time>2012-08-11T08:58:39Z</time>
      </trkpt>
      <trkpt lat="48.39814" lon="-0.32548">
        <ele>235</ele>
        <time>2012-08-11T08:58:45Z</time>
      </trkpt>
      <trkpt lat="48.39807" lon="-0.32573">
        <ele>232.5</ele>
        <time>2012-08-11T08:58:49Z</time>
      </trkpt>
      <trkpt lat="48.39801" lon="-0.32593">
        <ele>231</ele>
        <time>2012-08-11T08:58:53Z</time>
      </trkpt>
      <trkpt lat="48.39793" lon="-0.32629">
        <ele>227</ele>
        <time>2012-08-11T08:58:59Z</time>
      </trkpt>
      <trkpt lat="48.39787" lon="-0.32667">
        <ele>226</ele>
        <time>2012-08-11T08:59:05Z</time>
      </trkpt>
      <trkpt lat="48.39785" lon="-0.32688">
        <ele>221</ele>
        <time>2012-08-11T08:59:09Z</time>
      </trkpt>
      <trkpt lat="48.3978" lon="-0.32725">
        <ele>221</ele>
        <time>2012-08-11T08:59:15Z</time>
      </trkpt>
      <trkpt lat="48.39775" lon="-0.32761">
        <ele>221.5</ele>
        <time>2012-08-11T08:59:21Z</time>
      </trkpt>
      <trkpt lat="48.39767" lon="-0.32828">
        <ele>225.5</ele>
        <time>2012-08-11T08:59:31Z</time>
      </trkpt>
      <trkpt lat="48.39763" lon="-0.32869">
        <ele>225</ele>
        <time>2012-08-11T08:59:37Z</time>
      </trkpt>
      <trkpt lat="48.39758" lon="-0.32895">
        <ele>221</ele>
        <time>2012-08-11T08:59:41Z</time>
      </trkpt>
      <trkpt lat="48.39747" lon="-0.32962">
        <ele>218.5</ele>
        <time>2012-08-11T08:59:51Z</time>
      </trkpt>
      <trkpt lat="48.3974" lon="-0.32992">
        <ele>215</ele>
        <time>2012-08-11T08:59:55Z</time>
      </trkpt>
      <trkpt lat="48.39723" lon="-0.33041">
        <ele>215.5</ele>
        <time>2012-08-11T09:00:03Z</time>
      </trkpt>
      <trkpt lat="48.39713" lon="-0.33067">
        <ele>219.5</ele>
        <time>2012-08-11T09:00:07Z</time>
      </trkpt>
      <trkpt lat="48.3969" lon="-0.33107">
        <ele>227.5</ele>
        <time>2012-08-11T09:00:13Z</time>
      </trkpt>
      <trkpt lat="48.3968" lon="-0.33138">
        <ele>229</ele>
        <time>2012-08-11T09:00:17Z</time>
      </trkpt>
      <trkpt lat="48.39661" lon="-0.33173">
        <ele>228.5</ele>
        <time>2012-08-11T09:00:23Z</time>
      </trkpt>
      <trkpt lat="48.39637" lon="-0.33215">
        <ele>225</ele>
        <time>2012-08-11T09:00:31Z</time>
      </trkpt>
      <trkpt lat="48.39617" lon="-0.33243">
        <ele>228.5</ele>
        <time>2012-08-11T09:00:37Z</time>
      </trkpt>
      <trkpt lat="48.39602" lon="-0.33265">
        <ele>237.5</ele>
        <time>2012-08-11T09:00:41Z</time>
      </trkpt>
      <trkpt lat="48.39585" lon="-0.33283">
        <ele>242</ele>
        <time>2012-08-11T09:00:45Z</time>
      </trkpt>
      <trkpt lat="48.39568" lon="-0.333">
        <ele>241.5</ele>
        <time>2012-08-11T09:00:49Z</time>
      </trkpt>
      <trkpt lat="48.39552" lon="-0.33315">
        <ele>241</ele>
        <time>2012-08-11T09:00:53Z</time>
      </trkpt>
      <trkpt lat="48.3954" lon="-0.33332">
        <ele>238.5</ele>
        <time>2012-08-11T09:00:57Z</time>
      </trkpt>
      <trkpt lat="48.39526" lon="-0.33344">
        <ele>236</ele>
        <time>2012-08-11T09:01:01Z</time>
      </trkpt>
      <trkpt lat="48.39519" lon="-0.33349">
        <ele>234</ele>
        <time>2012-08-11T09:01:03Z</time>
      </trkpt>
      <trkpt lat="48.39504" lon="-0.3336">
        <ele>233</ele>
        <time>2012-08-11T09:01:07Z</time>
      </trkpt>
      <trkpt lat="48.39487" lon="-0.3337">
        <ele>232.5</ele>
        <time>2012-08-11T09:01:11Z</time>
      </trkpt>
      <trkpt lat="48.39478" lon="-0.33374">
        <ele>233.5</ele>
        <time>2012-08-11T09:01:13Z</time>
      </trkpt>
      <trkpt lat="48.39464" lon="-0.33382">
        <ele>236.5</ele>
        <time>2012-08-11T09:01:17Z</time>
      </trkpt>
      <trkpt lat="48.39447" lon="-0.33384">
        <ele>234.5</ele>
        <time>2012-08-11T09:01:21Z</time>
      </trkpt>
      <trkpt lat="48.3941" lon="-0.33391">
        <ele>236</ele>
        <time>2012-08-11T09:01:29Z</time>
      </trkpt>
      <trkpt lat="48.39393" lon="-0.33391">
        <ele>234</ele>
        <time>2012-08-11T09:01:33Z</time>
      </trkpt>
      <trkpt lat="48.3937" lon="-0.3339">
        <ele>232</ele>
        <time>2012-08-11T09:01:39Z</time>
      </trkpt>
      <trkpt lat="48.39354" lon="-0.33387">
        <ele>230.5</ele>
        <time>2012-08-11T09:01:43Z</time>
      </trkpt>
      <trkpt lat="48.39329" lon="-0.3338">
        <ele>228.5</ele>
        <time>2012-08-11T09:01:49Z</time>
      </trkpt>
      <trkpt lat="48.39301" lon="-0.33369">
        <ele>226.5</ele>
        <time>2012-08-11T09:01:55Z</time>
      </trkpt>
      <trkpt lat="48.39285" lon="-0.3336">
        <ele>221</ele>
        <time>2012-08-11T09:01:59Z</time>
      </trkpt>
      <trkpt lat="48.39269" lon="-0.33352">
        <ele>220</ele>
        <time>2012-08-11T09:02:03Z</time>
      </trkpt>
      <trkpt lat="48.3926" lon="-0.33347">
        <ele>219</ele>
        <time>2012-08-11T09:02:05Z</time>
      </trkpt>
      <trkpt lat="48.39246" lon="-0.33339">
        <ele>216.5</ele>
        <time>2012-08-11T09:02:09Z</time>
      </trkpt>
      <trkpt lat="48.39234" lon="-0.33335">
        <ele>219.5</ele>
        <time>2012-08-11T09:02:13Z</time>
      </trkpt>
      <trkpt lat="48.3922" lon="-0.33332">
        <ele>220</ele>
        <time>2012-08-11T09:02:21Z</time>
      </trkpt>
      <trkpt lat="48.39202" lon="-0.33325">
        <ele>219.5</ele>
        <time>2012-08-11T09:02:27Z</time>
      </trkpt>
      <trkpt lat="48.39188" lon="-0.3332">
        <ele>221</ele>
        <time>2012-08-11T09:02:31Z</time>
      </trkpt>
      <trkpt lat="48.39174" lon="-0.33314">
        <ele>222</ele>
        <time>2012-08-11T09:02:35Z</time>
      </trkpt>
      <trkpt lat="48.39167" lon="-0.3331">
        <ele>222</ele>
        <time>2012-08-11T09:02:37Z</time>
      </trkpt>
      <trkpt lat="48.39153" lon="-0.33305">
        <ele>222</ele>
        <time>2012-08-11T09:02:41Z</time>
      </trkpt>
      <trkpt lat="48.39138" lon="-0.33298">
        <ele>222.5</ele>
        <time>2012-08-11T09:02:45Z</time>
      </trkpt>
      <trkpt lat="48.39123" lon="-0.33291">
        <ele>223</ele>
        <time>2012-08-11T09:02:49Z</time>
      </trkpt>
      <trkpt lat="48.39115" lon="-0.33287">
        <ele>222.5</ele>
        <time>2012-08-11T09:02:51Z</time>
      </trkpt>
      <trkpt lat="48.39098" lon="-0.33278">
        <ele>221.5</ele>
        <time>2012-08-11T09:02:55Z</time>
      </trkpt>
      <trkpt lat="48.39083" lon="-0.33269">
        <ele>219</ele>
        <time>2012-08-11T09:02:59Z</time>
      </trkpt>
      <trkpt lat="48.39069" lon="-0.33258">
        <ele>214.5</ele>
        <time>2012-08-11T09:03:03Z</time>
      </trkpt>
      <trkpt lat="48.39062" lon="-0.33252">
        <ele>213.5</ele>
        <time>2012-08-11T09:03:05Z</time>
      </trkpt>
      <trkpt lat="48.39047" lon="-0.33243">
        <ele>213</ele>
        <time>2012-08-11T09:03:09Z</time>
      </trkpt>
      <trkpt lat="48.39034" lon="-0.33234">
        <ele>210</ele>
        <time>2012-08-11T09:03:13Z</time>
      </trkpt>
      <trkpt lat="48.39013" lon="-0.33223">
        <ele>208</ele>
        <time>2012-08-11T09:03:19Z</time>
      </trkpt>
      <trkpt lat="48.38998" lon="-0.33219">
        <ele>210.5</ele>
        <time>2012-08-11T09:03:23Z</time>
      </trkpt>
      <trkpt lat="48.3899" lon="-0.33216">
        <ele>212</ele>
        <time>2012-08-11T09:03:25Z</time>
      </trkpt>
      <trkpt lat="48.38974" lon="-0.33209">
        <ele>215</ele>
        <time>2012-08-11T09:03:29Z</time>
      </trkpt>
      <trkpt lat="48.38958" lon="-0.332">
        <ele>213.5</ele>
        <time>2012-08-11T09:03:33Z</time>
      </trkpt>
      <trkpt lat="48.38936" lon="-0.33186">
        <ele>212.5</ele>
        <time>2012-08-11T09:03:39Z</time>
      </trkpt>
      <trkpt lat="48.3892" lon="-0.33178">
        <ele>210</ele>
        <time>2012-08-11T09:03:43Z</time>
      </trkpt>
      <trkpt lat="48.38896" lon="-0.33166">
        <ele>206</ele>
        <time>2012-08-11T09:03:49Z</time>
      </trkpt>
      <trkpt lat="48.3888" lon="-0.33155">
        <ele>203.5</ele>
        <time>2012-08-11T09:03:53Z</time>
      </trkpt>
      <trkpt lat="48.38863" lon="-0.33146">
        <ele>202.5</ele>
        <time>2012-08-11T09:03:57Z</time>
      </trkpt>
      <trkpt lat="48.38837" lon="-0.33132">
        <ele>202.5</ele>
        <time>2012-08-11T09:04:03Z</time>
      </trkpt>
      <trkpt lat="48.38811" lon="-0.33118">
        <ele>203.5</ele>
        <time>2012-08-11T09:04:09Z</time>
      </trkpt>
      <trkpt lat="48.38794" lon="-0.33109">
        <ele>203</ele>
        <time>2012-08-11T09:04:13Z</time>
      </trkpt>
      <trkpt lat="48.38776" lon="-0.33101">
        <ele>203</ele>
        <time>2012-08-11T09:04:17Z</time>
      </trkpt>
      <trkpt lat="48.38759" lon="-0.33091">
        <ele>201</ele>
        <time>2012-08-11T09:04:21Z</time>
      </trkpt>
      <trkpt lat="48.38742" lon="-0.33082">
        <ele>199.5</ele>
        <time>2012-08-11T09:04:25Z</time>
      </trkpt>
      <trkpt lat="48.38733" lon="-0.33078">
        <ele>199</ele>
        <time>2012-08-11T09:04:27Z</time>
      </trkpt>
      <trkpt lat="48.38716" lon="-0.33069">
        <ele>199.5</ele>
        <time>2012-08-11T09:04:31Z</time>
      </trkpt>
      <trkpt lat="48.38699" lon="-0.33062">
        <ele>200</ele>
        <time>2012-08-11T09:04:35Z</time>
      </trkpt>
      <trkpt lat="48.38682" lon="-0.33053">
        <ele>200</ele>
        <time>2012-08-11T09:04:39Z</time>
      </trkpt>
      <trkpt lat="48.38664" lon="-0.33046">
        <ele>201.5</ele>
        <time>2012-08-11T09:04:43Z</time>
      </trkpt>
      <trkpt lat="48.38646" lon="-0.33041">
        <ele>206.5</ele>
        <time>2012-08-11T09:04:47Z</time>
      </trkpt>
      <trkpt lat="48.38638" lon="-0.33038">
        <ele>207</ele>
        <time>2012-08-11T09:04:49Z</time>
      </trkpt>
      <trkpt lat="48.3862" lon="-0.33033">
        <ele>210.5</ele>
        <time>2012-08-11T09:04:53Z</time>
      </trkpt>
      <trkpt lat="48.38603" lon="-0.33032">
        <ele>214.5</ele>
        <time>2012-08-11T09:04:57Z</time>
      </trkpt>
      <trkpt lat="48.38587" lon="-0.33031">
        <ele>217</ele>
        <time>2012-08-11T09:05:01Z</time>
      </trkpt>
      <trkpt lat="48.38579" lon="-0.3303">
        <ele>218</ele>
        <time>2012-08-11T09:05:03Z</time>
      </trkpt>
      <trkpt lat="48.38564" lon="-0.33029">
        <ele>219</ele>
        <time>2012-08-11T09:05:07Z</time>
      </trkpt>
      <trkpt lat="48.3855" lon="-0.33028">
        <ele>221</ele>
        <time>2012-08-11T09:05:11Z</time>
      </trkpt>
      <trkpt lat="48.38543" lon="-0.33028">
        <ele>221.5</ele>
        <time>2012-08-11T09:05:13Z</time>
      </trkpt>
      <trkpt lat="48.38527" lon="-0.33026">
        <ele>222</ele>
        <time>2012-08-11T09:05:17Z</time>
      </trkpt>
      <trkpt lat="48.3852" lon="-0.33025">
        <ele>222.5</ele>
        <time>2012-08-11T09:05:19Z</time>
      </trkpt>
      <trkpt lat="48.38504" lon="-0.33024">
        <ele>224</ele>
        <time>2012-08-11T09:05:23Z</time>
      </trkpt>
      <trkpt lat="48.38496" lon="-0.33023">
        <ele>225</ele>
        <time>2012-08-11T09:05:25Z</time>
      </trkpt>
      <trkpt lat="48.38481" lon="-0.33022">
        <ele>225.5</ele>
        <time>2012-08-11T09:05:29Z</time>
      </trkpt>
      <trkpt lat="48.38466" lon="-0.3302">
        <ele>226.5</ele>
        <time>2012-08-11T09:05:33Z</time>
      </trkpt>
      <trkpt lat="48.38455" lon="-0.33019">
        <ele>227.5</ele>
        <time>2012-08-11T09:05:37Z</time>
      </trkpt>
      <trkpt lat="48.38452" lon="-0.33019">
        <ele>227.5</ele>
        <time>2012-08-11T09:05:39Z</time>
      </trkpt>
      <trkpt lat="48.38452" lon="-0.33019">
        <ele>227.5</ele>
        <time>2012-08-11T09:05:55Z</time>
      </trkpt>
      <trkpt lat="48.38452" lon="-0.33019">
        <ele>227.5</ele>
        <time>2012-08-11T09:06:11Z</time>
      </trkpt>
      <trkpt lat="48.38452" lon="-0.33019">
        <ele>227.5</ele>
        <time>2012-08-11T09:06:27Z</time>
      </trkpt>
      <trkpt lat="48.38452" lon="-0.33019">
        <ele>227.5</ele>
        <time>2012-08-11T09:06:43Z</time>
      </trkpt>
      <trkpt lat="48.38452" lon="-0.33019">
        <ele>227.5</ele>
        <time>2012-08-11T09:06:59Z</time>
      </trkpt>
      <trkpt lat="48.38452" lon="-0.33019">
        <ele>227.5</ele>
        <time>2012-08-11T09:07:15Z</time>
      </trkpt>
      <trkpt lat="48.38452" lon="-0.33019">
        <ele>227.5</ele>
        <time>2012-08-11T09:07:31Z</time>
      </trkpt>
      <trkpt lat="48.38447" lon="-0.33022">
        <ele>231</ele>
        <time>2012-08-11T09:07:45Z</time>
      </trkpt>
      <trkpt lat="48.38442" lon="-0.33022">
        <ele>230.5</ele>
        <time>2012-08-11T09:07:55Z</time>
      </trkpt>
      <trkpt lat="48.38434" lon="-0.33021">
        <ele>230</ele>
        <time>2012-08-11T09:07:59Z</time>
      </trkpt>
      <trkpt lat="48.38429" lon="-0.3302">
        <ele>230</ele>
        <time>2012-08-11T09:08:01Z</time>
      </trkpt>
      <trkpt lat="48.38417" lon="-0.33018">
        <ele>229.5</ele>
        <time>2012-08-11T09:08:05Z</time>
      </trkpt>
      <trkpt lat="48.38412" lon="-0.33015">
        <ele>227.5</ele>
        <time>2012-08-11T09:08:07Z</time>
      </trkpt>
      <trkpt lat="48.38406" lon="-0.33012">
        <ele>225</ele>
        <time>2012-08-11T09:08:09Z</time>
      </trkpt>
      <trkpt lat="48.38401" lon="-0.33013">
        <ele>223</ele>
        <time>2012-08-11T09:08:11Z</time>
      </trkpt>
      <trkpt lat="48.38394" lon="-0.33013">
        <ele>221.5</ele>
        <time>2012-08-11T09:08:13Z</time>
      </trkpt>
      <trkpt lat="48.38371" lon="-0.33013">
        <ele>219.5</ele>
        <time>2012-08-11T09:08:19Z</time>
      </trkpt>
      <trkpt lat="48.38343" lon="-0.33009">
        <ele>215.5</ele>
        <time>2012-08-11T09:08:27Z</time>
      </trkpt>
      <trkpt lat="48.38327" lon="-0.33008">
        <ele>217</ele>
        <time>2012-08-11T09:08:31Z</time>
      </trkpt>
      <trkpt lat="48.38311" lon="-0.33008">
        <ele>218.5</ele>
        <time>2012-08-11T09:08:35Z</time>
      </trkpt>
      <trkpt lat="48.38304" lon="-0.33006">
        <ele>217.5</ele>
        <time>2012-08-11T09:08:37Z</time>
      </trkpt>
      <trkpt lat="48.38288" lon="-0.33003">
        <ele>217.5</ele>
        <time>2012-08-11T09:08:41Z</time>
      </trkpt>
      <trkpt lat="48.38263" lon="-0.33002">
        <ele>215</ele>
        <time>2012-08-11T09:08:47Z</time>
      </trkpt>
      <trkpt lat="48.38247" lon="-0.33002">
        <ele>213</ele>
        <time>2012-08-11T09:08:51Z</time>
      </trkpt>
      <trkpt lat="48.3822" lon="-0.33">
        <ele>212</ele>
        <time>2012-08-11T09:08:57Z</time>
      </trkpt>
      <trkpt lat="48.38203" lon="-0.32996">
        <ele>211</ele>
        <time>2012-08-11T09:09:01Z</time>
      </trkpt>
      <trkpt lat="48.38178" lon="-0.32992">
        <ele>210</ele>
        <time>2012-08-11T09:09:07Z</time>
      </trkpt>
      <trkpt lat="48.38162" lon="-0.3299">
        <ele>207.5</ele>
        <time>2012-08-11T09:09:11Z</time>
      </trkpt>
      <trkpt lat="48.38129" lon="-0.32975">
        <ele>218.5</ele>
        <time>2012-08-11T09:09:19Z</time>
      </trkpt>
      <trkpt lat="48.38113" lon="-0.32969">
        <ele>223.5</ele>
        <time>2012-08-11T09:09:23Z</time>
      </trkpt>
      <trkpt lat="48.38095" lon="-0.32961">
        <ele>223.5</ele>
        <time>2012-08-11T09:09:29Z</time>
      </trkpt>
      <trkpt lat="48.38079" lon="-0.32949">
        <ele>221</ele>
        <time>2012-08-11T09:09:35Z</time>
      </trkpt>
      <trkpt lat="48.38072" lon="-0.32949">
        <ele>223</ele>
        <time>2012-08-11T09:09:45Z</time>
      </trkpt>
      <trkpt lat="48.38065" lon="-0.32946">
        <ele>231</ele>
        <time>2012-08-11T09:09:53Z</time>
      </trkpt>
      <trkpt lat="48.38061" lon="-0.32955">
        <ele>245</ele>
        <time>2012-08-11T09:09:59Z</time>
      </trkpt>
      <trkpt lat="48.38054" lon="-0.32946">
        <ele>256</ele>
        <time>2012-08-11T09:10:11Z</time>
      </trkpt>
      <trkpt lat="48.38044" lon="-0.32939">
        <ele>254.5</ele>
        <time>2012-08-11T09:10:19Z</time>
      </trkpt>
      <trkpt lat="48.38034" lon="-0.32929">
        <ele>254</ele>
        <time>2012-08-11T09:10:25Z</time>
      </trkpt>
      <trkpt lat="48.38019" lon="-0.32921">
        <ele>252</ele>
        <time>2012-08-11T09:10:31Z</time>
      </trkpt>
      <trkpt lat="48.37998" lon="-0.32901">
        <ele>244.5</ele>
        <time>2012-08-11T09:10:39Z</time>
      </trkpt>
      <trkpt lat="48.37986" lon="-0.32884">
        <ele>240</ele>
        <time>2012-08-11T09:10:43Z</time>
      </trkpt>
      <trkpt lat="48.37969" lon="-0.3286">
        <ele>233.5</ele>
        <time>2012-08-11T09:10:49Z</time>
      </trkpt>
      <trkpt lat="48.37955" lon="-0.32842">
        <ele>231</ele>
        <time>2012-08-11T09:10:53Z</time>
      </trkpt>
      <trkpt lat="48.37948" lon="-0.32832">
        <ele>228.5</ele>
        <time>2012-08-11T09:10:55Z</time>
      </trkpt>
      <trkpt lat="48.37916" lon="-0.3279">
        <ele>224</ele>
        <time>2012-08-11T09:11:05Z</time>
      </trkpt>
      <trkpt lat="48.37904" lon="-0.32776">
        <ele>219</ele>
        <time>2012-08-11T09:11:09Z</time>
      </trkpt>
      <trkpt lat="48.37879" lon="-0.32747">
        <ele>217</ele>
        <time>2012-08-11T09:11:17Z</time>
      </trkpt>
      <trkpt lat="48.37852" lon="-0.32718">
        <ele>220.5</ele>
        <time>2012-08-11T09:11:25Z</time>
      </trkpt>
      <trkpt lat="48.37841" lon="-0.32708">
        <ele>222</ele>
        <time>2012-08-11T09:11:29Z</time>
      </trkpt>
      <trkpt lat="48.37811" lon="-0.32681">
        <ele>218</ele>
        <time>2012-08-11T09:11:39Z</time>
      </trkpt>
      <trkpt lat="48.37796" lon="-0.32671">
        <ele>212.5</ele>
        <time>2012-08-11T09:11:43Z</time>
      </trkpt>
      <trkpt lat="48.37789" lon="-0.32668">
        <ele>211</ele>
        <time>2012-08-11T09:11:45Z</time>
      </trkpt>
      <trkpt lat="48.37763" lon="-0.32654">
        <ele>211.5</ele>
        <time>2012-08-11T09:11:51Z</time>
      </trkpt>
      <trkpt lat="48.37729" lon="-0.32641">
        <ele>206.5</ele>
        <time>2012-08-11T09:11:59Z</time>
      </trkpt>
      <trkpt lat="48.3771" lon="-0.32632">
        <ele>208.5</ele>
        <time>2012-08-11T09:12:05Z</time>
      </trkpt>
      <trkpt lat="48.377" lon="-0.32629">
        <ele>208.5</ele>
        <time>2012-08-11T09:12:11Z</time>
      </trkpt>
      <trkpt lat="48.377" lon="-0.32629">
        <ele>208.5</ele>
        <time>2012-08-11T09:12:43Z</time>
      </trkpt>
      <trkpt lat="48.377" lon="-0.32629">
        <ele>208.5</ele>
        <time>2012-08-11T09:13:01Z</time>
      </trkpt>
      <trkpt lat="48.377" lon="-0.32629">
        <ele>208.5</ele>
        <time>2012-08-11T09:13:19Z</time>
      </trkpt>
      <trkpt lat="48.377" lon="-0.32629">
        <ele>208.5</ele>
        <time>2012-08-11T09:13:37Z</time>
      </trkpt>
      <trkpt lat="48.377" lon="-0.32629">
        <ele>208.5</ele>
        <time>2012-08-11T09:13:58Z</time>
      </trkpt>
      <trkpt lat="48.37681" lon="-0.32618">
        <ele>210.5</ele>
        <time>2012-08-11T09:14:01Z</time>
      </trkpt>
      <trkpt lat="48.3767" lon="-0.32615">
        <ele>210</ele>
        <time>2012-08-11T09:14:05Z</time>
      </trkpt>
      <trkpt lat="48.37659" lon="-0.32613">
        <ele>212</ele>
        <time>2012-08-11T09:14:09Z</time>
      </trkpt>
      <trkpt lat="48.37646" lon="-0.32611">
        <ele>215</ele>
        <time>2012-08-11T09:14:13Z</time>
      </trkpt>
      <trkpt lat="48.37639" lon="-0.32611">
        <ele>217.5</ele>
        <time>2012-08-11T09:14:15Z</time>
      </trkpt>
      <trkpt lat="48.3762" lon="-0.32607">
        <ele>218.5</ele>
        <time>2012-08-11T09:14:21Z</time>
      </trkpt>
      <trkpt lat="48.37607" lon="-0.32603">
        <ele>217</ele>
        <time>2012-08-11T09:14:25Z</time>
      </trkpt>
      <trkpt lat="48.376" lon="-0.32602">
        <ele>217.5</ele>
        <time>2012-08-11T09:14:27Z</time>
      </trkpt>
      <trkpt lat="48.37587" lon="-0.32599">
        <ele>216</ele>
        <time>2012-08-11T09:14:31Z</time>
      </trkpt>
      <trkpt lat="48.37568" lon="-0.32593">
        <ele>212.5</ele>
        <time>2012-08-11T09:14:37Z</time>
      </trkpt>
      <trkpt lat="48.37555" lon="-0.32588">
        <ele>213.5</ele>
        <time>2012-08-11T09:14:41Z</time>
      </trkpt>
      <trkpt lat="48.37547" lon="-0.32587">
        <ele>213.5</ele>
        <time>2012-08-11T09:14:43Z</time>
      </trkpt>
      <trkpt lat="48.37536" lon="-0.32583">
        <ele>214</ele>
        <time>2012-08-11T09:14:47Z</time>
      </trkpt>
      <trkpt lat="48.37536" lon="-0.32583">
        <ele>214</ele>
        <time>2012-08-11T09:15:41Z</time>
      </trkpt>
      <trkpt lat="48.37536" lon="-0.32583">
        <ele>214</ele>
        <time>2012-08-11T09:16:01Z</time>
      </trkpt>
      <trkpt lat="48.37536" lon="-0.32583">
        <ele>214</ele>
        <time>2012-08-11T09:16:25Z</time>
      </trkpt>
      <trkpt lat="48.37536" lon="-0.32583">
        <ele>214</ele>
        <time>2012-08-11T09:16:59Z</time>
      </trkpt>
      <trkpt lat="48.37536" lon="-0.32583">
        <ele>214</ele>
        <time>2012-08-11T09:17:19Z</time>
      </trkpt>
      <trkpt lat="48.37536" lon="-0.32583">
        <ele>214</ele>
        <time>2012-08-11T09:17:39Z</time>
      </trkpt>
      <trkpt lat="48.37502" lon="-0.32578">
        <ele>238.5</ele>
        <time>2012-08-11T09:17:43Z</time>
      </trkpt>
      <trkpt lat="48.37498" lon="-0.32577">
        <ele>238</ele>
        <time>2012-08-11T09:17:55Z</time>
      </trkpt>
      <trkpt lat="48.37488" lon="-0.32571">
        <ele>236.5</ele>
        <time>2012-08-11T09:18:01Z</time>
      </trkpt>
      <trkpt lat="48.37477" lon="-0.32568">
        <ele>233</ele>
        <time>2012-08-11T09:18:07Z</time>
      </trkpt>
      <trkpt lat="48.37468" lon="-0.32567">
        <ele>230.5</ele>
        <time>2012-08-11T09:18:11Z</time>
      </trkpt>
      <trkpt lat="48.37457" lon="-0.32564">
        <ele>231.5</ele>
        <time>2012-08-11T09:18:15Z</time>
      </trkpt>
      <trkpt lat="48.37452" lon="-0.32562">
        <ele>231</ele>
        <time>2012-08-11T09:18:17Z</time>
      </trkpt>
      <trkpt lat="48.37446" lon="-0.3256">
        <ele>230</ele>
        <time>2012-08-11T09:18:19Z</time>
      </trkpt>
      <trkpt lat="48.37433" lon="-0.32556">
        <ele>230</ele>
        <time>2012-08-11T09:18:23Z</time>
      </trkpt>
      <trkpt lat="48.37426" lon="-0.32554">
        <ele>229</ele>
        <time>2012-08-11T09:18:25Z</time>
      </trkpt>
      <trkpt lat="48.37414" lon="-0.32551">
        <ele>227</ele>
        <time>2012-08-11T09:18:29Z</time>
      </trkpt>
      <trkpt lat="48.37409" lon="-0.32548">
        <ele>226</ele>
        <time>2012-08-11T09:18:31Z</time>
      </trkpt>
      <trkpt lat="48.37398" lon="-0.32543">
        <ele>224</ele>
        <time>2012-08-11T09:18:35Z</time>
      </trkpt>
      <trkpt lat="48.37391" lon="-0.3254">
        <ele>225</ele>
        <time>2012-08-11T09:18:37Z</time>
      </trkpt>
      <trkpt lat="48.37376" lon="-0.32537">
        <ele>228.5</ele>
        <time>2012-08-11T09:18:41Z</time>
      </trkpt>
      <trkpt lat="48.37368" lon="-0.32534">
        <ele>230</ele>
        <time>2012-08-11T09:18:43Z</time>
      </trkpt>
      <trkpt lat="48.37354" lon="-0.32528">
        <ele>232.5</ele>
        <time>2012-08-11T09:18:47Z</time>
      </trkpt>
      <trkpt lat="48.37339" lon="-0.32524">
        <ele>231</ele>
        <time>2012-08-11T09:18:53Z</time>
      </trkpt>
      <trkpt lat="48.37318" lon="-0.32518">
        <ele>231</ele>
        <time>2012-08-11T09:19:01Z</time>
      </trkpt>
      <trkpt lat="48.37302" lon="-0.32516">
        <ele>232.5</ele>
        <time>2012-08-11T09:19:05Z</time>
      </trkpt>
      <trkpt lat="48.37294" lon="-0.32514">
        <ele>233.5</ele>
        <time>2012-08-11T09:19:07Z</time>
      </trkpt>
      <trkpt lat="48.37273" lon="-0.32504">
        <ele>236</ele>
        <time>2012-08-11T09:19:13Z</time>
      </trkpt>
      <trkpt lat="48.37257" lon="-0.32498">
        <ele>238</ele>
        <time>2012-08-11T09:19:17Z</time>
      </trkpt>
      <trkpt lat="48.37249" lon="-0.32495">
        <ele>239.5</ele>
        <time>2012-08-11T09:19:19Z</time>
      </trkpt>
      <trkpt lat="48.37232" lon="-0.32492">
        <ele>241.5</ele>
        <time>2012-08-11T09:19:23Z</time>
      </trkpt>
      <trkpt lat="48.37224" lon="-0.32491">
        <ele>242.5</ele>
        <time>2012-08-11T09:19:25Z</time>
      </trkpt>
      <trkpt lat="48.37199" lon="-0.32482">
        <ele>244</ele>
        <time>2012-08-11T09:19:31Z</time>
      </trkpt>
      <trkpt lat="48.37176" lon="-0.32475">
        <ele>244</ele>
        <time>2012-08-11T09:19:37Z</time>
      </trkpt>
      <trkpt lat="48.37152" lon="-0.32476">
        <ele>245</ele>
        <time>2012-08-11T09:19:43Z</time>
      </trkpt>
      <trkpt lat="48.37127" lon="-0.32476">
        <ele>246.5</ele>
        <time>2012-08-11T09:19:49Z</time>
      </trkpt>
      <trkpt lat="48.37107" lon="-0.32477">
        <ele>247.5</ele>
        <time>2012-08-11T09:19:53Z</time>
      </trkpt>
      <trkpt lat="48.37097" lon="-0.32477">
        <ele>248.5</ele>
        <time>2012-08-11T09:19:55Z</time>
      </trkpt>
      <trkpt lat="48.37078" lon="-0.32481">
        <ele>250.5</ele>
        <time>2012-08-11T09:19:59Z</time>
      </trkpt>
      <trkpt lat="48.3706" lon="-0.32483">
        <ele>247.5</ele>
        <time>2012-08-11T09:20:03Z</time>
      </trkpt>
      <trkpt lat="48.3702" lon="-0.32492">
        <ele>249.5</ele>
        <time>2012-08-11T09:20:11Z</time>
      </trkpt>
      <trkpt lat="48.37002" lon="-0.32495">
        <ele>249</ele>
        <time>2012-08-11T09:20:15Z</time>
      </trkpt>
      <trkpt lat="48.36984" lon="-0.32498">
        <ele>251.5</ele>
        <time>2012-08-11T09:20:19Z</time>
      </trkpt>
      <trkpt lat="48.36966" lon="-0.32497">
        <ele>253</ele>
        <time>2012-08-11T09:20:23Z</time>
      </trkpt>
      <trkpt lat="48.36938" lon="-0.32494">
        <ele>253</ele>
        <time>2012-08-11T09:20:29Z</time>
      </trkpt>
      <trkpt lat="48.36908" lon="-0.32494">
        <ele>250.5</ele>
        <time>2012-08-11T09:20:35Z</time>
      </trkpt>
      <trkpt lat="48.36863" lon="-0.32486">
        <ele>251</ele>
        <time>2012-08-11T09:20:45Z</time>
      </trkpt>
      <trkpt lat="48.36847" lon="-0.32482">
        <ele>251</ele>
        <time>2012-08-11T09:20:49Z</time>
      </trkpt>
      <trkpt lat="48.3684" lon="-0.32479">
        <ele>251</ele>
        <time>2012-08-11T09:20:51Z</time>
      </trkpt>
      <trkpt lat="48.36822" lon="-0.32468">
        <ele>247.5</ele>
        <time>2012-08-11T09:20:57Z</time>
      </trkpt>
      <trkpt lat="48.36811" lon="-0.32461">
        <ele>244</ele>
        <time>2012-08-11T09:21:01Z</time>
      </trkpt>
      <trkpt lat="48.3678" lon="-0.32458">
        <ele>242</ele>
        <time>2012-08-11T09:21:13Z</time>
      </trkpt>
      <trkpt lat="48.36767" lon="-0.32451">
        <ele>241.5</ele>
        <time>2012-08-11T09:21:17Z</time>
      </trkpt>
      <trkpt lat="48.36753" lon="-0.32442">
        <ele>242</ele>
        <time>2012-08-11T09:21:21Z</time>
      </trkpt>
      <trkpt lat="48.36739" lon="-0.3243">
        <ele>241.5</ele>
        <time>2012-08-11T09:21:25Z</time>
      </trkpt>
      <trkpt lat="48.36724" lon="-0.32419">
        <ele>242.5</ele>
        <time>2012-08-11T09:21:29Z</time>
      </trkpt>
      <trkpt lat="48.36716" lon="-0.32412">
        <ele>241.5</ele>
        <time>2012-08-11T09:21:31Z</time>
      </trkpt>
      <trkpt lat="48.36703" lon="-0.32399">
        <ele>242</ele>
        <time>2012-08-11T09:21:35Z</time>
      </trkpt>
      <trkpt lat="48.36677" lon="-0.32365">
        <ele>240</ele>
        <time>2012-08-11T09:21:43Z</time>
      </trkpt>
      <trkpt lat="48.36664" lon="-0.32353">
        <ele>238</ele>
        <time>2012-08-11T09:21:47Z</time>
      </trkpt>
      <trkpt lat="48.36645" lon="-0.32331">
        <ele>236</ele>
        <time>2012-08-11T09:21:53Z</time>
      </trkpt>
      <trkpt lat="48.36635" lon="-0.32317">
        <ele>235.5</ele>
        <time>2012-08-11T09:21:57Z</time>
      </trkpt>
      <trkpt lat="48.36625" lon="-0.32298">
        <ele>236</ele>
        <time>2012-08-11T09:22:01Z</time>
      </trkpt>
      <trkpt lat="48.36614" lon="-0.32275">
        <ele>235.5</ele>
        <time>2012-08-11T09:22:05Z</time>
      </trkpt>
      <trkpt lat="48.36609" lon="-0.32264">
        <ele>235.5</ele>
        <time>2012-08-11T09:22:07Z</time>
      </trkpt>
      <trkpt lat="48.36598" lon="-0.32241">
        <ele>236</ele>
        <time>2012-08-11T09:22:11Z</time>
      </trkpt>
      <trkpt lat="48.36588" lon="-0.32217">
        <ele>235.5</ele>
        <time>2012-08-11T09:22:15Z</time>
      </trkpt>
      <trkpt lat="48.36577" lon="-0.32193">
        <ele>235.5</ele>
        <time>2012-08-11T09:22:19Z</time>
      </trkpt>
      <trkpt lat="48.36567" lon="-0.32171">
        <ele>236</ele>
        <time>2012-08-11T09:22:23Z</time>
      </trkpt>
      <trkpt lat="48.36557" lon="-0.32148">
        <ele>236</ele>
        <time>2012-08-11T09:22:27Z</time>
      </trkpt>
      <trkpt lat="48.36547" lon="-0.32129">
        <ele>235.5</ele>
        <time>2012-08-11T09:22:31Z</time>
      </trkpt>
      <trkpt lat="48.36543" lon="-0.3212">
        <ele>236.5</ele>
        <time>2012-08-11T09:22:33Z</time>
      </trkpt>
      <trkpt lat="48.36535" lon="-0.32101">
        <ele>236</ele>
        <time>2012-08-11T09:22:37Z</time>
      </trkpt>
      <trkpt lat="48.36525" lon="-0.32081">
        <ele>235.5</ele>
        <time>2012-08-11T09:22:41Z</time>
      </trkpt>
      <trkpt lat="48.36516" lon="-0.32059">
        <ele>235</ele>
        <time>2012-08-11T09:22:45Z</time>
      </trkpt>
      <trkpt lat="48.36506" lon="-0.32038">
        <ele>234</ele>
        <time>2012-08-11T09:22:49Z</time>
      </trkpt>
      <trkpt lat="48.36502" lon="-0.32027">
        <ele>234.5</ele>
        <time>2012-08-11T09:22:51Z</time>
      </trkpt>
      <trkpt lat="48.36493" lon="-0.32006">
        <ele>236</ele>
        <time>2012-08-11T09:22:55Z</time>
      </trkpt>
      <trkpt lat="48.36488" lon="-0.31995">
        <ele>237</ele>
        <time>2012-08-11T09:22:57Z</time>
      </trkpt>
      <trkpt lat="48.36478" lon="-0.31974">
        <ele>237</ele>
        <time>2012-08-11T09:23:01Z</time>
      </trkpt>
      <trkpt lat="48.36468" lon="-0.31952">
        <ele>235.5</ele>
        <time>2012-08-11T09:23:05Z</time>
      </trkpt>
      <trkpt lat="48.36463" lon="-0.31941">
        <ele>235</ele>
        <time>2012-08-11T09:23:07Z</time>
      </trkpt>
      <trkpt lat="48.36452" lon="-0.3192">
        <ele>234.5</ele>
        <time>2012-08-11T09:23:11Z</time>
      </trkpt>
      <trkpt lat="48.36441" lon="-0.31901">
        <ele>233.5</ele>
        <time>2012-08-11T09:23:15Z</time>
      </trkpt>
      <trkpt lat="48.36437" lon="-0.31893">
        <ele>233.5</ele>
        <time>2012-08-11T09:23:17Z</time>
      </trkpt>
      <trkpt lat="48.36428" lon="-0.31878">
        <ele>234</ele>
        <time>2012-08-11T09:23:21Z</time>
      </trkpt>
      <trkpt lat="48.36414" lon="-0.31856">
        <ele>234</ele>
        <time>2012-08-11T09:23:27Z</time>
      </trkpt>
      <trkpt lat="48.36398" lon="-0.31832">
        <ele>234</ele>
        <time>2012-08-11T09:23:33Z</time>
      </trkpt>
      <trkpt lat="48.36386" lon="-0.31815">
        <ele>234.5</ele>
        <time>2012-08-11T09:23:37Z</time>
      </trkpt>
      <trkpt lat="48.36379" lon="-0.31809">
        <ele>233</ele>
        <time>2012-08-11T09:23:39Z</time>
      </trkpt>
      <trkpt lat="48.36367" lon="-0.31791">
        <ele>230</ele>
        <time>2012-08-11T09:23:43Z</time>
      </trkpt>
      <trkpt lat="48.36352" lon="-0.31777">
        <ele>229.5</ele>
        <time>2012-08-11T09:23:47Z</time>
      </trkpt>
      <trkpt lat="48.36345" lon="-0.31769">
        <ele>228.5</ele>
        <time>2012-08-11T09:23:49Z</time>
      </trkpt>
      <trkpt lat="48.36329" lon="-0.31754">
        <ele>232</ele>
        <time>2012-08-11T09:23:53Z</time>
      </trkpt>
      <trkpt lat="48.36319" lon="-0.31745">
        <ele>235</ele>
        <time>2012-08-11T09:23:57Z</time>
      </trkpt>
      <trkpt lat="48.36312" lon="-0.3174">
        <ele>234.5</ele>
        <time>2012-08-11T09:23:59Z</time>
      </trkpt>
      <trkpt lat="48.36297" lon="-0.31729">
        <ele>235.5</ele>
        <time>2012-08-11T09:24:03Z</time>
      </trkpt>
      <trkpt lat="48.3629" lon="-0.31723">
        <ele>235.5</ele>
        <time>2012-08-11T09:24:05Z</time>
      </trkpt>
      <trkpt lat="48.36274" lon="-0.31712">
        <ele>236.5</ele>
        <time>2012-08-11T09:24:09Z</time>
      </trkpt>
      <trkpt lat="48.36259" lon="-0.31701">
        <ele>237.5</ele>
        <time>2012-08-11T09:24:13Z</time>
      </trkpt>
      <trkpt lat="48.36244" lon="-0.31691">
        <ele>236.5</ele>
        <time>2012-08-11T09:24:17Z</time>
      </trkpt>
      <trkpt lat="48.36237" lon="-0.31686">
        <ele>237</ele>
        <time>2012-08-11T09:24:19Z</time>
      </trkpt>
      <trkpt lat="48.36223" lon="-0.31678">
        <ele>237.5</ele>
        <time>2012-08-11T09:24:23Z</time>
      </trkpt>
      <trkpt lat="48.36217" lon="-0.31673">
        <ele>238</ele>
        <time>2012-08-11T09:24:25Z</time>
      </trkpt>
      <trkpt lat="48.36206" lon="-0.31664">
        <ele>238</ele>
        <time>2012-08-11T09:24:29Z</time>
      </trkpt>
      <trkpt lat="48.362" lon="-0.3166">
        <ele>238</ele>
        <time>2012-08-11T09:24:31Z</time>
      </trkpt>
      <trkpt lat="48.36187" lon="-0.31651">
        <ele>238</ele>
        <time>2012-08-11T09:24:35Z</time>
      </trkpt>
      <trkpt lat="48.36181" lon="-0.31647">
        <ele>238</ele>
        <time>2012-08-11T09:24:37Z</time>
      </trkpt>
      <trkpt lat="48.36169" lon="-0.3164">
        <ele>237.5</ele>
        <time>2012-08-11T09:24:41Z</time>
      </trkpt>
      <trkpt lat="48.36163" lon="-0.31638">
        <ele>237.5</ele>
        <time>2012-08-11T09:24:43Z</time>
      </trkpt>
      <trkpt lat="48.36151" lon="-0.31627">
        <ele>237.5</ele>
        <time>2012-08-11T09:24:47Z</time>
      </trkpt>
      <trkpt lat="48.36144" lon="-0.31621">
        <ele>238</ele>
        <time>2012-08-11T09:24:49Z</time>
      </trkpt>
      <trkpt lat="48.36123" lon="-0.31606">
        <ele>238.5</ele>
        <time>2012-08-11T09:24:55Z</time>
      </trkpt>
      <trkpt lat="48.36108" lon="-0.31597">
        <ele>238.5</ele>
        <time>2012-08-11T09:24:59Z</time>
      </trkpt>
      <trkpt lat="48.36101" lon="-0.31591">
        <ele>239</ele>
        <time>2012-08-11T09:25:01Z</time>
      </trkpt>
      <trkpt lat="48.36089" lon="-0.3158">
        <ele>238.5</ele>
        <time>2012-08-11T09:25:05Z</time>
      </trkpt>
      <trkpt lat="48.36082" lon="-0.31575">
        <ele>238.5</ele>
        <time>2012-08-11T09:25:07Z</time>
      </trkpt>
      <trkpt lat="48.36069" lon="-0.31566">
        <ele>238</ele>
        <time>2012-08-11T09:25:11Z</time>
      </trkpt>
      <trkpt lat="48.36058" lon="-0.31558">
        <ele>237.5</ele>
        <time>2012-08-11T09:25:15Z</time>
      </trkpt>
      <trkpt lat="48.36046" lon="-0.31551">
        <ele>237.5</ele>
        <time>2012-08-11T09:25:21Z</time>
      </trkpt>
      <trkpt lat="48.36041" lon="-0.31548">
        <ele>237.5</ele>
        <time>2012-08-11T09:25:23Z</time>
      </trkpt>
      <trkpt lat="48.36031" lon="-0.31538">
        <ele>237</ele>
        <time>2012-08-11T09:25:27Z</time>
      </trkpt>
      <trkpt lat="48.36025" lon="-0.31535">
        <ele>236.5</ele>
        <time>2012-08-11T09:25:29Z</time>
      </trkpt>
      <trkpt lat="48.36019" lon="-0.31532">
        <ele>236</ele>
        <time>2012-08-11T09:25:31Z</time>
      </trkpt>
      <trkpt lat="48.36008" lon="-0.31524">
        <ele>235.5</ele>
        <time>2012-08-11T09:25:35Z</time>
      </trkpt>
      <trkpt lat="48.36003" lon="-0.3152">
        <ele>235</ele>
        <time>2012-08-11T09:25:37Z</time>
      </trkpt>
      <trkpt lat="48.35988" lon="-0.31513">
        <ele>238</ele>
        <time>2012-08-11T09:25:41Z</time>
      </trkpt>
      <trkpt lat="48.35981" lon="-0.3151">
        <ele>239</ele>
        <time>2012-08-11T09:25:43Z</time>
      </trkpt>
      <trkpt lat="48.35966" lon="-0.31502">
        <ele>240</ele>
        <time>2012-08-11T09:25:47Z</time>
      </trkpt>
      <trkpt lat="48.35959" lon="-0.31497">
        <ele>239</ele>
        <time>2012-08-11T09:25:49Z</time>
      </trkpt>
      <trkpt lat="48.35945" lon="-0.3149">
        <ele>239</ele>
        <time>2012-08-11T09:25:53Z</time>
      </trkpt>
      <trkpt lat="48.35931" lon="-0.31485">
        <ele>239</ele>
        <time>2012-08-11T09:25:57Z</time>
      </trkpt>
      <trkpt lat="48.35917" lon="-0.31484">
        <ele>240.5</ele>
        <time>2012-08-11T09:26:01Z</time>
      </trkpt>
      <trkpt lat="48.3591" lon="-0.31483">
        <ele>240.5</ele>
        <time>2012-08-11T09:26:03Z</time>
      </trkpt>
      <trkpt lat="48.35896" lon="-0.3148">
        <ele>241</ele>
        <time>2012-08-11T09:26:07Z</time>
      </trkpt>
      <trkpt lat="48.35862" lon="-0.31483">
        <ele>237</ele>
        <time>2012-08-11T09:26:15Z</time>
      </trkpt>
      <trkpt lat="48.35845" lon="-0.31485">
        <ele>236</ele>
        <time>2012-08-11T09:26:19Z</time>
      </trkpt>
      <trkpt lat="48.3583" lon="-0.31489">
        <ele>237.5</ele>
        <time>2012-08-11T09:26:23Z</time>
      </trkpt>
      <trkpt lat="48.35822" lon="-0.31491">
        <ele>238</ele>
        <time>2012-08-11T09:26:25Z</time>
      </trkpt>
      <trkpt lat="48.35808" lon="-0.31497">
        <ele>239</ele>
        <time>2012-08-11T09:26:29Z</time>
      </trkpt>
      <trkpt lat="48.35794" lon="-0.31502">
        <ele>243</ele>
        <time>2012-08-11T09:26:33Z</time>
      </trkpt>
      <trkpt lat="48.35779" lon="-0.31509">
        <ele>245</ele>
        <time>2012-08-11T09:26:37Z</time>
      </trkpt>
      <trkpt lat="48.35762" lon="-0.31516">
        <ele>244</ele>
        <time>2012-08-11T09:26:41Z</time>
      </trkpt>
      <trkpt lat="48.35746" lon="-0.31524">
        <ele>246</ele>
        <time>2012-08-11T09:26:45Z</time>
      </trkpt>
      <trkpt lat="48.35737" lon="-0.31528">
        <ele>246.5</ele>
        <time>2012-08-11T09:26:47Z</time>
      </trkpt>
      <trkpt lat="48.35713" lon="-0.3154">
        <ele>252</ele>
        <time>2012-08-11T09:26:53Z</time>
      </trkpt>
      <trkpt lat="48.357" lon="-0.31547">
        <ele>253</ele>
        <time>2012-08-11T09:26:57Z</time>
      </trkpt>
      <trkpt lat="48.35691" lon="-0.3155">
        <ele>253.5</ele>
        <time>2012-08-11T09:26:59Z</time>
      </trkpt>
      <trkpt lat="48.35677" lon="-0.31556">
        <ele>255</ele>
        <time>2012-08-11T09:27:03Z</time>
      </trkpt>
      <trkpt lat="48.35661" lon="-0.31562">
        <ele>256</ele>
        <time>2012-08-11T09:27:07Z</time>
      </trkpt>
      <trkpt lat="48.35652" lon="-0.31566">
        <ele>256.5</ele>
        <time>2012-08-11T09:27:09Z</time>
      </trkpt>
      <trkpt lat="48.35637" lon="-0.31573">
        <ele>258</ele>
        <time>2012-08-11T09:27:13Z</time>
      </trkpt>
      <trkpt lat="48.3562" lon="-0.31579">
        <ele>259.5</ele>
        <time>2012-08-11T09:27:17Z</time>
      </trkpt>
      <trkpt lat="48.35613" lon="-0.31582">
        <ele>261</ele>
        <time>2012-08-11T09:27:19Z</time>
      </trkpt>
      <trkpt lat="48.35599" lon="-0.31589">
        <ele>264.5</ele>
        <time>2012-08-11T09:27:23Z</time>
      </trkpt>
      <trkpt lat="48.35587" lon="-0.31597">
        <ele>264.5</ele>
        <time>2012-08-11T09:27:27Z</time>
      </trkpt>
      <trkpt lat="48.3558" lon="-0.31601">
        <ele>265</ele>
        <time>2012-08-11T09:27:29Z</time>
      </trkpt>
      <trkpt lat="48.35561" lon="-0.31611">
        <ele>267</ele>
        <time>2012-08-11T09:27:35Z</time>
      </trkpt>
      <trkpt lat="48.35542" lon="-0.31622">
        <ele>262</ele>
        <time>2012-08-11T09:27:41Z</time>
      </trkpt>
      <trkpt lat="48.35531" lon="-0.3163">
        <ele>263</ele>
        <time>2012-08-11T09:27:45Z</time>
      </trkpt>
      <trkpt lat="48.35511" lon="-0.31645">
        <ele>258</ele>
        <time>2012-08-11T09:27:51Z</time>
      </trkpt>
      <trkpt lat="48.35497" lon="-0.31656">
        <ele>255.5</ele>
        <time>2012-08-11T09:27:55Z</time>
      </trkpt>
      <trkpt lat="48.35486" lon="-0.31668">
        <ele>254</ele>
        <time>2012-08-11T09:27:59Z</time>
      </trkpt>
      <trkpt lat="48.3546" lon="-0.31696">
        <ele>254.5</ele>
        <time>2012-08-11T09:28:07Z</time>
      </trkpt>
      <trkpt lat="48.35442" lon="-0.31718">
        <ele>254</ele>
        <time>2012-08-11T09:28:13Z</time>
      </trkpt>
      <trkpt lat="48.3543" lon="-0.31732">
        <ele>253.5</ele>
        <time>2012-08-11T09:28:17Z</time>
      </trkpt>
      <trkpt lat="48.35417" lon="-0.31748">
        <ele>254</ele>
        <time>2012-08-11T09:28:21Z</time>
      </trkpt>
      <trkpt lat="48.35405" lon="-0.31765">
        <ele>254.5</ele>
        <time>2012-08-11T09:28:25Z</time>
      </trkpt>
      <trkpt lat="48.35389" lon="-0.31787">
        <ele>257.5</ele>
        <time>2012-08-11T09:28:31Z</time>
      </trkpt>
      <trkpt lat="48.3537" lon="-0.31813">
        <ele>260</ele>
        <time>2012-08-11T09:28:37Z</time>
      </trkpt>
      <trkpt lat="48.35354" lon="-0.3184">
        <ele>259.5</ele>
        <time>2012-08-11T09:28:43Z</time>
      </trkpt>
      <trkpt lat="48.35345" lon="-0.31854">
        <ele>259</ele>
        <time>2012-08-11T09:28:47Z</time>
      </trkpt>
      <trkpt lat="48.35333" lon="-0.31876">
        <ele>260</ele>
        <time>2012-08-11T09:28:53Z</time>
      </trkpt>
      <trkpt lat="48.35321" lon="-0.31896">
        <ele>260.5</ele>
        <time>2012-08-11T09:28:57Z</time>
      </trkpt>
      <trkpt lat="48.35316" lon="-0.31906">
        <ele>260.5</ele>
        <time>2012-08-11T09:28:59Z</time>
      </trkpt>
      <trkpt lat="48.35307" lon="-0.31924">
        <ele>261</ele>
        <time>2012-08-11T09:29:03Z</time>
      </trkpt>
      <trkpt lat="48.35303" lon="-0.31933">
        <ele>260</ele>
        <time>2012-08-11T09:29:05Z</time>
      </trkpt>
      <trkpt lat="48.35298" lon="-0.31947">
        <ele>259</ele>
        <time>2012-08-11T09:29:09Z</time>
      </trkpt>
      <trkpt lat="48.35296" lon="-0.31952">
        <ele>259.5</ele>
        <time>2012-08-11T09:29:11Z</time>
      </trkpt>
      <trkpt lat="48.35289" lon="-0.31971">
        <ele>261</ele>
        <time>2012-08-11T09:29:17Z</time>
      </trkpt>
      <trkpt lat="48.35285" lon="-0.3198">
        <ele>261.5</ele>
        <time>2012-08-11T09:29:19Z</time>
      </trkpt>
      <trkpt lat="48.35275" lon="-0.3201">
        <ele>264</ele>
        <time>2012-08-11T09:29:25Z</time>
      </trkpt>
      <trkpt lat="48.35266" lon="-0.32044">
        <ele>263</ele>
        <time>2012-08-11T09:29:33Z</time>
      </trkpt>
      <trkpt lat="48.35261" lon="-0.32076">
        <ele>260.5</ele>
        <time>2012-08-11T09:29:41Z</time>
      </trkpt>
      <trkpt lat="48.35257" lon="-0.32089">
        <ele>260.5</ele>
        <time>2012-08-11T09:29:45Z</time>
      </trkpt>
      <trkpt lat="48.35256" lon="-0.32094">
        <ele>260.5</ele>
        <time>2012-08-11T09:29:47Z</time>
      </trkpt>
      <trkpt lat="48.35255" lon="-0.32104">
        <ele>257.5</ele>
        <time>2012-08-11T09:29:49Z</time>
      </trkpt>
      <trkpt lat="48.3525" lon="-0.32133">
        <ele>254</ele>
        <time>2012-08-11T09:29:55Z</time>
      </trkpt>
      <trkpt lat="48.35248" lon="-0.32144">
        <ele>254</ele>
        <time>2012-08-11T09:29:57Z</time>
      </trkpt>
      <trkpt lat="48.35243" lon="-0.32169">
        <ele>255</ele>
        <time>2012-08-11T09:30:01Z</time>
      </trkpt>
      <trkpt lat="48.35238" lon="-0.3219">
        <ele>254.5</ele>
        <time>2012-08-11T09:30:05Z</time>
      </trkpt>
      <trkpt lat="48.35236" lon="-0.32203">
        <ele>253.5</ele>
        <time>2012-08-11T09:30:07Z</time>
      </trkpt>
      <trkpt lat="48.35232" lon="-0.32227">
        <ele>252.5</ele>
        <time>2012-08-11T09:30:11Z</time>
      </trkpt>
      <trkpt lat="48.35228" lon="-0.32252">
        <ele>253.5</ele>
        <time>2012-08-11T09:30:15Z</time>
      </trkpt>
      <trkpt lat="48.35224" lon="-0.32274">
        <ele>254.5</ele>
        <time>2012-08-11T09:30:19Z</time>
      </trkpt>
      <trkpt lat="48.35218" lon="-0.32307">
        <ele>252.5</ele>
        <time>2012-08-11T09:30:27Z</time>
      </trkpt>
      <trkpt lat="48.35215" lon="-0.32325">
        <ele>250.5</ele>
        <time>2012-08-11T09:30:31Z</time>
      </trkpt>
      <trkpt lat="48.35213" lon="-0.32333">
        <ele>249.5</ele>
        <time>2012-08-11T09:30:33Z</time>
      </trkpt>
      <trkpt lat="48.35209" lon="-0.32352">
        <ele>248.5</ele>
        <time>2012-08-11T09:30:37Z</time>
      </trkpt>
      <trkpt lat="48.35208" lon="-0.3236">
        <ele>248</ele>
        <time>2012-08-11T09:30:39Z</time>
      </trkpt>
      <trkpt lat="48.35205" lon="-0.32376">
        <ele>247</ele>
        <time>2012-08-11T09:30:43Z</time>
      </trkpt>
      <trkpt lat="48.35203" lon="-0.32385">
        <ele>248</ele>
        <time>2012-08-11T09:30:45Z</time>
      </trkpt>
      <trkpt lat="48.35198" lon="-0.32414">
        <ele>245.5</ele>
        <time>2012-08-11T09:30:53Z</time>
      </trkpt>
      <trkpt lat="48.35195" lon="-0.32433">
        <ele>246.5</ele>
        <time>2012-08-11T09:30:57Z</time>
      </trkpt>
      <trkpt lat="48.35192" lon="-0.32451">
        <ele>248</ele>
        <time>2012-08-11T09:31:01Z</time>
      </trkpt>
      <trkpt lat="48.35185" lon="-0.32484">
        <ele>252.5</ele>
        <time>2012-08-11T09:31:07Z</time>
      </trkpt>
      <trkpt lat="48.3518" lon="-0.32505">
        <ele>253</ele>
        <time>2012-08-11T09:31:11Z</time>
      </trkpt>
      <trkpt lat="48.35176" lon="-0.32528">
        <ele>254</ele>
        <time>2012-08-11T09:31:15Z</time>
      </trkpt>
      <trkpt lat="48.35168" lon="-0.32557">
        <ele>255</ele>
        <time>2012-08-11T09:31:21Z</time>
      </trkpt>
      <trkpt lat="48.35164" lon="-0.32574">
        <ele>254.5</ele>
        <time>2012-08-11T09:31:25Z</time>
      </trkpt>
      <trkpt lat="48.35162" lon="-0.32582">
        <ele>254.5</ele>
        <time>2012-08-11T09:31:27Z</time>
      </trkpt>
      <trkpt lat="48.35159" lon="-0.326">
        <ele>250.5</ele>
        <time>2012-08-11T09:31:31Z</time>
      </trkpt>
      <trkpt lat="48.35157" lon="-0.32612">
        <ele>249</ele>
        <time>2012-08-11T09:31:33Z</time>
      </trkpt>
      <trkpt lat="48.3515" lon="-0.32635">
        <ele>248</ele>
        <time>2012-08-11T09:31:37Z</time>
      </trkpt>
      <trkpt lat="48.35142" lon="-0.32657">
        <ele>248.5</ele>
        <time>2012-08-11T09:31:41Z</time>
      </trkpt>
      <trkpt lat="48.35135" lon="-0.32679">
        <ele>246.5</ele>
        <time>2012-08-11T09:31:45Z</time>
      </trkpt>
      <trkpt lat="48.35127" lon="-0.32702">
        <ele>248</ele>
        <time>2012-08-11T09:31:49Z</time>
      </trkpt>
      <trkpt lat="48.35118" lon="-0.32725">
        <ele>251</ele>
        <time>2012-08-11T09:31:53Z</time>
      </trkpt>
      <trkpt lat="48.35109" lon="-0.32748">
        <ele>251.5</ele>
        <time>2012-08-11T09:31:57Z</time>
      </trkpt>
      <trkpt lat="48.35099" lon="-0.3277">
        <ele>252</ele>
        <time>2012-08-11T09:32:01Z</time>
      </trkpt>
      <trkpt lat="48.35084" lon="-0.328">
        <ele>251.5</ele>
        <time>2012-08-11T09:32:07Z</time>
      </trkpt>
      <trkpt lat="48.35053" lon="-0.32857">
        <ele>249.5</ele>
        <time>2012-08-11T09:32:19Z</time>
      </trkpt>
      <trkpt lat="48.3504" lon="-0.32879">
        <ele>248.5</ele>
        <time>2012-08-11T09:32:23Z</time>
      </trkpt>
      <trkpt lat="48.35027" lon="-0.32897">
        <ele>248</ele>
        <time>2012-08-11T09:32:27Z</time>
      </trkpt>
      <trkpt lat="48.35013" lon="-0.32916">
        <ele>247.5</ele>
        <time>2012-08-11T09:32:31Z</time>
      </trkpt>
      <trkpt lat="48.34999" lon="-0.32935">
        <ele>247.5</ele>
        <time>2012-08-11T09:32:35Z</time>
      </trkpt>
      <trkpt lat="48.34985" lon="-0.32953">
        <ele>248.5</ele>
        <time>2012-08-11T09:32:39Z</time>
      </trkpt>
      <trkpt lat="48.3497" lon="-0.32972">
        <ele>248.5</ele>
        <time>2012-08-11T09:32:43Z</time>
      </trkpt>
      <trkpt lat="48.34956" lon="-0.32989">
        <ele>249.5</ele>
        <time>2012-08-11T09:32:47Z</time>
      </trkpt>
      <trkpt lat="48.34942" lon="-0.33006">
        <ele>248.5</ele>
        <time>2012-08-11T09:32:51Z</time>
      </trkpt>
      <trkpt lat="48.34929" lon="-0.33023">
        <ele>250.5</ele>
        <time>2012-08-11T09:32:55Z</time>
      </trkpt>
      <trkpt lat="48.34915" lon="-0.33039">
        <ele>249</ele>
        <time>2012-08-11T09:32:59Z</time>
      </trkpt>
      <trkpt lat="48.349" lon="-0.33058">
        <ele>251</ele>
        <time>2012-08-11T09:33:03Z</time>
      </trkpt>
      <trkpt lat="48.34885" lon="-0.33079">
        <ele>252</ele>
        <time>2012-08-11T09:33:07Z</time>
      </trkpt>
      <trkpt lat="48.34869" lon="-0.33098">
        <ele>253</ele>
        <time>2012-08-11T09:33:11Z</time>
      </trkpt>
      <trkpt lat="48.34854" lon="-0.33116">
        <ele>255</ele>
        <time>2012-08-11T09:33:15Z</time>
      </trkpt>
      <trkpt lat="48.34843" lon="-0.33135">
        <ele>253</ele>
        <time>2012-08-11T09:33:19Z</time>
      </trkpt>
      <trkpt lat="48.34831" lon="-0.33151">
        <ele>252</ele>
        <time>2012-08-11T09:33:23Z</time>
      </trkpt>
      <trkpt lat="48.34821" lon="-0.33168">
        <ele>248.5</ele>
        <time>2012-08-11T09:33:27Z</time>
      </trkpt>
      <trkpt lat="48.34816" lon="-0.33178">
        <ele>247.5</ele>
        <time>2012-08-11T09:33:29Z</time>
      </trkpt>
      <trkpt lat="48.34804" lon="-0.33199">
        <ele>246</ele>
        <time>2012-08-11T09:33:33Z</time>
      </trkpt>
      <trkpt lat="48.34792" lon="-0.33223">
        <ele>248.5</ele>
        <time>2012-08-11T09:33:37Z</time>
      </trkpt>
      <trkpt lat="48.34776" lon="-0.33257">
        <ele>250</ele>
        <time>2012-08-11T09:33:43Z</time>
      </trkpt>
      <trkpt lat="48.34767" lon="-0.33278">
        <ele>248.5</ele>
        <time>2012-08-11T09:33:47Z</time>
      </trkpt>
      <trkpt lat="48.3476" lon="-0.33293">
        <ele>248</ele>
        <time>2012-08-11T09:33:51Z</time>
      </trkpt>
      <trkpt lat="48.34755" lon="-0.33309">
        <ele>248.5</ele>
        <time>2012-08-11T09:33:55Z</time>
      </trkpt>
      <trkpt lat="48.34753" lon="-0.33316">
        <ele>248.5</ele>
        <time>2012-08-11T09:33:57Z</time>
      </trkpt>
      <trkpt lat="48.34744" lon="-0.3334">
        <ele>250</ele>
        <time>2012-08-11T09:34:03Z</time>
      </trkpt>
      <trkpt lat="48.34743" lon="-0.33348">
        <ele>250</ele>
        <time>2012-08-11T09:34:05Z</time>
      </trkpt>
      <trkpt lat="48.34736" lon="-0.33366">
        <ele>249.5</ele>
        <time>2012-08-11T09:34:09Z</time>
      </trkpt>
      <trkpt lat="48.34732" lon="-0.33378">
        <ele>249.5</ele>
        <time>2012-08-11T09:34:11Z</time>
      </trkpt>
      <trkpt lat="48.34726" lon="-0.33401">
        <ele>249.5</ele>
        <time>2012-08-11T09:34:15Z</time>
      </trkpt>
      <trkpt lat="48.34723" lon="-0.33412">
        <ele>250</ele>
        <time>2012-08-11T09:34:17Z</time>
      </trkpt>
      <trkpt lat="48.34718" lon="-0.33436">
        <ele>250</ele>
        <time>2012-08-11T09:34:21Z</time>
      </trkpt>
      <trkpt lat="48.34713" lon="-0.33461">
        <ele>250.5</ele>
        <time>2012-08-11T09:34:25Z</time>
      </trkpt>
      <trkpt lat="48.34708" lon="-0.33487">
        <ele>252</ele>
        <time>2012-08-11T09:34:29Z</time>
      </trkpt>
      <trkpt lat="48.34703" lon="-0.33513">
        <ele>252.5</ele>
        <time>2012-08-11T09:34:33Z</time>
      </trkpt>
      <trkpt lat="48.34698" lon="-0.33538">
        <ele>254.5</ele>
        <time>2012-08-11T09:34:37Z</time>
      </trkpt>
      <trkpt lat="48.34696" lon="-0.33551">
        <ele>255.5</ele>
        <time>2012-08-11T09:34:39Z</time>
      </trkpt>
      <trkpt lat="48.34691" lon="-0.33578">
        <ele>255.5</ele>
        <time>2012-08-11T09:34:43Z</time>
      </trkpt>
      <trkpt lat="48.34689" lon="-0.33591">
        <ele>256</ele>
        <time>2012-08-11T09:34:45Z</time>
      </trkpt>
      <trkpt lat="48.34684" lon="-0.33618">
        <ele>256</ele>
        <time>2012-08-11T09:34:49Z</time>
      </trkpt>
      <trkpt lat="48.34678" lon="-0.33645">
        <ele>257</ele>
        <time>2012-08-11T09:34:53Z</time>
      </trkpt>
      <trkpt lat="48.34672" lon="-0.33673">
        <ele>257.5</ele>
        <time>2012-08-11T09:34:57Z</time>
      </trkpt>
      <trkpt lat="48.34667" lon="-0.33701">
        <ele>256.5</ele>
        <time>2012-08-11T09:35:01Z</time>
      </trkpt>
      <trkpt lat="48.34661" lon="-0.33727">
        <ele>256</ele>
        <time>2012-08-11T09:35:05Z</time>
      </trkpt>
      <trkpt lat="48.34653" lon="-0.3375">
        <ele>255.5</ele>
        <time>2012-08-11T09:35:09Z</time>
      </trkpt>
      <trkpt lat="48.34645" lon="-0.33773">
        <ele>255</ele>
        <time>2012-08-11T09:35:13Z</time>
      </trkpt>
      <trkpt lat="48.34641" lon="-0.33785">
        <ele>254.5</ele>
        <time>2012-08-11T09:35:15Z</time>
      </trkpt>
      <trkpt lat="48.34633" lon="-0.33808">
        <ele>252.5</ele>
        <time>2012-08-11T09:35:19Z</time>
      </trkpt>
      <trkpt lat="48.34628" lon="-0.33819">
        <ele>252.5</ele>
        <time>2012-08-11T09:35:21Z</time>
      </trkpt>
      <trkpt lat="48.34619" lon="-0.33839">
        <ele>251</ele>
        <time>2012-08-11T09:35:25Z</time>
      </trkpt>
      <trkpt lat="48.34607" lon="-0.33861">
        <ele>251.5</ele>
        <time>2012-08-11T09:35:29Z</time>
      </trkpt>
      <trkpt lat="48.34602" lon="-0.33871">
        <ele>251.5</ele>
        <time>2012-08-11T09:35:31Z</time>
      </trkpt>
      <trkpt lat="48.3459" lon="-0.3389">
        <ele>250.5</ele>
        <time>2012-08-11T09:35:35Z</time>
      </trkpt>
      <trkpt lat="48.34579" lon="-0.33908">
        <ele>248</ele>
        <time>2012-08-11T09:35:39Z</time>
      </trkpt>
      <trkpt lat="48.34566" lon="-0.33927">
        <ele>246.5</ele>
        <time>2012-08-11T09:35:43Z</time>
      </trkpt>
      <trkpt lat="48.34551" lon="-0.33945">
        <ele>248</ele>
        <time>2012-08-11T09:35:47Z</time>
      </trkpt>
      <trkpt lat="48.34536" lon="-0.3396">
        <ele>249</ele>
        <time>2012-08-11T09:35:51Z</time>
      </trkpt>
      <trkpt lat="48.34522" lon="-0.33974">
        <ele>250.5</ele>
        <time>2012-08-11T09:35:55Z</time>
      </trkpt>
      <trkpt lat="48.34507" lon="-0.33987">
        <ele>249.5</ele>
        <time>2012-08-11T09:35:59Z</time>
      </trkpt>
      <trkpt lat="48.34494" lon="-0.34001">
        <ele>250</ele>
        <time>2012-08-11T09:36:03Z</time>
      </trkpt>
      <trkpt lat="48.34478" lon="-0.34015">
        <ele>250</ele>
        <time>2012-08-11T09:36:07Z</time>
      </trkpt>
      <trkpt lat="48.34464" lon="-0.34027">
        <ele>250</ele>
        <time>2012-08-11T09:36:11Z</time>
      </trkpt>
      <trkpt lat="48.34449" lon="-0.3404">
        <ele>250.5</ele>
        <time>2012-08-11T09:36:15Z</time>
      </trkpt>
      <trkpt lat="48.34433" lon="-0.34053">
        <ele>250</ele>
        <time>2012-08-11T09:36:19Z</time>
      </trkpt>
      <trkpt lat="48.34419" lon="-0.34066">
        <ele>250</ele>
        <time>2012-08-11T09:36:23Z</time>
      </trkpt>
      <trkpt lat="48.34404" lon="-0.34078">
        <ele>250.5</ele>
        <time>2012-08-11T09:36:27Z</time>
      </trkpt>
      <trkpt lat="48.34379" lon="-0.34099">
        <ele>252</ele>
        <time>2012-08-11T09:36:33Z</time>
      </trkpt>
      <trkpt lat="48.34363" lon="-0.34111">
        <ele>253</ele>
        <time>2012-08-11T09:36:37Z</time>
      </trkpt>
      <trkpt lat="48.34347" lon="-0.34125">
        <ele>253.5</ele>
        <time>2012-08-11T09:36:41Z</time>
      </trkpt>
      <trkpt lat="48.34334" lon="-0.34137">
        <ele>253.5</ele>
        <time>2012-08-11T09:36:45Z</time>
      </trkpt>
      <trkpt lat="48.34317" lon="-0.34151">
        <ele>257</ele>
        <time>2012-08-11T09:36:49Z</time>
      </trkpt>
      <trkpt lat="48.34303" lon="-0.34166">
        <ele>255.5</ele>
        <time>2012-08-11T09:36:53Z</time>
      </trkpt>
      <trkpt lat="48.34292" lon="-0.34181">
        <ele>258.5</ele>
        <time>2012-08-11T09:36:57Z</time>
      </trkpt>
      <trkpt lat="48.34264" lon="-0.34214">
        <ele>260</ele>
        <time>2012-08-11T09:37:05Z</time>
      </trkpt>
      <trkpt lat="48.3425" lon="-0.34232">
        <ele>261</ele>
        <time>2012-08-11T09:37:09Z</time>
      </trkpt>
      <trkpt lat="48.34237" lon="-0.3425">
        <ele>258</ele>
        <time>2012-08-11T09:37:13Z</time>
      </trkpt>
      <trkpt lat="48.34216" lon="-0.34276">
        <ele>257.5</ele>
        <time>2012-08-11T09:37:19Z</time>
      </trkpt>
      <trkpt lat="48.34203" lon="-0.34294">
        <ele>260</ele>
        <time>2012-08-11T09:37:23Z</time>
      </trkpt>
      <trkpt lat="48.34183" lon="-0.34319">
        <ele>259.5</ele>
        <time>2012-08-11T09:37:29Z</time>
      </trkpt>
      <trkpt lat="48.34168" lon="-0.34337">
        <ele>260</ele>
        <time>2012-08-11T09:37:33Z</time>
      </trkpt>
      <trkpt lat="48.34145" lon="-0.34363">
        <ele>263.5</ele>
        <time>2012-08-11T09:37:39Z</time>
      </trkpt>
      <trkpt lat="48.34132" lon="-0.34379">
        <ele>265</ele>
        <time>2012-08-11T09:37:43Z</time>
      </trkpt>
      <trkpt lat="48.34117" lon="-0.34398">
        <ele>264.5</ele>
        <time>2012-08-11T09:37:47Z</time>
      </trkpt>
      <trkpt lat="48.34104" lon="-0.34412">
        <ele>263.5</ele>
        <time>2012-08-11T09:37:51Z</time>
      </trkpt>
      <trkpt lat="48.34091" lon="-0.3443">
        <ele>262</ele>
        <time>2012-08-11T09:37:55Z</time>
      </trkpt>
      <trkpt lat="48.34078" lon="-0.34444">
        <ele>261.5</ele>
        <time>2012-08-11T09:37:59Z</time>
      </trkpt>
      <trkpt lat="48.34062" lon="-0.3446">
        <ele>263.5</ele>
        <time>2012-08-11T09:38:03Z</time>
      </trkpt>
      <trkpt lat="48.34054" lon="-0.34468">
        <ele>263.5</ele>
        <time>2012-08-11T09:38:05Z</time>
      </trkpt>
      <trkpt lat="48.3404" lon="-0.34485">
        <ele>265</ele>
        <time>2012-08-11T09:38:09Z</time>
      </trkpt>
      <trkpt lat="48.34029" lon="-0.34502">
        <ele>266.5</ele>
        <time>2012-08-11T09:38:13Z</time>
      </trkpt>
      <trkpt lat="48.34023" lon="-0.3451">
        <ele>267</ele>
        <time>2012-08-11T09:38:15Z</time>
      </trkpt>
      <trkpt lat="48.34012" lon="-0.34525">
        <ele>267</ele>
        <time>2012-08-11T09:38:19Z</time>
      </trkpt>
      <trkpt lat="48.34005" lon="-0.34532">
        <ele>266.5</ele>
        <time>2012-08-11T09:38:21Z</time>
      </trkpt>
      <trkpt lat="48.33994" lon="-0.34545">
        <ele>268.5</ele>
        <time>2012-08-11T09:38:25Z</time>
      </trkpt>
      <trkpt lat="48.3399" lon="-0.34552">
        <ele>266.5</ele>
        <time>2012-08-11T09:38:27Z</time>
      </trkpt>
      <trkpt lat="48.33982" lon="-0.34568">
        <ele>264</ele>
        <time>2012-08-11T09:38:31Z</time>
      </trkpt>
      <trkpt lat="48.33976" lon="-0.34576">
        <ele>263.5</ele>
        <time>2012-08-11T09:38:33Z</time>
      </trkpt>
      <trkpt lat="48.33963" lon="-0.34591">
        <ele>262</ele>
        <time>2012-08-11T09:38:37Z</time>
      </trkpt>
      <trkpt lat="48.33951" lon="-0.34606">
        <ele>262</ele>
        <time>2012-08-11T09:38:41Z</time>
      </trkpt>
      <trkpt lat="48.33939" lon="-0.3462">
        <ele>262</ele>
        <time>2012-08-11T09:38:45Z</time>
      </trkpt>
      <trkpt lat="48.33934" lon="-0.34627">
        <ele>261.5</ele>
        <time>2012-08-11T09:38:47Z</time>
      </trkpt>
      <trkpt lat="48.33921" lon="-0.34639">
        <ele>261</ele>
        <time>2012-08-11T09:38:51Z</time>
      </trkpt>
      <trkpt lat="48.33909" lon="-0.34651">
        <ele>261.5</ele>
        <time>2012-08-11T09:38:55Z</time>
      </trkpt>
      <trkpt lat="48.33902" lon="-0.34659">
        <ele>261.5</ele>
        <time>2012-08-11T09:38:57Z</time>
      </trkpt>
      <trkpt lat="48.3389" lon="-0.34672">
        <ele>262</ele>
        <time>2012-08-11T09:39:01Z</time>
      </trkpt>
      <trkpt lat="48.33882" lon="-0.34679">
        <ele>265</ele>
        <time>2012-08-11T09:39:03Z</time>
      </trkpt>
      <trkpt lat="48.33863" lon="-0.34703">
        <ele>262</ele>
        <time>2012-08-11T09:39:09Z</time>
      </trkpt>
      <trkpt lat="48.33864" lon="-0.34721">
        <ele>262.5</ele>
        <time>2012-08-11T09:39:13Z</time>
      </trkpt>
      <trkpt lat="48.3384" lon="-0.34755">
        <ele>263.5</ele>
        <time>2012-08-11T09:39:21Z</time>
      </trkpt>
      <trkpt lat="48.33816" lon="-0.34774">
        <ele>265.5</ele>
        <time>2012-08-11T09:39:27Z</time>
      </trkpt>
      <trkpt lat="48.33803" lon="-0.34786">
        <ele>267</ele>
        <time>2012-08-11T09:39:31Z</time>
      </trkpt>
      <trkpt lat="48.33798" lon="-0.34792">
        <ele>268</ele>
        <time>2012-08-11T09:39:33Z</time>
      </trkpt>
      <trkpt lat="48.33785" lon="-0.34804">
        <ele>268</ele>
        <time>2012-08-11T09:39:37Z</time>
      </trkpt>
      <trkpt lat="48.33771" lon="-0.34821">
        <ele>265</ele>
        <time>2012-08-11T09:39:43Z</time>
      </trkpt>
      <trkpt lat="48.33762" lon="-0.34832">
        <ele>262.5</ele>
        <time>2012-08-11T09:39:47Z</time>
      </trkpt>
      <trkpt lat="48.33754" lon="-0.34839">
        <ele>262</ele>
        <time>2012-08-11T09:39:51Z</time>
      </trkpt>
      <trkpt lat="48.33746" lon="-0.34846">
        <ele>262</ele>
        <time>2012-08-11T09:39:55Z</time>
      </trkpt>
      <trkpt lat="48.33742" lon="-0.3485">
        <ele>262.5</ele>
        <time>2012-08-11T09:39:57Z</time>
      </trkpt>
      <trkpt lat="48.33738" lon="-0.34854">
        <ele>262</ele>
        <time>2012-08-11T09:39:59Z</time>
      </trkpt>
      <trkpt lat="48.33733" lon="-0.34858">
        <ele>261.5</ele>
        <time>2012-08-11T09:40:03Z</time>
      </trkpt>
      <trkpt lat="48.33733" lon="-0.34858">
        <ele>261.5</ele>
        <time>2012-08-11T09:40:19Z</time>
      </trkpt>
      <trkpt lat="48.33733" lon="-0.34858">
        <ele>261.5</ele>
        <time>2012-08-11T09:40:35Z</time>
      </trkpt>
      <trkpt lat="48.33733" lon="-0.34858">
        <ele>261.5</ele>
        <time>2012-08-11T09:40:51Z</time>
      </trkpt>
      <trkpt lat="48.33733" lon="-0.34858">
        <ele>261.5</ele>
        <time>2012-08-11T09:41:07Z</time>
      </trkpt>
      <trkpt lat="48.33733" lon="-0.34858">
        <ele>261.5</ele>
        <time>2012-08-11T09:41:23Z</time>
      </trkpt>
      <trkpt lat="48.33733" lon="-0.34858">
        <ele>261.5</ele>
        <time>2012-08-11T09:41:39Z</time>
      </trkpt>
      <trkpt lat="48.33733" lon="-0.34858">
        <ele>261.5</ele>
        <time>2012-08-11T09:41:55Z</time>
      </trkpt>
      <trkpt lat="48.33733" lon="-0.34858">
        <ele>261.5</ele>
        <time>2012-08-11T09:42:11Z</time>
      </trkpt>
      <trkpt lat="48.33733" lon="-0.34858">
        <ele>261.5</ele>
        <time>2012-08-11T09:42:27Z</time>
      </trkpt>
      <trkpt lat="48.33738" lon="-0.34851">
        <ele>258.5</ele>
        <time>2012-08-11T09:42:43Z</time>
      </trkpt>
      <trkpt lat="48.33745" lon="-0.34845">
        <ele>258</ele>
        <time>2012-08-11T09:42:47Z</time>
      </trkpt>
      <trkpt lat="48.33749" lon="-0.34843">
        <ele>258</ele>
        <time>2012-08-11T09:42:49Z</time>
      </trkpt>
      <trkpt lat="48.33756" lon="-0.34833">
        <ele>257.5</ele>
        <time>2012-08-11T09:42:53Z</time>
      </trkpt>
      <trkpt lat="48.3376" lon="-0.34826">
        <ele>258</ele>
        <time>2012-08-11T09:42:55Z</time>
      </trkpt>
      <trkpt lat="48.33765" lon="-0.3482">
        <ele>257.5</ele>
        <time>2012-08-11T09:42:57Z</time>
      </trkpt>
      <trkpt lat="48.33777" lon="-0.34806">
        <ele>256.5</ele>
        <time>2012-08-11T09:43:01Z</time>
      </trkpt>
      <trkpt lat="48.33782" lon="-0.34799">
        <ele>257</ele>
        <time>2012-08-11T09:43:03Z</time>
      </trkpt>
      <trkpt lat="48.33788" lon="-0.34792">
        <ele>257</ele>
        <time>2012-08-11T09:43:05Z</time>
      </trkpt>
      <trkpt lat="48.33799" lon="-0.34777">
        <ele>257.5</ele>
        <time>2012-08-11T09:43:09Z</time>
      </trkpt>
      <trkpt lat="48.33804" lon="-0.3477">
        <ele>258.5</ele>
        <time>2012-08-11T09:43:11Z</time>
      </trkpt>
      <trkpt lat="48.33815" lon="-0.34755">
        <ele>257</ele>
        <time>2012-08-11T09:43:15Z</time>
      </trkpt>
      <trkpt lat="48.33821" lon="-0.34748">
        <ele>255.5</ele>
        <time>2012-08-11T09:43:17Z</time>
      </trkpt>
      <trkpt lat="48.33834" lon="-0.34733">
        <ele>255</ele>
        <time>2012-08-11T09:43:21Z</time>
      </trkpt>
      <trkpt lat="48.33856" lon="-0.34709">
        <ele>250</ele>
        <time>2012-08-11T09:43:29Z</time>
      </trkpt>
      <trkpt lat="48.33868" lon="-0.34692">
        <ele>250</ele>
        <time>2012-08-11T09:43:33Z</time>
      </trkpt>
      <trkpt lat="48.33891" lon="-0.34668">
        <ele>251</ele>
        <time>2012-08-11T09:43:39Z</time>
      </trkpt>
      <trkpt lat="48.33917" lon="-0.34638">
        <ele>252</ele>
        <time>2012-08-11T09:43:45Z</time>
      </trkpt>
      <trkpt lat="48.33933" lon="-0.34616">
        <ele>252.5</ele>
        <time>2012-08-11T09:43:49Z</time>
      </trkpt>
      <trkpt lat="48.33951" lon="-0.34593">
        <ele>251</ele>
        <time>2012-08-11T09:43:53Z</time>
      </trkpt>
      <trkpt lat="48.33974" lon="-0.34561">
        <ele>250.5</ele>
        <time>2012-08-11T09:43:59Z</time>
      </trkpt>
      <trkpt lat="48.33994" lon="-0.3454">
        <ele>251.5</ele>
        <time>2012-08-11T09:44:03Z</time>
      </trkpt>
      <trkpt lat="48.34012" lon="-0.34519">
        <ele>253</ele>
        <time>2012-08-11T09:44:07Z</time>
      </trkpt>
      <trkpt lat="48.34041" lon="-0.34485">
        <ele>250</ele>
        <time>2012-08-11T09:44:13Z</time>
      </trkpt>
      <trkpt lat="48.34076" lon="-0.34449">
        <ele>248.5</ele>
        <time>2012-08-11T09:44:19Z</time>
      </trkpt>
      <trkpt lat="48.34096" lon="-0.34424">
        <ele>248</ele>
        <time>2012-08-11T09:44:23Z</time>
      </trkpt>
      <trkpt lat="48.34116" lon="-0.34399">
        <ele>247.5</ele>
        <time>2012-08-11T09:44:27Z</time>
      </trkpt>
      <trkpt lat="48.34137" lon="-0.34376">
        <ele>246</ele>
        <time>2012-08-11T09:44:31Z</time>
      </trkpt>
      <trkpt lat="48.34158" lon="-0.34351">
        <ele>245.5</ele>
        <time>2012-08-11T09:44:35Z</time>
      </trkpt>
      <trkpt lat="48.34181" lon="-0.34327">
        <ele>241.5</ele>
        <time>2012-08-11T09:44:39Z</time>
      </trkpt>
      <trkpt lat="48.34202" lon="-0.34302">
        <ele>240.5</ele>
        <time>2012-08-11T09:44:43Z</time>
      </trkpt>
      <trkpt lat="48.34224" lon="-0.34277">
        <ele>241</ele>
        <time>2012-08-11T09:44:47Z</time>
      </trkpt>
      <trkpt lat="48.34244" lon="-0.34251">
        <ele>242</ele>
        <time>2012-08-11T09:44:51Z</time>
      </trkpt>
      <trkpt lat="48.34265" lon="-0.34226">
        <ele>241</ele>
        <time>2012-08-11T09:44:55Z</time>
      </trkpt>
      <trkpt lat="48.34286" lon="-0.34202">
        <ele>240.5</ele>
        <time>2012-08-11T09:44:59Z</time>
      </trkpt>
      <trkpt lat="48.34305" lon="-0.34178">
        <ele>240</ele>
        <time>2012-08-11T09:45:03Z</time>
      </trkpt>
      <trkpt lat="48.34326" lon="-0.34156">
        <ele>241.5</ele>
        <time>2012-08-11T09:45:07Z</time>
      </trkpt>
      <trkpt lat="48.34357" lon="-0.34126">
        <ele>242</ele>
        <time>2012-08-11T09:45:13Z</time>
      </trkpt>
      <trkpt lat="48.34376" lon="-0.34108">
        <ele>244</ele>
        <time>2012-08-11T09:45:17Z</time>
      </trkpt>
      <trkpt lat="48.34394" lon="-0.34093">
        <ele>245.5</ele>
        <time>2012-08-11T09:45:21Z</time>
      </trkpt>
      <trkpt lat="48.34412" lon="-0.34078">
        <ele>246</ele>
        <time>2012-08-11T09:45:25Z</time>
      </trkpt>
      <trkpt lat="48.3443" lon="-0.34062">
        <ele>247</ele>
        <time>2012-08-11T09:45:29Z</time>
      </trkpt>
      <trkpt lat="48.34448" lon="-0.34048">
        <ele>246.5</ele>
        <time>2012-08-11T09:45:33Z</time>
      </trkpt>
      <trkpt lat="48.34464" lon="-0.34035">
        <ele>245.5</ele>
        <time>2012-08-11T09:45:37Z</time>
      </trkpt>
      <trkpt lat="48.34481" lon="-0.34022">
        <ele>245.5</ele>
        <time>2012-08-11T09:45:41Z</time>
      </trkpt>
      <trkpt lat="48.34499" lon="-0.34005">
        <ele>245</ele>
        <time>2012-08-11T09:45:45Z</time>
      </trkpt>
      <trkpt lat="48.34517" lon="-0.33988">
        <ele>244.5</ele>
        <time>2012-08-11T09:45:49Z</time>
      </trkpt>
      <trkpt lat="48.34534" lon="-0.33971">
        <ele>245.5</ele>
        <time>2012-08-11T09:45:53Z</time>
      </trkpt>
      <trkpt lat="48.34551" lon="-0.33953">
        <ele>243.5</ele>
        <time>2012-08-11T09:45:57Z</time>
      </trkpt>
      <trkpt lat="48.34566" lon="-0.33934">
        <ele>244</ele>
        <time>2012-08-11T09:46:01Z</time>
      </trkpt>
      <trkpt lat="48.34581" lon="-0.33914">
        <ele>245</ele>
        <time>2012-08-11T09:46:05Z</time>
      </trkpt>
      <trkpt lat="48.34595" lon="-0.33893">
        <ele>246</ele>
        <time>2012-08-11T09:46:09Z</time>
      </trkpt>
      <trkpt lat="48.34608" lon="-0.33867">
        <ele>247.5</ele>
        <time>2012-08-11T09:46:13Z</time>
      </trkpt>
      <trkpt lat="48.3462" lon="-0.33843">
        <ele>249.5</ele>
        <time>2012-08-11T09:46:17Z</time>
      </trkpt>
      <trkpt lat="48.34632" lon="-0.33819">
        <ele>250</ele>
        <time>2012-08-11T09:46:21Z</time>
      </trkpt>
      <trkpt lat="48.34641" lon="-0.33798">
        <ele>250</ele>
        <time>2012-08-11T09:46:25Z</time>
      </trkpt>
      <trkpt lat="48.34651" lon="-0.33773">
        <ele>250</ele>
        <time>2012-08-11T09:46:29Z</time>
      </trkpt>
      <trkpt lat="48.34659" lon="-0.33747">
        <ele>249.5</ele>
        <time>2012-08-11T09:46:33Z</time>
      </trkpt>
      <trkpt lat="48.34665" lon="-0.33722">
        <ele>248.5</ele>
        <time>2012-08-11T09:46:37Z</time>
      </trkpt>
      <trkpt lat="48.34671" lon="-0.33696">
        <ele>249</ele>
        <time>2012-08-11T09:46:41Z</time>
      </trkpt>
      <trkpt lat="48.34673" lon="-0.33684">
        <ele>249</ele>
        <time>2012-08-11T09:46:43Z</time>
      </trkpt>
      <trkpt lat="48.34678" lon="-0.33659">
        <ele>248.5</ele>
        <time>2012-08-11T09:46:47Z</time>
      </trkpt>
      <trkpt lat="48.34681" lon="-0.33646">
        <ele>248</ele>
        <time>2012-08-11T09:46:49Z</time>
      </trkpt>
      <trkpt lat="48.34686" lon="-0.3362">
        <ele>247.5</ele>
        <time>2012-08-11T09:46:53Z</time>
      </trkpt>
      <trkpt lat="48.3469" lon="-0.33593">
        <ele>248</ele>
        <time>2012-08-11T09:46:57Z</time>
      </trkpt>
      <trkpt lat="48.34695" lon="-0.33566">
        <ele>247</ele>
        <time>2012-08-11T09:47:01Z</time>
      </trkpt>
      <trkpt lat="48.347" lon="-0.33539">
        <ele>247.5</ele>
        <time>2012-08-11T09:47:05Z</time>
      </trkpt>
      <trkpt lat="48.34706" lon="-0.33511">
        <ele>247.5</ele>
        <time>2012-08-11T09:47:09Z</time>
      </trkpt>
      <trkpt lat="48.34711" lon="-0.33481">
        <ele>247.5</ele>
        <time>2012-08-11T09:47:13Z</time>
      </trkpt>
      <trkpt lat="48.34723" lon="-0.33424">
        <ele>248.5</ele>
        <time>2012-08-11T09:47:21Z</time>
      </trkpt>
      <trkpt lat="48.34729" lon="-0.334">
        <ele>248.5</ele>
        <time>2012-08-11T09:47:25Z</time>
      </trkpt>
      <trkpt lat="48.34736" lon="-0.33379">
        <ele>248.5</ele>
        <time>2012-08-11T09:47:29Z</time>
      </trkpt>
      <trkpt lat="48.34738" lon="-0.3336">
        <ele>250.5</ele>
        <time>2012-08-11T09:47:33Z</time>
      </trkpt>
      <trkpt lat="48.34742" lon="-0.33343">
        <ele>251</ele>
        <time>2012-08-11T09:47:37Z</time>
      </trkpt>
      <trkpt lat="48.34745" lon="-0.33334">
        <ele>250.5</ele>
        <time>2012-08-11T09:47:39Z</time>
      </trkpt>
      <trkpt lat="48.34751" lon="-0.33312">
        <ele>250.5</ele>
        <time>2012-08-11T09:47:43Z</time>
      </trkpt>
      <trkpt lat="48.34757" lon="-0.33301">
        <ele>250.5</ele>
        <time>2012-08-11T09:47:45Z</time>
      </trkpt>
      <trkpt lat="48.34768" lon="-0.33276">
        <ele>250</ele>
        <time>2012-08-11T09:47:49Z</time>
      </trkpt>
      <trkpt lat="48.3478" lon="-0.33251">
        <ele>250.5</ele>
        <time>2012-08-11T09:47:53Z</time>
      </trkpt>
      <trkpt lat="48.34792" lon="-0.33224">
        <ele>250.5</ele>
        <time>2012-08-11T09:47:57Z</time>
      </trkpt>
      <trkpt lat="48.34805" lon="-0.33199">
        <ele>250.5</ele>
        <time>2012-08-11T09:48:01Z</time>
      </trkpt>
      <trkpt lat="48.34819" lon="-0.33175">
        <ele>250</ele>
        <time>2012-08-11T09:48:05Z</time>
      </trkpt>
      <trkpt lat="48.34835" lon="-0.33151">
        <ele>249.5</ele>
        <time>2012-08-11T09:48:09Z</time>
      </trkpt>
      <trkpt lat="48.3485" lon="-0.3313">
        <ele>249</ele>
        <time>2012-08-11T09:48:13Z</time>
      </trkpt>
      <trkpt lat="48.34866" lon="-0.33109">
        <ele>249</ele>
        <time>2012-08-11T09:48:17Z</time>
      </trkpt>
      <trkpt lat="48.34882" lon="-0.33088">
        <ele>249.5</ele>
        <time>2012-08-11T09:48:21Z</time>
      </trkpt>
      <trkpt lat="48.34907" lon="-0.33057">
        <ele>249.5</ele>
        <time>2012-08-11T09:48:27Z</time>
      </trkpt>
      <trkpt lat="48.34923" lon="-0.33034">
        <ele>249.5</ele>
        <time>2012-08-11T09:48:31Z</time>
      </trkpt>
      <trkpt lat="48.34939" lon="-0.33013">
        <ele>249</ele>
        <time>2012-08-11T09:48:35Z</time>
      </trkpt>
      <trkpt lat="48.34956" lon="-0.32993">
        <ele>248</ele>
        <time>2012-08-11T09:48:39Z</time>
      </trkpt>
      <trkpt lat="48.34973" lon="-0.32972">
        <ele>248.5</ele>
        <time>2012-08-11T09:48:43Z</time>
      </trkpt>
      <trkpt lat="48.3499" lon="-0.3295">
        <ele>248.5</ele>
        <time>2012-08-11T09:48:47Z</time>
      </trkpt>
      <trkpt lat="48.35007" lon="-0.32928">
        <ele>248.5</ele>
        <time>2012-08-11T09:48:51Z</time>
      </trkpt>
      <trkpt lat="48.35024" lon="-0.32906">
        <ele>248.5</ele>
        <time>2012-08-11T09:48:55Z</time>
      </trkpt>
      <trkpt lat="48.35038" lon="-0.32885">
        <ele>248</ele>
        <time>2012-08-11T09:48:59Z</time>
      </trkpt>
      <trkpt lat="48.35052" lon="-0.32863">
        <ele>248</ele>
        <time>2012-08-11T09:49:03Z</time>
      </trkpt>
      <trkpt lat="48.35066" lon="-0.32839">
        <ele>248.5</ele>
        <time>2012-08-11T09:49:07Z</time>
      </trkpt>
      <trkpt lat="48.35077" lon="-0.32819">
        <ele>250</ele>
        <time>2012-08-11T09:49:11Z</time>
      </trkpt>
      <trkpt lat="48.3509" lon="-0.32795">
        <ele>249</ele>
        <time>2012-08-11T09:49:15Z</time>
      </trkpt>
      <trkpt lat="48.35101" lon="-0.3277">
        <ele>248</ele>
        <time>2012-08-11T09:49:19Z</time>
      </trkpt>
      <trkpt lat="48.3511" lon="-0.32745">
        <ele>250</ele>
        <time>2012-08-11T09:49:23Z</time>
      </trkpt>
      <trkpt lat="48.35121" lon="-0.32719">
        <ele>252.5</ele>
        <time>2012-08-11T09:49:27Z</time>
      </trkpt>
      <trkpt lat="48.35131" lon="-0.32691">
        <ele>254.5</ele>
        <time>2012-08-11T09:49:31Z</time>
      </trkpt>
      <trkpt lat="48.3514" lon="-0.32664">
        <ele>254.5</ele>
        <time>2012-08-11T09:49:35Z</time>
      </trkpt>
      <trkpt lat="48.35148" lon="-0.32634">
        <ele>252</ele>
        <time>2012-08-11T09:49:39Z</time>
      </trkpt>
      <trkpt lat="48.35158" lon="-0.32606">
        <ele>249.5</ele>
        <time>2012-08-11T09:49:43Z</time>
      </trkpt>
      <trkpt lat="48.35166" lon="-0.32576">
        <ele>250.5</ele>
        <time>2012-08-11T09:49:47Z</time>
      </trkpt>
      <trkpt lat="48.35173" lon="-0.32545">
        <ele>250.5</ele>
        <time>2012-08-11T09:49:51Z</time>
      </trkpt>
      <trkpt lat="48.35182" lon="-0.32499">
        <ele>248.5</ele>
        <time>2012-08-11T09:49:57Z</time>
      </trkpt>
      <trkpt lat="48.35187" lon="-0.32468">
        <ele>247</ele>
        <time>2012-08-11T09:50:01Z</time>
      </trkpt>
      <trkpt lat="48.35193" lon="-0.32438">
        <ele>248</ele>
        <time>2012-08-11T09:50:05Z</time>
      </trkpt>
      <trkpt lat="48.35197" lon="-0.3241">
        <ele>246</ele>
        <time>2012-08-11T09:50:09Z</time>
      </trkpt>
      <trkpt lat="48.35203" lon="-0.32381">
        <ele>247</ele>
        <time>2012-08-11T09:50:13Z</time>
      </trkpt>
      <trkpt lat="48.35208" lon="-0.32354">
        <ele>247</ele>
        <time>2012-08-11T09:50:17Z</time>
      </trkpt>
      <trkpt lat="48.35212" lon="-0.32327">
        <ele>246.5</ele>
        <time>2012-08-11T09:50:21Z</time>
      </trkpt>
      <trkpt lat="48.35219" lon="-0.32299">
        <ele>247.5</ele>
        <time>2012-08-11T09:50:25Z</time>
      </trkpt>
      <trkpt lat="48.35229" lon="-0.32257">
        <ele>247.5</ele>
        <time>2012-08-11T09:50:31Z</time>
      </trkpt>
      <trkpt lat="48.35235" lon="-0.32233">
        <ele>247.5</ele>
        <time>2012-08-11T09:50:35Z</time>
      </trkpt>
      <trkpt lat="48.35239" lon="-0.32207">
        <ele>247</ele>
        <time>2012-08-11T09:50:39Z</time>
      </trkpt>
      <trkpt lat="48.35242" lon="-0.32194">
        <ele>246.5</ele>
        <time>2012-08-11T09:50:41Z</time>
      </trkpt>
      <trkpt lat="48.35246" lon="-0.32172">
        <ele>247</ele>
        <time>2012-08-11T09:50:45Z</time>
      </trkpt>
      <trkpt lat="48.35248" lon="-0.32162">
        <ele>247</ele>
        <time>2012-08-11T09:50:47Z</time>
      </trkpt>
      <trkpt lat="48.35251" lon="-0.32137">
        <ele>245.5</ele>
        <time>2012-08-11T09:50:53Z</time>
      </trkpt>
      <trkpt lat="48.35254" lon="-0.32123">
        <ele>245</ele>
        <time>2012-08-11T09:50:57Z</time>
      </trkpt>
      <trkpt lat="48.35256" lon="-0.32114">
        <ele>245</ele>
        <time>2012-08-11T09:50:59Z</time>
      </trkpt>
      <trkpt lat="48.35261" lon="-0.32095">
        <ele>246</ele>
        <time>2012-08-11T09:51:03Z</time>
      </trkpt>
      <trkpt lat="48.35266" lon="-0.32074">
        <ele>244.5</ele>
        <time>2012-08-11T09:51:07Z</time>
      </trkpt>
      <trkpt lat="48.3527" lon="-0.32052">
        <ele>244.5</ele>
        <time>2012-08-11T09:51:11Z</time>
      </trkpt>
      <trkpt lat="48.35272" lon="-0.3203">
        <ele>243</ele>
        <time>2012-08-11T09:51:15Z</time>
      </trkpt>
      <trkpt lat="48.35274" lon="-0.32018">
        <ele>242.5</ele>
        <time>2012-08-11T09:51:17Z</time>
      </trkpt>
      <trkpt lat="48.35279" lon="-0.31994">
        <ele>240.5</ele>
        <time>2012-08-11T09:51:21Z</time>
      </trkpt>
      <trkpt lat="48.35288" lon="-0.31968">
        <ele>241.5</ele>
        <time>2012-08-11T09:51:25Z</time>
      </trkpt>
      <trkpt lat="48.35297" lon="-0.31942">
        <ele>243</ele>
        <time>2012-08-11T09:51:29Z</time>
      </trkpt>
      <trkpt lat="48.3531" lon="-0.31906">
        <ele>245</ele>
        <time>2012-08-11T09:51:35Z</time>
      </trkpt>
      <trkpt lat="48.35326" lon="-0.31877">
        <ele>247</ele>
        <time>2012-08-11T09:51:39Z</time>
      </trkpt>
      <trkpt lat="48.3534" lon="-0.31849">
        <ele>247.5</ele>
        <time>2012-08-11T09:51:43Z</time>
      </trkpt>
      <trkpt lat="48.3537" lon="-0.31809">
        <ele>246</ele>
        <time>2012-08-11T09:51:49Z</time>
      </trkpt>
      <trkpt lat="48.35381" lon="-0.31787">
        <ele>245</ele>
        <time>2012-08-11T09:51:53Z</time>
      </trkpt>
      <trkpt lat="48.35397" lon="-0.31765">
        <ele>245</ele>
        <time>2012-08-11T09:51:57Z</time>
      </trkpt>
      <trkpt lat="48.35431" lon="-0.31722">
        <ele>245</ele>
        <time>2012-08-11T09:52:05Z</time>
      </trkpt>
      <trkpt lat="48.35449" lon="-0.31702">
        <ele>244</ele>
        <time>2012-08-11T09:52:09Z</time>
      </trkpt>
      <trkpt lat="48.35468" lon="-0.31681">
        <ele>243</ele>
        <time>2012-08-11T09:52:13Z</time>
      </trkpt>
      <trkpt lat="48.35488" lon="-0.31662">
        <ele>241.5</ele>
        <time>2012-08-11T09:52:17Z</time>
      </trkpt>
      <trkpt lat="48.35511" lon="-0.31643">
        <ele>242</ele>
        <time>2012-08-11T09:52:21Z</time>
      </trkpt>
      <trkpt lat="48.35532" lon="-0.31625">
        <ele>239.5</ele>
        <time>2012-08-11T09:52:25Z</time>
      </trkpt>
      <trkpt lat="48.35551" lon="-0.31613">
        <ele>240</ele>
        <time>2012-08-11T09:52:29Z</time>
      </trkpt>
      <trkpt lat="48.35572" lon="-0.316">
        <ele>238.5</ele>
        <time>2012-08-11T09:52:33Z</time>
      </trkpt>
      <trkpt lat="48.35593" lon="-0.31589">
        <ele>239.5</ele>
        <time>2012-08-11T09:52:37Z</time>
      </trkpt>
      <trkpt lat="48.35613" lon="-0.31578">
        <ele>237</ele>
        <time>2012-08-11T09:52:41Z</time>
      </trkpt>
      <trkpt lat="48.35634" lon="-0.31568">
        <ele>236.5</ele>
        <time>2012-08-11T09:52:45Z</time>
      </trkpt>
      <trkpt lat="48.35653" lon="-0.31559">
        <ele>231.5</ele>
        <time>2012-08-11T09:52:49Z</time>
      </trkpt>
      <trkpt lat="48.35672" lon="-0.31549">
        <ele>227.5</ele>
        <time>2012-08-11T09:52:53Z</time>
      </trkpt>
      <trkpt lat="48.35692" lon="-0.3154">
        <ele>225.5</ele>
        <time>2012-08-11T09:52:57Z</time>
      </trkpt>
      <trkpt lat="48.35713" lon="-0.31532">
        <ele>224</ele>
        <time>2012-08-11T09:53:01Z</time>
      </trkpt>
      <trkpt lat="48.35733" lon="-0.31525">
        <ele>228.5</ele>
        <time>2012-08-11T09:53:05Z</time>
      </trkpt>
      <trkpt lat="48.35752" lon="-0.31516">
        <ele>227.5</ele>
        <time>2012-08-11T09:53:09Z</time>
      </trkpt>
      <trkpt lat="48.35772" lon="-0.3151">
        <ele>227</ele>
        <time>2012-08-11T09:53:13Z</time>
      </trkpt>
      <trkpt lat="48.35791" lon="-0.31502">
        <ele>224</ele>
        <time>2012-08-11T09:53:17Z</time>
      </trkpt>
      <trkpt lat="48.35808" lon="-0.31497">
        <ele>222</ele>
        <time>2012-08-11T09:53:21Z</time>
      </trkpt>
      <trkpt lat="48.35826" lon="-0.31492">
        <ele>221</ele>
        <time>2012-08-11T09:53:25Z</time>
      </trkpt>
      <trkpt lat="48.35844" lon="-0.31489">
        <ele>219</ele>
        <time>2012-08-11T09:53:29Z</time>
      </trkpt>
      <trkpt lat="48.35862" lon="-0.31484">
        <ele>217</ele>
        <time>2012-08-11T09:53:33Z</time>
      </trkpt>
      <trkpt lat="48.35881" lon="-0.31483">
        <ele>215.5</ele>
        <time>2012-08-11T09:53:37Z</time>
      </trkpt>
      <trkpt lat="48.359" lon="-0.31482">
        <ele>214.5</ele>
        <time>2012-08-11T09:53:41Z</time>
      </trkpt>
      <trkpt lat="48.3592" lon="-0.31486">
        <ele>216</ele>
        <time>2012-08-11T09:53:45Z</time>
      </trkpt>
      <trkpt lat="48.35939" lon="-0.31492">
        <ele>218</ele>
        <time>2012-08-11T09:53:49Z</time>
      </trkpt>
      <trkpt lat="48.35958" lon="-0.315">
        <ele>220</ele>
        <time>2012-08-11T09:53:53Z</time>
      </trkpt>
      <trkpt lat="48.35976" lon="-0.31508">
        <ele>220.5</ele>
        <time>2012-08-11T09:53:57Z</time>
      </trkpt>
      <trkpt lat="48.35994" lon="-0.31517">
        <ele>220.5</ele>
        <time>2012-08-11T09:54:01Z</time>
      </trkpt>
      <trkpt lat="48.3601" lon="-0.31524">
        <ele>218.5</ele>
        <time>2012-08-11T09:54:05Z</time>
      </trkpt>
      <trkpt lat="48.36023" lon="-0.31534">
        <ele>221.5</ele>
        <time>2012-08-11T09:54:09Z</time>
      </trkpt>
      <trkpt lat="48.36026" lon="-0.31518">
        <ele>223</ele>
        <time>2012-08-11T09:54:15Z</time>
      </trkpt>
      <trkpt lat="48.36018" lon="-0.31502">
        <ele>224</ele>
        <time>2012-08-11T09:54:19Z</time>
      </trkpt>
      <trkpt lat="48.36011" lon="-0.31498">
        <ele>225</ele>
        <time>2012-08-11T09:54:21Z</time>
      </trkpt>
      <trkpt lat="48.36005" lon="-0.31495">
        <ele>226</ele>
        <time>2012-08-11T09:54:23Z</time>
      </trkpt>
      <trkpt lat="48.35998" lon="-0.31493">
        <ele>226.5</ele>
        <time>2012-08-11T09:54:25Z</time>
      </trkpt>
      <trkpt lat="48.35978" lon="-0.31488">
        <ele>228.5</ele>
        <time>2012-08-11T09:54:31Z</time>
      </trkpt>
      <trkpt lat="48.35963" lon="-0.31485">
        <ele>230</ele>
        <time>2012-08-11T09:54:35Z</time>
      </trkpt>
      <trkpt lat="48.35956" lon="-0.31483">
        <ele>230</ele>
        <time>2012-08-11T09:54:37Z</time>
      </trkpt>
      <trkpt lat="48.35941" lon="-0.31479">
        <ele>231</ele>
        <time>2012-08-11T09:54:41Z</time>
      </trkpt>
      <trkpt lat="48.35927" lon="-0.31475">
        <ele>232</ele>
        <time>2012-08-11T09:54:45Z</time>
      </trkpt>
      <trkpt lat="48.35914" lon="-0.31473">
        <ele>232</ele>
        <time>2012-08-11T09:54:49Z</time>
      </trkpt>
      <trkpt lat="48.35908" lon="-0.31471">
        <ele>232.5</ele>
        <time>2012-08-11T09:54:51Z</time>
      </trkpt>
      <trkpt lat="48.35896" lon="-0.31468">
        <ele>233</ele>
        <time>2012-08-11T09:54:55Z</time>
      </trkpt>
      <trkpt lat="48.35891" lon="-0.31466">
        <ele>233</ele>
        <time>2012-08-11T09:54:57Z</time>
      </trkpt>
      <trkpt lat="48.35884" lon="-0.31465">
        <ele>233</ele>
        <time>2012-08-11T09:55:01Z</time>
      </trkpt>
      <trkpt lat="48.35884" lon="-0.31465">
        <ele>233</ele>
        <time>2012-08-11T09:55:17Z</time>
      </trkpt>
      <trkpt lat="48.35884" lon="-0.31465">
        <ele>233</ele>
        <time>2012-08-11T09:55:33Z</time>
      </trkpt>
      <trkpt lat="48.35884" lon="-0.31465">
        <ele>233</ele>
        <time>2012-08-11T09:55:49Z</time>
      </trkpt>
      <trkpt lat="48.35884" lon="-0.31465">
        <ele>233</ele>
        <time>2012-08-11T09:56:05Z</time>
      </trkpt>
      <trkpt lat="48.35884" lon="-0.31465">
        <ele>233</ele>
        <time>2012-08-11T09:56:21Z</time>
      </trkpt>
      <trkpt lat="48.35884" lon="-0.31465">
        <ele>233</ele>
        <time>2012-08-11T09:56:37Z</time>
      </trkpt>
      <trkpt lat="48.35884" lon="-0.31465">
        <ele>233</ele>
        <time>2012-08-11T09:56:53Z</time>
      </trkpt>
      <trkpt lat="48.35884" lon="-0.31465">
        <ele>233</ele>
        <time>2012-08-11T09:57:21Z</time>
      </trkpt>
      <trkpt lat="48.35896" lon="-0.31463">
        <ele>234</ele>
        <time>2012-08-11T09:57:23Z</time>
      </trkpt>
      <trkpt lat="48.35901" lon="-0.31465">
        <ele>234.5</ele>
        <time>2012-08-11T09:57:25Z</time>
      </trkpt>
      <trkpt lat="48.35919" lon="-0.31471">
        <ele>234.5</ele>
        <time>2012-08-11T09:57:31Z</time>
      </trkpt>
      <trkpt lat="48.35939" lon="-0.31477">
        <ele>235</ele>
        <time>2012-08-11T09:57:37Z</time>
      </trkpt>
      <trkpt lat="48.35953" lon="-0.31481">
        <ele>235</ele>
        <time>2012-08-11T09:57:41Z</time>
      </trkpt>
      <trkpt lat="48.3596" lon="-0.31482">
        <ele>235</ele>
        <time>2012-08-11T09:57:43Z</time>
      </trkpt>
      <trkpt lat="48.35975" lon="-0.31486">
        <ele>235</ele>
        <time>2012-08-11T09:57:47Z</time>
      </trkpt>
      <trkpt lat="48.3599" lon="-0.3149">
        <ele>235</ele>
        <time>2012-08-11T09:57:51Z</time>
      </trkpt>
      <trkpt lat="48.35998" lon="-0.31492">
        <ele>235</ele>
        <time>2012-08-11T09:57:53Z</time>
      </trkpt>
      <trkpt lat="48.36013" lon="-0.31496">
        <ele>235</ele>
        <time>2012-08-11T09:57:57Z</time>
      </trkpt>
      <trkpt lat="48.36027" lon="-0.31502">
        <ele>234.5</ele>
        <time>2012-08-11T09:58:01Z</time>
      </trkpt>
      <trkpt lat="48.36033" lon="-0.31504">
        <ele>235</ele>
        <time>2012-08-11T09:58:03Z</time>
      </trkpt>
      <trkpt lat="48.36047" lon="-0.3151">
        <ele>235</ele>
        <time>2012-08-11T09:58:07Z</time>
      </trkpt>
      <trkpt lat="48.36055" lon="-0.31514">
        <ele>235</ele>
        <time>2012-08-11T09:58:09Z</time>
      </trkpt>
      <trkpt lat="48.36072" lon="-0.31523">
        <ele>235</ele>
        <time>2012-08-11T09:58:13Z</time>
      </trkpt>
      <trkpt lat="48.36087" lon="-0.31533">
        <ele>234</ele>
        <time>2012-08-11T09:58:17Z</time>
      </trkpt>
      <trkpt lat="48.36096" lon="-0.31539">
        <ele>233.5</ele>
        <time>2012-08-11T09:58:19Z</time>
      </trkpt>
      <trkpt lat="48.36112" lon="-0.31552">
        <ele>233.5</ele>
        <time>2012-08-11T09:58:23Z</time>
      </trkpt>
      <trkpt lat="48.3612" lon="-0.31558">
        <ele>233.5</ele>
        <time>2012-08-11T09:58:25Z</time>
      </trkpt>
      <trkpt lat="48.36136" lon="-0.3157">
        <ele>233.5</ele>
        <time>2012-08-11T09:58:29Z</time>
      </trkpt>
      <trkpt lat="48.36151" lon="-0.31581">
        <ele>233.5</ele>
        <time>2012-08-11T09:58:33Z</time>
      </trkpt>
      <trkpt lat="48.36158" lon="-0.31587">
        <ele>233.5</ele>
        <time>2012-08-11T09:58:35Z</time>
      </trkpt>
      <trkpt lat="48.36173" lon="-0.31598">
        <ele>233.5</ele>
        <time>2012-08-11T09:58:39Z</time>
      </trkpt>
      <trkpt lat="48.3618" lon="-0.31602">
        <ele>233.5</ele>
        <time>2012-08-11T09:58:41Z</time>
      </trkpt>
      <trkpt lat="48.36195" lon="-0.31601">
        <ele>233.5</ele>
        <time>2012-08-11T09:58:45Z</time>
      </trkpt>
      <trkpt lat="48.36203" lon="-0.31609">
        <ele>234</ele>
        <time>2012-08-11T09:58:49Z</time>
      </trkpt>
      <trkpt lat="48.3618" lon="-0.31609">
        <ele>235.5</ele>
        <time>2012-08-11T09:58:57Z</time>
      </trkpt>
      <trkpt lat="48.36164" lon="-0.31599">
        <ele>235.5</ele>
        <time>2012-08-11T09:59:01Z</time>
      </trkpt>
      <trkpt lat="48.36156" lon="-0.31593">
        <ele>235.5</ele>
        <time>2012-08-11T09:59:03Z</time>
      </trkpt>
      <trkpt lat="48.36139" lon="-0.31579">
        <ele>236</ele>
        <time>2012-08-11T09:59:07Z</time>
      </trkpt>
      <trkpt lat="48.36121" lon="-0.31565">
        <ele>235.5</ele>
        <time>2012-08-11T09:59:11Z</time>
      </trkpt>
      <trkpt lat="48.36103" lon="-0.31551">
        <ele>235.5</ele>
        <time>2012-08-11T09:59:15Z</time>
      </trkpt>
      <trkpt lat="48.36087" lon="-0.31539">
        <ele>235.5</ele>
        <time>2012-08-11T09:59:19Z</time>
      </trkpt>
      <trkpt lat="48.36073" lon="-0.3153">
        <ele>236</ele>
        <time>2012-08-11T09:59:23Z</time>
      </trkpt>
    </trkseg>
  </trk>
</gpx>